<?xml version="1.0" encoding="UTF-8" standalone="no" ?>
<gpx xmlns="http://www.topografix.com/GPX/1/1" xmlns:xsi="http://www.w3.org/2001/XMLSchema-instance" xsi:schemaLocation="http://www.topografix.com/GPX/1/1 http://www.topografix.com/GPX/1/1/gpx.xsd" version="1.1" creator="VisuGPX - https://www.visugpx.com">
  <metadata>
    <name>Journée test du yt Capra pro 29</name>
  </metadata>
  <trk>
    <name><![CDATA[Journée test du yt Capra pro 29 😎]]></name>
    <trkseg>
      <trkpt lat="42.76909" lon="0.57868">
        <ele>1842</ele>
        <time>1970-01-01T00:00:00.000Z</time>
      </trkpt>
      <trkpt lat="42.7691" lon="0.57867">
        <ele>1842</ele>
        <time>1970-01-01T00:00:01.000Z</time>
      </trkpt>
      <trkpt lat="42.76911" lon="0.57867">
        <ele>1842</ele>
        <time>1970-01-01T00:00:02.000Z</time>
      </trkpt>
      <trkpt lat="42.76912" lon="0.57866">
        <ele>1842</ele>
        <time>1970-01-01T00:00:03.000Z</time>
      </trkpt>
      <trkpt lat="42.76913" lon="0.57866">
        <ele>1842</ele>
        <time>1970-01-01T00:00:04.000Z</time>
      </trkpt>
      <trkpt lat="42.76914" lon="0.57865">
        <ele>1842</ele>
        <time>1970-01-01T00:00:05.000Z</time>
      </trkpt>
      <trkpt lat="42.76915" lon="0.57864">
        <ele>1842</ele>
        <time>1970-01-01T00:00:06.000Z</time>
      </trkpt>
      <trkpt lat="42.76921" lon="0.5786">
        <ele>1842</ele>
        <time>1970-01-01T00:00:07.000Z</time>
      </trkpt>
      <trkpt lat="42.76922" lon="0.57859">
        <ele>1842</ele>
        <time>1970-01-01T00:00:08.000Z</time>
      </trkpt>
      <trkpt lat="42.76924" lon="0.57858">
        <ele>1842</ele>
        <time>1970-01-01T00:00:09.000Z</time>
      </trkpt>
      <trkpt lat="42.76925" lon="0.57857">
        <ele>1842</ele>
        <time>1970-01-01T00:00:10.000Z</time>
      </trkpt>
      <trkpt lat="42.76931" lon="0.57852">
        <ele>1842</ele>
        <time>1970-01-01T00:00:11.000Z</time>
      </trkpt>
      <trkpt lat="42.76932" lon="0.57851">
        <ele>1842</ele>
        <time>1970-01-01T00:00:12.000Z</time>
      </trkpt>
      <trkpt lat="42.76933" lon="0.5785">
        <ele>1842</ele>
        <time>1970-01-01T00:00:13.000Z</time>
      </trkpt>
      <trkpt lat="42.76934" lon="0.57849">
        <ele>1842</ele>
        <time>1970-01-01T00:00:14.000Z</time>
      </trkpt>
      <trkpt lat="42.76941" lon="0.57843">
        <ele>1842</ele>
        <time>1970-01-01T00:00:15.000Z</time>
      </trkpt>
      <trkpt lat="42.76942" lon="0.57842">
        <ele>1842</ele>
        <time>1970-01-01T00:00:16.000Z</time>
      </trkpt>
      <trkpt lat="42.76944" lon="0.5784">
        <ele>1842</ele>
        <time>1970-01-01T00:00:17.000Z</time>
      </trkpt>
      <trkpt lat="42.76945" lon="0.57838">
        <ele>1843</ele>
        <time>1970-01-01T00:00:18.000Z</time>
      </trkpt>
      <trkpt lat="42.76946" lon="0.57836">
        <ele>1843</ele>
        <time>1970-01-01T00:00:19.000Z</time>
      </trkpt>
      <trkpt lat="42.76947" lon="0.57835">
        <ele>1843</ele>
        <time>1970-01-01T00:00:20.000Z</time>
      </trkpt>
      <trkpt lat="42.76947" lon="0.57835">
        <ele>1843</ele>
        <time>1970-01-01T00:00:21.000Z</time>
      </trkpt>
      <trkpt lat="42.76948" lon="0.57834">
        <ele>1843</ele>
        <time>1970-01-01T00:00:22.000Z</time>
      </trkpt>
      <trkpt lat="42.76948" lon="0.57834">
        <ele>1843</ele>
        <time>1970-01-01T00:00:23.000Z</time>
      </trkpt>
      <trkpt lat="42.76949" lon="0.57834">
        <ele>1843</ele>
        <time>1970-01-01T00:00:24.000Z</time>
      </trkpt>
      <trkpt lat="42.7695" lon="0.57833">
        <ele>1843</ele>
        <time>1970-01-01T00:00:25.000Z</time>
      </trkpt>
      <trkpt lat="42.7695" lon="0.57833">
        <ele>1843</ele>
        <time>1970-01-01T00:00:26.000Z</time>
      </trkpt>
      <trkpt lat="42.76951" lon="0.57832">
        <ele>1843</ele>
        <time>1970-01-01T00:00:27.000Z</time>
      </trkpt>
      <trkpt lat="42.76951" lon="0.57832">
        <ele>1845</ele>
        <time>1970-01-01T00:00:28.000Z</time>
      </trkpt>
      <trkpt lat="42.76957" lon="0.57827">
        <ele>1845</ele>
        <time>1970-01-01T00:00:29.000Z</time>
      </trkpt>
      <trkpt lat="42.76958" lon="0.57827">
        <ele>1845</ele>
        <time>1970-01-01T00:00:30.000Z</time>
      </trkpt>
      <trkpt lat="42.76959" lon="0.57826">
        <ele>1845</ele>
        <time>1970-01-01T00:00:31.000Z</time>
      </trkpt>
      <trkpt lat="42.76961" lon="0.57825">
        <ele>1845</ele>
        <time>1970-01-01T00:00:32.000Z</time>
      </trkpt>
      <trkpt lat="42.76968" lon="0.57822">
        <ele>1845</ele>
        <time>1970-01-01T00:00:33.000Z</time>
      </trkpt>
      <trkpt lat="42.7697" lon="0.57821">
        <ele>1845</ele>
        <time>1970-01-01T00:00:34.000Z</time>
      </trkpt>
      <trkpt lat="42.76972" lon="0.5782">
        <ele>1845</ele>
        <time>1970-01-01T00:00:35.000Z</time>
      </trkpt>
      <trkpt lat="42.76981" lon="0.57815">
        <ele>1845</ele>
        <time>1970-01-01T00:00:36.000Z</time>
      </trkpt>
      <trkpt lat="42.76984" lon="0.57813">
        <ele>1845</ele>
        <time>1970-01-01T00:00:37.000Z</time>
      </trkpt>
      <trkpt lat="42.76992" lon="0.57808">
        <ele>1840</ele>
        <time>1970-01-01T00:00:38.000Z</time>
      </trkpt>
      <trkpt lat="42.76994" lon="0.57805">
        <ele>1840</ele>
        <time>1970-01-01T00:00:39.000Z</time>
      </trkpt>
      <trkpt lat="42.77001" lon="0.57798">
        <ele>1840</ele>
        <time>1970-01-01T00:00:40.000Z</time>
      </trkpt>
      <trkpt lat="42.77003" lon="0.57796">
        <ele>1840</ele>
        <time>1970-01-01T00:00:41.000Z</time>
      </trkpt>
      <trkpt lat="42.7701" lon="0.57786">
        <ele>1840</ele>
        <time>1970-01-01T00:00:42.000Z</time>
      </trkpt>
      <trkpt lat="42.77014" lon="0.57782">
        <ele>1837</ele>
        <time>1970-01-01T00:00:43.000Z</time>
      </trkpt>
      <trkpt lat="42.77015" lon="0.57779">
        <ele>1837</ele>
        <time>1970-01-01T00:00:44.000Z</time>
      </trkpt>
      <trkpt lat="42.77017" lon="0.57776">
        <ele>1837</ele>
        <time>1970-01-01T00:00:45.000Z</time>
      </trkpt>
      <trkpt lat="42.7702" lon="0.57769">
        <ele>1837</ele>
        <time>1970-01-01T00:00:46.000Z</time>
      </trkpt>
      <trkpt lat="42.7702" lon="0.57768">
        <ele>1837</ele>
        <time>1970-01-01T00:00:47.000Z</time>
      </trkpt>
      <trkpt lat="42.77021" lon="0.57767">
        <ele>1837</ele>
        <time>1970-01-01T00:00:48.000Z</time>
      </trkpt>
      <trkpt lat="42.77021" lon="0.57766">
        <ele>1837</ele>
        <time>1970-01-01T00:00:49.000Z</time>
      </trkpt>
      <trkpt lat="42.77021" lon="0.57765">
        <ele>1837</ele>
        <time>1970-01-01T00:00:50.000Z</time>
      </trkpt>
      <trkpt lat="42.77021" lon="0.57764">
        <ele>1837</ele>
        <time>1970-01-01T00:00:51.000Z</time>
      </trkpt>
      <trkpt lat="42.77021" lon="0.57762">
        <ele>1837</ele>
        <time>1970-01-01T00:00:52.000Z</time>
      </trkpt>
      <trkpt lat="42.77021" lon="0.57761">
        <ele>1835</ele>
        <time>1970-01-01T00:00:53.000Z</time>
      </trkpt>
      <trkpt lat="42.77023" lon="0.5775">
        <ele>1835</ele>
        <time>1970-01-01T00:00:54.000Z</time>
      </trkpt>
      <trkpt lat="42.77023" lon="0.57748">
        <ele>1835</ele>
        <time>1970-01-01T00:00:55.000Z</time>
      </trkpt>
      <trkpt lat="42.77024" lon="0.57745">
        <ele>1835</ele>
        <time>1970-01-01T00:00:56.000Z</time>
      </trkpt>
      <trkpt lat="42.77025" lon="0.57736">
        <ele>1835</ele>
        <time>1970-01-01T00:00:57.000Z</time>
      </trkpt>
      <trkpt lat="42.77025" lon="0.57736">
        <ele>1832</ele>
        <time>1970-01-01T00:00:58.000Z</time>
      </trkpt>
      <trkpt lat="42.77025" lon="0.57735">
        <ele>1832</ele>
        <time>1970-01-01T00:00:59.000Z</time>
      </trkpt>
      <trkpt lat="42.77025" lon="0.57735">
        <ele>1832</ele>
        <time>1970-01-01T00:01:00.000Z</time>
      </trkpt>
      <trkpt lat="42.77025" lon="0.57735">
        <ele>1832</ele>
        <time>1970-01-01T00:01:01.000Z</time>
      </trkpt>
      <trkpt lat="42.77025" lon="0.57734">
        <ele>1832</ele>
        <time>1970-01-01T00:01:02.000Z</time>
      </trkpt>
      <trkpt lat="42.77025" lon="0.57734">
        <ele>1832</ele>
        <time>1970-01-01T00:01:03.000Z</time>
      </trkpt>
      <trkpt lat="42.77025" lon="0.57734">
        <ele>1832</ele>
        <time>1970-01-01T00:01:04.000Z</time>
      </trkpt>
      <trkpt lat="42.77025" lon="0.57733">
        <ele>1832</ele>
        <time>1970-01-01T00:01:05.000Z</time>
      </trkpt>
      <trkpt lat="42.77025" lon="0.57733">
        <ele>1832</ele>
        <time>1970-01-01T00:01:06.000Z</time>
      </trkpt>
      <trkpt lat="42.77025" lon="0.57733">
        <ele>1832</ele>
        <time>1970-01-01T00:01:07.000Z</time>
      </trkpt>
      <trkpt lat="42.77025" lon="0.57733">
        <ele>1831</ele>
        <time>1970-01-01T00:01:08.000Z</time>
      </trkpt>
      <trkpt lat="42.77025" lon="0.57732">
        <ele>1831</ele>
        <time>1970-01-01T00:01:09.000Z</time>
      </trkpt>
      <trkpt lat="42.77025" lon="0.57732">
        <ele>1831</ele>
        <time>1970-01-01T00:01:10.000Z</time>
      </trkpt>
      <trkpt lat="42.77025" lon="0.57732">
        <ele>1831</ele>
        <time>1970-01-01T00:01:11.000Z</time>
      </trkpt>
      <trkpt lat="42.77025" lon="0.57731">
        <ele>1831</ele>
        <time>1970-01-01T00:01:12.000Z</time>
      </trkpt>
      <trkpt lat="42.77025" lon="0.57731">
        <ele>1831</ele>
        <time>1970-01-01T00:01:13.000Z</time>
      </trkpt>
      <trkpt lat="42.77025" lon="0.57731">
        <ele>1831</ele>
        <time>1970-01-01T00:01:14.000Z</time>
      </trkpt>
      <trkpt lat="42.77025" lon="0.5773">
        <ele>1831</ele>
        <time>1970-01-01T00:01:15.000Z</time>
      </trkpt>
      <trkpt lat="42.77025" lon="0.5773">
        <ele>1831</ele>
        <time>1970-01-01T00:01:16.000Z</time>
      </trkpt>
      <trkpt lat="42.77025" lon="0.5773">
        <ele>1831</ele>
        <time>1970-01-01T00:01:17.000Z</time>
      </trkpt>
      <trkpt lat="42.77026" lon="0.5773">
        <ele>1831</ele>
        <time>1970-01-01T00:01:18.000Z</time>
      </trkpt>
      <trkpt lat="42.77026" lon="0.57729">
        <ele>1831</ele>
        <time>1970-01-01T00:01:19.000Z</time>
      </trkpt>
      <trkpt lat="42.77026" lon="0.57729">
        <ele>1831</ele>
        <time>1970-01-01T00:01:20.000Z</time>
      </trkpt>
      <trkpt lat="42.77026" lon="0.57729">
        <ele>1831</ele>
        <time>1970-01-01T00:01:21.000Z</time>
      </trkpt>
      <trkpt lat="42.77027" lon="0.57719">
        <ele>1831</ele>
        <time>1970-01-01T00:01:22.000Z</time>
      </trkpt>
      <trkpt lat="42.77027" lon="0.57717">
        <ele>1831</ele>
        <time>1970-01-01T00:01:23.000Z</time>
      </trkpt>
      <trkpt lat="42.77028" lon="0.57715">
        <ele>1831</ele>
        <time>1970-01-01T00:01:24.000Z</time>
      </trkpt>
      <trkpt lat="42.77028" lon="0.57713">
        <ele>1831</ele>
        <time>1970-01-01T00:01:25.000Z</time>
      </trkpt>
      <trkpt lat="42.7703" lon="0.57701">
        <ele>1831</ele>
        <time>1970-01-01T00:01:26.000Z</time>
      </trkpt>
      <trkpt lat="42.7703" lon="0.57698">
        <ele>1831</ele>
        <time>1970-01-01T00:01:27.000Z</time>
      </trkpt>
      <trkpt lat="42.7703" lon="0.57695">
        <ele>1827</ele>
        <time>1970-01-01T00:01:28.000Z</time>
      </trkpt>
      <trkpt lat="42.77031" lon="0.57683">
        <ele>1827</ele>
        <time>1970-01-01T00:01:29.000Z</time>
      </trkpt>
      <trkpt lat="42.77033" lon="0.57682">
        <ele>1827</ele>
        <time>1970-01-01T00:01:30.000Z</time>
      </trkpt>
      <trkpt lat="42.77035" lon="0.5768">
        <ele>1827</ele>
        <time>1970-01-01T00:01:31.000Z</time>
      </trkpt>
      <trkpt lat="42.77043" lon="0.57676">
        <ele>1827</ele>
        <time>1970-01-01T00:01:32.000Z</time>
      </trkpt>
      <trkpt lat="42.77046" lon="0.57677">
        <ele>1821</ele>
        <time>1970-01-01T00:01:33.000Z</time>
      </trkpt>
      <trkpt lat="42.77058" lon="0.57688">
        <ele>1821</ele>
        <time>1970-01-01T00:01:34.000Z</time>
      </trkpt>
      <trkpt lat="42.77062" lon="0.57697">
        <ele>1821</ele>
        <time>1970-01-01T00:01:35.000Z</time>
      </trkpt>
      <trkpt lat="42.77072" lon="0.57713">
        <ele>1821</ele>
        <time>1970-01-01T00:01:36.000Z</time>
      </trkpt>
      <trkpt lat="42.77077" lon="0.57728">
        <ele>1821</ele>
        <time>1970-01-01T00:01:37.000Z</time>
      </trkpt>
      <trkpt lat="42.77077" lon="0.57742">
        <ele>1814</ele>
        <time>1970-01-01T00:01:38.000Z</time>
      </trkpt>
      <trkpt lat="42.77078" lon="0.57748">
        <ele>1809</ele>
        <time>1970-01-01T00:01:39.000Z</time>
      </trkpt>
      <trkpt lat="42.77079" lon="0.57754">
        <ele>1808</ele>
        <time>1970-01-01T00:01:40.000Z</time>
      </trkpt>
      <trkpt lat="42.77082" lon="0.57769">
        <ele>1806</ele>
        <time>1970-01-01T00:01:41.000Z</time>
      </trkpt>
      <trkpt lat="42.77083" lon="0.57773">
        <ele>1805</ele>
        <time>1970-01-01T00:01:42.000Z</time>
      </trkpt>
      <trkpt lat="42.77086" lon="0.57779">
        <ele>1804</ele>
        <time>1970-01-01T00:01:43.000Z</time>
      </trkpt>
      <trkpt lat="42.77087" lon="0.57778">
        <ele>1803</ele>
        <time>1970-01-01T00:01:44.000Z</time>
      </trkpt>
      <trkpt lat="42.77088" lon="0.57776">
        <ele>1801</ele>
        <time>1970-01-01T00:01:45.000Z</time>
      </trkpt>
      <trkpt lat="42.77089" lon="0.57775">
        <ele>1801</ele>
        <time>1970-01-01T00:01:46.000Z</time>
      </trkpt>
      <trkpt lat="42.77089" lon="0.57774">
        <ele>1801</ele>
        <time>1970-01-01T00:01:47.000Z</time>
      </trkpt>
      <trkpt lat="42.7709" lon="0.57772">
        <ele>1801</ele>
        <time>1970-01-01T00:01:48.000Z</time>
      </trkpt>
      <trkpt lat="42.77091" lon="0.57771">
        <ele>1801</ele>
        <time>1970-01-01T00:01:49.000Z</time>
      </trkpt>
      <trkpt lat="42.77092" lon="0.5777">
        <ele>1800</ele>
        <time>1970-01-01T00:01:50.000Z</time>
      </trkpt>
      <trkpt lat="42.77092" lon="0.57769">
        <ele>1800</ele>
        <time>1970-01-01T00:01:51.000Z</time>
      </trkpt>
      <trkpt lat="42.77092" lon="0.57768">
        <ele>1801</ele>
        <time>1970-01-01T00:01:52.000Z</time>
      </trkpt>
      <trkpt lat="42.77092" lon="0.57767">
        <ele>1801</ele>
        <time>1970-01-01T00:01:53.000Z</time>
      </trkpt>
      <trkpt lat="42.77092" lon="0.57767">
        <ele>1801</ele>
        <time>1970-01-01T00:01:54.000Z</time>
      </trkpt>
      <trkpt lat="42.77092" lon="0.57766">
        <ele>1801</ele>
        <time>1970-01-01T00:01:55.000Z</time>
      </trkpt>
      <trkpt lat="42.77092" lon="0.57765">
        <ele>1801</ele>
        <time>1970-01-01T00:01:56.000Z</time>
      </trkpt>
      <trkpt lat="42.77092" lon="0.57764">
        <ele>1800</ele>
        <time>1970-01-01T00:01:57.000Z</time>
      </trkpt>
      <trkpt lat="42.77092" lon="0.57764">
        <ele>1799</ele>
        <time>1970-01-01T00:01:58.000Z</time>
      </trkpt>
      <trkpt lat="42.77092" lon="0.57763">
        <ele>1799</ele>
        <time>1970-01-01T00:01:59.000Z</time>
      </trkpt>
      <trkpt lat="42.77092" lon="0.57756">
        <ele>1799</ele>
        <time>1970-01-01T00:02:00.000Z</time>
      </trkpt>
      <trkpt lat="42.77093" lon="0.57757">
        <ele>1799</ele>
        <time>1970-01-01T00:02:01.000Z</time>
      </trkpt>
      <trkpt lat="42.77093" lon="0.57757">
        <ele>1799</ele>
        <time>1970-01-01T00:02:02.000Z</time>
      </trkpt>
      <trkpt lat="42.77093" lon="0.57758">
        <ele>1799</ele>
        <time>1970-01-01T00:02:03.000Z</time>
      </trkpt>
      <trkpt lat="42.77094" lon="0.57758">
        <ele>1799</ele>
        <time>1970-01-01T00:02:04.000Z</time>
      </trkpt>
      <trkpt lat="42.77094" lon="0.57759">
        <ele>1799</ele>
        <time>1970-01-01T00:02:05.000Z</time>
      </trkpt>
      <trkpt lat="42.77094" lon="0.57759">
        <ele>1799</ele>
        <time>1970-01-01T00:02:06.000Z</time>
      </trkpt>
      <trkpt lat="42.77095" lon="0.5776">
        <ele>1799</ele>
        <time>1970-01-01T00:02:07.000Z</time>
      </trkpt>
      <trkpt lat="42.77095" lon="0.5776">
        <ele>1794</ele>
        <time>1970-01-01T00:02:08.000Z</time>
      </trkpt>
      <trkpt lat="42.77095" lon="0.57761">
        <ele>1794</ele>
        <time>1970-01-01T00:02:09.000Z</time>
      </trkpt>
      <trkpt lat="42.77095" lon="0.57761">
        <ele>1794</ele>
        <time>1970-01-01T00:02:10.000Z</time>
      </trkpt>
      <trkpt lat="42.77096" lon="0.57762">
        <ele>1794</ele>
        <time>1970-01-01T00:02:11.000Z</time>
      </trkpt>
      <trkpt lat="42.771" lon="0.57769">
        <ele>1794</ele>
        <time>1970-01-01T00:02:12.000Z</time>
      </trkpt>
      <trkpt lat="42.771" lon="0.5777">
        <ele>1792</ele>
        <time>1970-01-01T00:02:13.000Z</time>
      </trkpt>
      <trkpt lat="42.77101" lon="0.57772">
        <ele>1792</ele>
        <time>1970-01-01T00:02:14.000Z</time>
      </trkpt>
      <trkpt lat="42.77101" lon="0.57773">
        <ele>1792</ele>
        <time>1970-01-01T00:02:15.000Z</time>
      </trkpt>
      <trkpt lat="42.77102" lon="0.57775">
        <ele>1792</ele>
        <time>1970-01-01T00:02:16.000Z</time>
      </trkpt>
      <trkpt lat="42.77106" lon="0.57782">
        <ele>1792</ele>
        <time>1970-01-01T00:02:17.000Z</time>
      </trkpt>
      <trkpt lat="42.77108" lon="0.57781">
        <ele>1789</ele>
        <time>1970-01-01T00:02:18.000Z</time>
      </trkpt>
      <trkpt lat="42.7711" lon="0.57781">
        <ele>1789</ele>
        <time>1970-01-01T00:02:19.000Z</time>
      </trkpt>
      <trkpt lat="42.77117" lon="0.57779">
        <ele>1789</ele>
        <time>1970-01-01T00:02:20.000Z</time>
      </trkpt>
      <trkpt lat="42.77118" lon="0.57778">
        <ele>1789</ele>
        <time>1970-01-01T00:02:21.000Z</time>
      </trkpt>
      <trkpt lat="42.7712" lon="0.57778">
        <ele>1789</ele>
        <time>1970-01-01T00:02:22.000Z</time>
      </trkpt>
      <trkpt lat="42.77122" lon="0.57777">
        <ele>1783</ele>
        <time>1970-01-01T00:02:23.000Z</time>
      </trkpt>
      <trkpt lat="42.7713" lon="0.57777">
        <ele>1783</ele>
        <time>1970-01-01T00:02:24.000Z</time>
      </trkpt>
      <trkpt lat="42.77131" lon="0.57779">
        <ele>1783</ele>
        <time>1970-01-01T00:02:25.000Z</time>
      </trkpt>
      <trkpt lat="42.77133" lon="0.57781">
        <ele>1783</ele>
        <time>1970-01-01T00:02:26.000Z</time>
      </trkpt>
      <trkpt lat="42.7714" lon="0.57789">
        <ele>1783</ele>
        <time>1970-01-01T00:02:27.000Z</time>
      </trkpt>
      <trkpt lat="42.77142" lon="0.57792">
        <ele>1776</ele>
        <time>1970-01-01T00:02:28.000Z</time>
      </trkpt>
      <trkpt lat="42.77147" lon="0.57802">
        <ele>1771</ele>
        <time>1970-01-01T00:02:29.000Z</time>
      </trkpt>
      <trkpt lat="42.7715" lon="0.57806">
        <ele>1771</ele>
        <time>1970-01-01T00:02:30.000Z</time>
      </trkpt>
      <trkpt lat="42.77152" lon="0.57809">
        <ele>1770</ele>
        <time>1970-01-01T00:02:31.000Z</time>
      </trkpt>
      <trkpt lat="42.77152" lon="0.57806">
        <ele>1769</ele>
        <time>1970-01-01T00:02:32.000Z</time>
      </trkpt>
      <trkpt lat="42.77153" lon="0.57803">
        <ele>1768</ele>
        <time>1970-01-01T00:02:33.000Z</time>
      </trkpt>
      <trkpt lat="42.77153" lon="0.57801">
        <ele>1767</ele>
        <time>1970-01-01T00:02:34.000Z</time>
      </trkpt>
      <trkpt lat="42.77156" lon="0.5779">
        <ele>1765</ele>
        <time>1970-01-01T00:02:35.000Z</time>
      </trkpt>
      <trkpt lat="42.77159" lon="0.57788">
        <ele>1764</ele>
        <time>1970-01-01T00:02:36.000Z</time>
      </trkpt>
      <trkpt lat="42.77165" lon="0.57784">
        <ele>1763</ele>
        <time>1970-01-01T00:02:37.000Z</time>
      </trkpt>
      <trkpt lat="42.77166" lon="0.57784">
        <ele>1762</ele>
        <time>1970-01-01T00:02:38.000Z</time>
      </trkpt>
      <trkpt lat="42.77168" lon="0.57783">
        <ele>1799</ele>
        <time>1970-01-01T00:02:39.000Z</time>
      </trkpt>
      <trkpt lat="42.77169" lon="0.57783">
        <ele>1798</ele>
        <time>1970-01-01T00:02:40.000Z</time>
      </trkpt>
      <trkpt lat="42.77177" lon="0.57779">
        <ele>1798</ele>
        <time>1970-01-01T00:02:41.000Z</time>
      </trkpt>
      <trkpt lat="42.77178" lon="0.57777">
        <ele>1797</ele>
        <time>1970-01-01T00:02:42.000Z</time>
      </trkpt>
      <trkpt lat="42.77179" lon="0.57775">
        <ele>1796</ele>
        <time>1970-01-01T00:02:43.000Z</time>
      </trkpt>
      <trkpt lat="42.77184" lon="0.57769">
        <ele>1795</ele>
        <time>1970-01-01T00:02:44.000Z</time>
      </trkpt>
      <trkpt lat="42.77185" lon="0.57771">
        <ele>1795</ele>
        <time>1970-01-01T00:02:45.000Z</time>
      </trkpt>
      <trkpt lat="42.77186" lon="0.57772">
        <ele>1794</ele>
        <time>1970-01-01T00:02:46.000Z</time>
      </trkpt>
      <trkpt lat="42.77187" lon="0.57774">
        <ele>1793</ele>
        <time>1970-01-01T00:02:47.000Z</time>
      </trkpt>
      <trkpt lat="42.77194" lon="0.5778">
        <ele>1791</ele>
        <time>1970-01-01T00:02:48.000Z</time>
      </trkpt>
      <trkpt lat="42.77197" lon="0.57781">
        <ele>1789</ele>
        <time>1970-01-01T00:02:49.000Z</time>
      </trkpt>
      <trkpt lat="42.77199" lon="0.57782">
        <ele>1788</ele>
        <time>1970-01-01T00:02:50.000Z</time>
      </trkpt>
      <trkpt lat="42.77202" lon="0.57782">
        <ele>1786</ele>
        <time>1970-01-01T00:02:51.000Z</time>
      </trkpt>
      <trkpt lat="42.77203" lon="0.57783">
        <ele>1785</ele>
        <time>1970-01-01T00:02:52.000Z</time>
      </trkpt>
      <trkpt lat="42.77204" lon="0.57783">
        <ele>1783</ele>
        <time>1970-01-01T00:02:53.000Z</time>
      </trkpt>
      <trkpt lat="42.77205" lon="0.57783">
        <ele>1782</ele>
        <time>1970-01-01T00:02:54.000Z</time>
      </trkpt>
      <trkpt lat="42.77206" lon="0.57783">
        <ele>1781</ele>
        <time>1970-01-01T00:02:55.000Z</time>
      </trkpt>
      <trkpt lat="42.77206" lon="0.57783">
        <ele>1779</ele>
        <time>1970-01-01T00:02:56.000Z</time>
      </trkpt>
      <trkpt lat="42.77207" lon="0.57783">
        <ele>1777</ele>
        <time>1970-01-01T00:02:57.000Z</time>
      </trkpt>
      <trkpt lat="42.77215" lon="0.57783">
        <ele>1776</ele>
        <time>1970-01-01T00:02:58.000Z</time>
      </trkpt>
      <trkpt lat="42.77216" lon="0.57782">
        <ele>1775</ele>
        <time>1970-01-01T00:02:59.000Z</time>
      </trkpt>
      <trkpt lat="42.77218" lon="0.57782">
        <ele>1774</ele>
        <time>1970-01-01T00:03:00.000Z</time>
      </trkpt>
      <trkpt lat="42.77219" lon="0.57781">
        <ele>1773</ele>
        <time>1970-01-01T00:03:01.000Z</time>
      </trkpt>
      <trkpt lat="42.77226" lon="0.57777">
        <ele>1771</ele>
        <time>1970-01-01T00:03:02.000Z</time>
      </trkpt>
      <trkpt lat="42.77228" lon="0.57776">
        <ele>1769</ele>
        <time>1970-01-01T00:03:03.000Z</time>
      </trkpt>
      <trkpt lat="42.7723" lon="0.57775">
        <ele>1766</ele>
        <time>1970-01-01T00:03:04.000Z</time>
      </trkpt>
      <trkpt lat="42.77231" lon="0.57774">
        <ele>1763</ele>
        <time>1970-01-01T00:03:05.000Z</time>
      </trkpt>
      <trkpt lat="42.77239" lon="0.57767">
        <ele>1761</ele>
        <time>1970-01-01T00:03:06.000Z</time>
      </trkpt>
      <trkpt lat="42.7724" lon="0.57765">
        <ele>1760</ele>
        <time>1970-01-01T00:03:07.000Z</time>
      </trkpt>
      <trkpt lat="42.77241" lon="0.57762">
        <ele>1757</ele>
        <time>1970-01-01T00:03:08.000Z</time>
      </trkpt>
      <trkpt lat="42.77245" lon="0.57755">
        <ele>1756</ele>
        <time>1970-01-01T00:03:09.000Z</time>
      </trkpt>
      <trkpt lat="42.77246" lon="0.57755">
        <ele>1755</ele>
        <time>1970-01-01T00:03:10.000Z</time>
      </trkpt>
      <trkpt lat="42.77247" lon="0.57754">
        <ele>1754</ele>
        <time>1970-01-01T00:03:11.000Z</time>
      </trkpt>
      <trkpt lat="42.77248" lon="0.57754">
        <ele>1753</ele>
        <time>1970-01-01T00:03:12.000Z</time>
      </trkpt>
      <trkpt lat="42.77249" lon="0.57754">
        <ele>1750</ele>
        <time>1970-01-01T00:03:13.000Z</time>
      </trkpt>
      <trkpt lat="42.77256" lon="0.57753">
        <ele>1748</ele>
        <time>1970-01-01T00:03:14.000Z</time>
      </trkpt>
      <trkpt lat="42.77257" lon="0.57755">
        <ele>1746</ele>
        <time>1970-01-01T00:03:15.000Z</time>
      </trkpt>
      <trkpt lat="42.77258" lon="0.57756">
        <ele>1744</ele>
        <time>1970-01-01T00:03:16.000Z</time>
      </trkpt>
      <trkpt lat="42.7726" lon="0.57758">
        <ele>1742</ele>
        <time>1970-01-01T00:03:17.000Z</time>
      </trkpt>
      <trkpt lat="42.77267" lon="0.57763">
        <ele>1741</ele>
        <time>1970-01-01T00:03:18.000Z</time>
      </trkpt>
      <trkpt lat="42.77269" lon="0.57762">
        <ele>1741</ele>
        <time>1970-01-01T00:03:19.000Z</time>
      </trkpt>
      <trkpt lat="42.77271" lon="0.57761">
        <ele>1739</ele>
        <time>1970-01-01T00:03:20.000Z</time>
      </trkpt>
      <trkpt lat="42.77278" lon="0.57756">
        <ele>1738</ele>
        <time>1970-01-01T00:03:21.000Z</time>
      </trkpt>
      <trkpt lat="42.77279" lon="0.57753">
        <ele>1736</ele>
        <time>1970-01-01T00:03:22.000Z</time>
      </trkpt>
      <trkpt lat="42.77286" lon="0.57746">
        <ele>1735</ele>
        <time>1970-01-01T00:03:23.000Z</time>
      </trkpt>
      <trkpt lat="42.77288" lon="0.57743">
        <ele>1734</ele>
        <time>1970-01-01T00:03:24.000Z</time>
      </trkpt>
      <trkpt lat="42.77291" lon="0.57739">
        <ele>1733</ele>
        <time>1970-01-01T00:03:25.000Z</time>
      </trkpt>
      <trkpt lat="42.77292" lon="0.5774">
        <ele>1731</ele>
        <time>1970-01-01T00:03:26.000Z</time>
      </trkpt>
      <trkpt lat="42.77294" lon="0.57741">
        <ele>1729</ele>
        <time>1970-01-01T00:03:27.000Z</time>
      </trkpt>
      <trkpt lat="42.77295" lon="0.57742">
        <ele>1728</ele>
        <time>1970-01-01T00:03:28.000Z</time>
      </trkpt>
      <trkpt lat="42.77297" lon="0.57743">
        <ele>1728</ele>
        <time>1970-01-01T00:03:29.000Z</time>
      </trkpt>
      <trkpt lat="42.77299" lon="0.57744">
        <ele>1727</ele>
        <time>1970-01-01T00:03:30.000Z</time>
      </trkpt>
      <trkpt lat="42.773" lon="0.57745">
        <ele>1726</ele>
        <time>1970-01-01T00:03:31.000Z</time>
      </trkpt>
      <trkpt lat="42.77301" lon="0.57747">
        <ele>1725</ele>
        <time>1970-01-01T00:03:32.000Z</time>
      </trkpt>
      <trkpt lat="42.77303" lon="0.57748">
        <ele>1723</ele>
        <time>1970-01-01T00:03:33.000Z</time>
      </trkpt>
      <trkpt lat="42.77304" lon="0.5775">
        <ele>1722</ele>
        <time>1970-01-01T00:03:34.000Z</time>
      </trkpt>
      <trkpt lat="42.77305" lon="0.57752">
        <ele>1721</ele>
        <time>1970-01-01T00:03:35.000Z</time>
      </trkpt>
      <trkpt lat="42.77312" lon="0.5776">
        <ele>1720</ele>
        <time>1970-01-01T00:03:36.000Z</time>
      </trkpt>
      <trkpt lat="42.77314" lon="0.57763">
        <ele>1719</ele>
        <time>1970-01-01T00:03:37.000Z</time>
      </trkpt>
      <trkpt lat="42.77321" lon="0.5777">
        <ele>1717</ele>
        <time>1970-01-01T00:03:38.000Z</time>
      </trkpt>
      <trkpt lat="42.77323" lon="0.57773">
        <ele>1715</ele>
        <time>1970-01-01T00:03:39.000Z</time>
      </trkpt>
      <trkpt lat="42.77328" lon="0.57781">
        <ele>1713</ele>
        <time>1970-01-01T00:03:40.000Z</time>
      </trkpt>
      <trkpt lat="42.7733" lon="0.57784">
        <ele>1712</ele>
        <time>1970-01-01T00:03:41.000Z</time>
      </trkpt>
      <trkpt lat="42.77336" lon="0.57789">
        <ele>1712</ele>
        <time>1970-01-01T00:03:42.000Z</time>
      </trkpt>
      <trkpt lat="42.77337" lon="0.57788">
        <ele>1712</ele>
        <time>1970-01-01T00:03:43.000Z</time>
      </trkpt>
      <trkpt lat="42.77338" lon="0.57788">
        <ele>1712</ele>
        <time>1970-01-01T00:03:44.000Z</time>
      </trkpt>
      <trkpt lat="42.77339" lon="0.57787">
        <ele>1712</ele>
        <time>1970-01-01T00:03:45.000Z</time>
      </trkpt>
      <trkpt lat="42.77344" lon="0.57785">
        <ele>1712</ele>
        <time>1970-01-01T00:03:46.000Z</time>
      </trkpt>
      <trkpt lat="42.77345" lon="0.57785">
        <ele>1712</ele>
        <time>1970-01-01T00:03:47.000Z</time>
      </trkpt>
      <trkpt lat="42.77345" lon="0.57785">
        <ele>1712</ele>
        <time>1970-01-01T00:03:48.000Z</time>
      </trkpt>
      <trkpt lat="42.77345" lon="0.57785">
        <ele>1712</ele>
        <time>1970-01-01T00:03:49.000Z</time>
      </trkpt>
      <trkpt lat="42.77345" lon="0.57785">
        <ele>1712</ele>
        <time>1970-01-01T00:03:50.000Z</time>
      </trkpt>
      <trkpt lat="42.77345" lon="0.57785">
        <ele>1712</ele>
        <time>1970-01-01T00:03:51.000Z</time>
      </trkpt>
      <trkpt lat="42.77345" lon="0.57785">
        <ele>1712</ele>
        <time>1970-01-01T00:03:52.000Z</time>
      </trkpt>
      <trkpt lat="42.77345" lon="0.57785">
        <ele>1711</ele>
        <time>1970-01-01T00:03:53.000Z</time>
      </trkpt>
      <trkpt lat="42.77345" lon="0.57785">
        <ele>1711</ele>
        <time>1970-01-01T00:03:54.000Z</time>
      </trkpt>
      <trkpt lat="42.77345" lon="0.57785">
        <ele>1711</ele>
        <time>1970-01-01T00:03:55.000Z</time>
      </trkpt>
      <trkpt lat="42.77345" lon="0.57785">
        <ele>1711</ele>
        <time>1970-01-01T00:03:56.000Z</time>
      </trkpt>
      <trkpt lat="42.77345" lon="0.57784">
        <ele>1711</ele>
        <time>1970-01-01T00:03:57.000Z</time>
      </trkpt>
      <trkpt lat="42.77345" lon="0.57784">
        <ele>1711</ele>
        <time>1970-01-01T00:03:58.000Z</time>
      </trkpt>
      <trkpt lat="42.77345" lon="0.57784">
        <ele>1711</ele>
        <time>1970-01-01T00:03:59.000Z</time>
      </trkpt>
      <trkpt lat="42.77345" lon="0.57784">
        <ele>1711</ele>
        <time>1970-01-01T00:04:00.000Z</time>
      </trkpt>
      <trkpt lat="42.77345" lon="0.57784">
        <ele>1711</ele>
        <time>1970-01-01T00:04:01.000Z</time>
      </trkpt>
      <trkpt lat="42.77345" lon="0.57784">
        <ele>1711</ele>
        <time>1970-01-01T00:04:02.000Z</time>
      </trkpt>
      <trkpt lat="42.77345" lon="0.57784">
        <ele>1711</ele>
        <time>1970-01-01T00:04:03.000Z</time>
      </trkpt>
      <trkpt lat="42.77345" lon="0.57784">
        <ele>1711</ele>
        <time>1970-01-01T00:04:04.000Z</time>
      </trkpt>
      <trkpt lat="42.77345" lon="0.57784">
        <ele>1711</ele>
        <time>1970-01-01T00:04:05.000Z</time>
      </trkpt>
      <trkpt lat="42.77345" lon="0.57784">
        <ele>1711</ele>
        <time>1970-01-01T00:04:06.000Z</time>
      </trkpt>
      <trkpt lat="42.77345" lon="0.57784">
        <ele>1711</ele>
        <time>1970-01-01T00:04:07.000Z</time>
      </trkpt>
      <trkpt lat="42.77345" lon="0.57784">
        <ele>1711</ele>
        <time>1970-01-01T00:04:08.000Z</time>
      </trkpt>
      <trkpt lat="42.77345" lon="0.57784">
        <ele>1711</ele>
        <time>1970-01-01T00:04:09.000Z</time>
      </trkpt>
      <trkpt lat="42.77345" lon="0.57784">
        <ele>1711</ele>
        <time>1970-01-01T00:04:10.000Z</time>
      </trkpt>
      <trkpt lat="42.77345" lon="0.57784">
        <ele>1711</ele>
        <time>1970-01-01T00:04:11.000Z</time>
      </trkpt>
      <trkpt lat="42.77345" lon="0.57784">
        <ele>1711</ele>
        <time>1970-01-01T00:04:12.000Z</time>
      </trkpt>
      <trkpt lat="42.77345" lon="0.57784">
        <ele>1711</ele>
        <time>1970-01-01T00:04:13.000Z</time>
      </trkpt>
      <trkpt lat="42.77345" lon="0.57783">
        <ele>1711</ele>
        <time>1970-01-01T00:04:14.000Z</time>
      </trkpt>
      <trkpt lat="42.77345" lon="0.57783">
        <ele>1711</ele>
        <time>1970-01-01T00:04:15.000Z</time>
      </trkpt>
      <trkpt lat="42.77345" lon="0.57783">
        <ele>1711</ele>
        <time>1970-01-01T00:04:16.000Z</time>
      </trkpt>
      <trkpt lat="42.77345" lon="0.57783">
        <ele>1711</ele>
        <time>1970-01-01T00:04:17.000Z</time>
      </trkpt>
      <trkpt lat="42.77345" lon="0.57783">
        <ele>1712</ele>
        <time>1970-01-01T00:04:18.000Z</time>
      </trkpt>
      <trkpt lat="42.77346" lon="0.57783">
        <ele>1712</ele>
        <time>1970-01-01T00:04:19.000Z</time>
      </trkpt>
      <trkpt lat="42.77346" lon="0.57783">
        <ele>1712</ele>
        <time>1970-01-01T00:04:20.000Z</time>
      </trkpt>
      <trkpt lat="42.77346" lon="0.57783">
        <ele>1712</ele>
        <time>1970-01-01T00:04:21.000Z</time>
      </trkpt>
      <trkpt lat="42.77346" lon="0.57783">
        <ele>1712</ele>
        <time>1970-01-01T00:04:22.000Z</time>
      </trkpt>
      <trkpt lat="42.77346" lon="0.57783">
        <ele>1712</ele>
        <time>1970-01-01T00:04:23.000Z</time>
      </trkpt>
      <trkpt lat="42.77346" lon="0.57783">
        <ele>1712</ele>
        <time>1970-01-01T00:04:24.000Z</time>
      </trkpt>
      <trkpt lat="42.77346" lon="0.57783">
        <ele>1712</ele>
        <time>1970-01-01T00:04:25.000Z</time>
      </trkpt>
      <trkpt lat="42.77346" lon="0.57783">
        <ele>1712</ele>
        <time>1970-01-01T00:04:26.000Z</time>
      </trkpt>
      <trkpt lat="42.77346" lon="0.57783">
        <ele>1712</ele>
        <time>1970-01-01T00:04:27.000Z</time>
      </trkpt>
      <trkpt lat="42.77346" lon="0.57783">
        <ele>1712</ele>
        <time>1970-01-01T00:04:28.000Z</time>
      </trkpt>
      <trkpt lat="42.77346" lon="0.57783">
        <ele>1712</ele>
        <time>1970-01-01T00:04:29.000Z</time>
      </trkpt>
      <trkpt lat="42.77346" lon="0.57783">
        <ele>1712</ele>
        <time>1970-01-01T00:04:30.000Z</time>
      </trkpt>
      <trkpt lat="42.77346" lon="0.57782">
        <ele>1712</ele>
        <time>1970-01-01T00:04:31.000Z</time>
      </trkpt>
      <trkpt lat="42.77346" lon="0.57782">
        <ele>1712</ele>
        <time>1970-01-01T00:04:32.000Z</time>
      </trkpt>
      <trkpt lat="42.77346" lon="0.57782">
        <ele>1712</ele>
        <time>1970-01-01T00:04:33.000Z</time>
      </trkpt>
      <trkpt lat="42.77346" lon="0.57782">
        <ele>1712</ele>
        <time>1970-01-01T00:04:34.000Z</time>
      </trkpt>
      <trkpt lat="42.77346" lon="0.57782">
        <ele>1712</ele>
        <time>1970-01-01T00:04:35.000Z</time>
      </trkpt>
      <trkpt lat="42.77346" lon="0.57782">
        <ele>1712</ele>
        <time>1970-01-01T00:04:36.000Z</time>
      </trkpt>
      <trkpt lat="42.77346" lon="0.57782">
        <ele>1712</ele>
        <time>1970-01-01T00:04:37.000Z</time>
      </trkpt>
      <trkpt lat="42.77346" lon="0.57782">
        <ele>1712</ele>
        <time>1970-01-01T00:04:38.000Z</time>
      </trkpt>
      <trkpt lat="42.77346" lon="0.57782">
        <ele>1712</ele>
        <time>1970-01-01T00:04:39.000Z</time>
      </trkpt>
      <trkpt lat="42.77346" lon="0.57782">
        <ele>1712</ele>
        <time>1970-01-01T00:04:40.000Z</time>
      </trkpt>
      <trkpt lat="42.77346" lon="0.57782">
        <ele>1712</ele>
        <time>1970-01-01T00:04:41.000Z</time>
      </trkpt>
      <trkpt lat="42.77346" lon="0.57782">
        <ele>1712</ele>
        <time>1970-01-01T00:04:42.000Z</time>
      </trkpt>
      <trkpt lat="42.77346" lon="0.57782">
        <ele>1712</ele>
        <time>1970-01-01T00:04:43.000Z</time>
      </trkpt>
      <trkpt lat="42.77346" lon="0.57782">
        <ele>1712</ele>
        <time>1970-01-01T00:04:44.000Z</time>
      </trkpt>
      <trkpt lat="42.77346" lon="0.57782">
        <ele>1712</ele>
        <time>1970-01-01T00:04:45.000Z</time>
      </trkpt>
      <trkpt lat="42.77346" lon="0.57782">
        <ele>1712</ele>
        <time>1970-01-01T00:04:46.000Z</time>
      </trkpt>
      <trkpt lat="42.77346" lon="0.57782">
        <ele>1712</ele>
        <time>1970-01-01T00:04:47.000Z</time>
      </trkpt>
      <trkpt lat="42.77346" lon="0.57781">
        <ele>1711</ele>
        <time>1970-01-01T00:04:48.000Z</time>
      </trkpt>
      <trkpt lat="42.77346" lon="0.57781">
        <ele>1711</ele>
        <time>1970-01-01T00:04:49.000Z</time>
      </trkpt>
      <trkpt lat="42.77347" lon="0.57781">
        <ele>1711</ele>
        <time>1970-01-01T00:04:50.000Z</time>
      </trkpt>
      <trkpt lat="42.77347" lon="0.57781">
        <ele>1711</ele>
        <time>1970-01-01T00:04:51.000Z</time>
      </trkpt>
      <trkpt lat="42.77347" lon="0.57781">
        <ele>1711</ele>
        <time>1970-01-01T00:04:52.000Z</time>
      </trkpt>
      <trkpt lat="42.77347" lon="0.57781">
        <ele>1711</ele>
        <time>1970-01-01T00:04:53.000Z</time>
      </trkpt>
      <trkpt lat="42.77347" lon="0.57781">
        <ele>1711</ele>
        <time>1970-01-01T00:04:54.000Z</time>
      </trkpt>
      <trkpt lat="42.77347" lon="0.57781">
        <ele>1711</ele>
        <time>1970-01-01T00:04:55.000Z</time>
      </trkpt>
      <trkpt lat="42.77347" lon="0.57781">
        <ele>1711</ele>
        <time>1970-01-01T00:04:56.000Z</time>
      </trkpt>
      <trkpt lat="42.77347" lon="0.57781">
        <ele>1711</ele>
        <time>1970-01-01T00:04:57.000Z</time>
      </trkpt>
      <trkpt lat="42.77347" lon="0.57781">
        <ele>1712</ele>
        <time>1970-01-01T00:04:58.000Z</time>
      </trkpt>
      <trkpt lat="42.77347" lon="0.57781">
        <ele>1712</ele>
        <time>1970-01-01T00:04:59.000Z</time>
      </trkpt>
      <trkpt lat="42.77347" lon="0.57781">
        <ele>1712</ele>
        <time>1970-01-01T00:05:00.000Z</time>
      </trkpt>
      <trkpt lat="42.77347" lon="0.57781">
        <ele>1712</ele>
        <time>1970-01-01T00:05:01.000Z</time>
      </trkpt>
      <trkpt lat="42.77347" lon="0.57781">
        <ele>1712</ele>
        <time>1970-01-01T00:05:02.000Z</time>
      </trkpt>
      <trkpt lat="42.77347" lon="0.57781">
        <ele>1712</ele>
        <time>1970-01-01T00:05:03.000Z</time>
      </trkpt>
      <trkpt lat="42.77347" lon="0.57781">
        <ele>1712</ele>
        <time>1970-01-01T00:05:04.000Z</time>
      </trkpt>
      <trkpt lat="42.77347" lon="0.57781">
        <ele>1712</ele>
        <time>1970-01-01T00:05:05.000Z</time>
      </trkpt>
      <trkpt lat="42.77347" lon="0.5778">
        <ele>1712</ele>
        <time>1970-01-01T00:05:06.000Z</time>
      </trkpt>
      <trkpt lat="42.77347" lon="0.5778">
        <ele>1712</ele>
        <time>1970-01-01T00:05:07.000Z</time>
      </trkpt>
      <trkpt lat="42.77347" lon="0.5778">
        <ele>1712</ele>
        <time>1970-01-01T00:05:08.000Z</time>
      </trkpt>
      <trkpt lat="42.77347" lon="0.5778">
        <ele>1712</ele>
        <time>1970-01-01T00:05:09.000Z</time>
      </trkpt>
      <trkpt lat="42.77347" lon="0.5778">
        <ele>1712</ele>
        <time>1970-01-01T00:05:10.000Z</time>
      </trkpt>
      <trkpt lat="42.77347" lon="0.5778">
        <ele>1712</ele>
        <time>1970-01-01T00:05:11.000Z</time>
      </trkpt>
      <trkpt lat="42.77347" lon="0.5778">
        <ele>1712</ele>
        <time>1970-01-01T00:05:12.000Z</time>
      </trkpt>
      <trkpt lat="42.77347" lon="0.5778">
        <ele>1712</ele>
        <time>1970-01-01T00:05:13.000Z</time>
      </trkpt>
      <trkpt lat="42.77347" lon="0.5778">
        <ele>1712</ele>
        <time>1970-01-01T00:05:14.000Z</time>
      </trkpt>
      <trkpt lat="42.77347" lon="0.5778">
        <ele>1712</ele>
        <time>1970-01-01T00:05:15.000Z</time>
      </trkpt>
      <trkpt lat="42.77347" lon="0.5778">
        <ele>1712</ele>
        <time>1970-01-01T00:05:16.000Z</time>
      </trkpt>
      <trkpt lat="42.77347" lon="0.5778">
        <ele>1712</ele>
        <time>1970-01-01T00:05:17.000Z</time>
      </trkpt>
      <trkpt lat="42.77347" lon="0.5778">
        <ele>1712</ele>
        <time>1970-01-01T00:05:18.000Z</time>
      </trkpt>
      <trkpt lat="42.77347" lon="0.5778">
        <ele>1712</ele>
        <time>1970-01-01T00:05:19.000Z</time>
      </trkpt>
      <trkpt lat="42.77347" lon="0.5778">
        <ele>1712</ele>
        <time>1970-01-01T00:05:20.000Z</time>
      </trkpt>
      <trkpt lat="42.77348" lon="0.5778">
        <ele>1712</ele>
        <time>1970-01-01T00:05:21.000Z</time>
      </trkpt>
      <trkpt lat="42.77348" lon="0.5778">
        <ele>1712</ele>
        <time>1970-01-01T00:05:22.000Z</time>
      </trkpt>
      <trkpt lat="42.77348" lon="0.57779">
        <ele>1712</ele>
        <time>1970-01-01T00:05:23.000Z</time>
      </trkpt>
      <trkpt lat="42.77348" lon="0.57779">
        <ele>1712</ele>
        <time>1970-01-01T00:05:24.000Z</time>
      </trkpt>
      <trkpt lat="42.77348" lon="0.57779">
        <ele>1712</ele>
        <time>1970-01-01T00:05:25.000Z</time>
      </trkpt>
      <trkpt lat="42.77348" lon="0.57779">
        <ele>1712</ele>
        <time>1970-01-01T00:05:26.000Z</time>
      </trkpt>
      <trkpt lat="42.77348" lon="0.57779">
        <ele>1712</ele>
        <time>1970-01-01T00:05:27.000Z</time>
      </trkpt>
      <trkpt lat="42.77348" lon="0.57779">
        <ele>1707</ele>
        <time>1970-01-01T00:05:28.000Z</time>
      </trkpt>
      <trkpt lat="42.77348" lon="0.57779">
        <ele>1707</ele>
        <time>1970-01-01T00:05:29.000Z</time>
      </trkpt>
      <trkpt lat="42.77348" lon="0.57779">
        <ele>1707</ele>
        <time>1970-01-01T00:05:30.000Z</time>
      </trkpt>
      <trkpt lat="42.77348" lon="0.57779">
        <ele>1707</ele>
        <time>1970-01-01T00:05:31.000Z</time>
      </trkpt>
      <trkpt lat="42.77348" lon="0.57779">
        <ele>1707</ele>
        <time>1970-01-01T00:05:32.000Z</time>
      </trkpt>
      <trkpt lat="42.77353" lon="0.57772">
        <ele>1699</ele>
        <time>1970-01-01T00:05:33.000Z</time>
      </trkpt>
      <trkpt lat="42.77354" lon="0.57771">
        <ele>1699</ele>
        <time>1970-01-01T00:05:34.000Z</time>
      </trkpt>
      <trkpt lat="42.77355" lon="0.57769">
        <ele>1699</ele>
        <time>1970-01-01T00:05:35.000Z</time>
      </trkpt>
      <trkpt lat="42.77356" lon="0.57768">
        <ele>1699</ele>
        <time>1970-01-01T00:05:36.000Z</time>
      </trkpt>
      <trkpt lat="42.77363" lon="0.57764">
        <ele>1699</ele>
        <time>1970-01-01T00:05:37.000Z</time>
      </trkpt>
      <trkpt lat="42.77365" lon="0.57764">
        <ele>1690</ele>
        <time>1970-01-01T00:05:38.000Z</time>
      </trkpt>
      <trkpt lat="42.77366" lon="0.57763">
        <ele>1686</ele>
        <time>1970-01-01T00:05:39.000Z</time>
      </trkpt>
      <trkpt lat="42.77374" lon="0.57764">
        <ele>1685</ele>
        <time>1970-01-01T00:05:40.000Z</time>
      </trkpt>
      <trkpt lat="42.77376" lon="0.57765">
        <ele>1685</ele>
        <time>1970-01-01T00:05:41.000Z</time>
      </trkpt>
      <trkpt lat="42.77378" lon="0.57766">
        <ele>1683</ele>
        <time>1970-01-01T00:05:42.000Z</time>
      </trkpt>
      <trkpt lat="42.77386" lon="0.57769">
        <ele>1681</ele>
        <time>1970-01-01T00:05:43.000Z</time>
      </trkpt>
      <trkpt lat="42.77388" lon="0.5777">
        <ele>1680</ele>
        <time>1970-01-01T00:05:44.000Z</time>
      </trkpt>
      <trkpt lat="42.7739" lon="0.57771">
        <ele>1679</ele>
        <time>1970-01-01T00:05:45.000Z</time>
      </trkpt>
      <trkpt lat="42.77397" lon="0.57773">
        <ele>1678</ele>
        <time>1970-01-01T00:05:46.000Z</time>
      </trkpt>
      <trkpt lat="42.77399" lon="0.57772">
        <ele>1677</ele>
        <time>1970-01-01T00:05:47.000Z</time>
      </trkpt>
      <trkpt lat="42.77401" lon="0.57771">
        <ele>1676</ele>
        <time>1970-01-01T00:05:48.000Z</time>
      </trkpt>
      <trkpt lat="42.77408" lon="0.57769">
        <ele>1674</ele>
        <time>1970-01-01T00:05:49.000Z</time>
      </trkpt>
      <trkpt lat="42.7741" lon="0.57768">
        <ele>1671</ele>
        <time>1970-01-01T00:05:50.000Z</time>
      </trkpt>
      <trkpt lat="42.77412" lon="0.57768">
        <ele>1670</ele>
        <time>1970-01-01T00:05:51.000Z</time>
      </trkpt>
      <trkpt lat="42.7742" lon="0.57768">
        <ele>1670</ele>
        <time>1970-01-01T00:05:52.000Z</time>
      </trkpt>
      <trkpt lat="42.77422" lon="0.57769">
        <ele>1669</ele>
        <time>1970-01-01T00:05:53.000Z</time>
      </trkpt>
      <trkpt lat="42.77424" lon="0.5777">
        <ele>1666</ele>
        <time>1970-01-01T00:05:54.000Z</time>
      </trkpt>
      <trkpt lat="42.77432" lon="0.57775">
        <ele>1665</ele>
        <time>1970-01-01T00:05:55.000Z</time>
      </trkpt>
      <trkpt lat="42.77433" lon="0.57777">
        <ele>1664</ele>
        <time>1970-01-01T00:05:56.000Z</time>
      </trkpt>
      <trkpt lat="42.77435" lon="0.57778">
        <ele>1661</ele>
        <time>1970-01-01T00:05:57.000Z</time>
      </trkpt>
      <trkpt lat="42.7744" lon="0.57783">
        <ele>1660</ele>
        <time>1970-01-01T00:05:58.000Z</time>
      </trkpt>
      <trkpt lat="42.77441" lon="0.57782">
        <ele>1658</ele>
        <time>1970-01-01T00:05:59.000Z</time>
      </trkpt>
      <trkpt lat="42.77441" lon="0.57782">
        <ele>1657</ele>
        <time>1970-01-01T00:06:00.000Z</time>
      </trkpt>
      <trkpt lat="42.77442" lon="0.57781">
        <ele>1656</ele>
        <time>1970-01-01T00:06:01.000Z</time>
      </trkpt>
      <trkpt lat="42.77443" lon="0.57781">
        <ele>1656</ele>
        <time>1970-01-01T00:06:02.000Z</time>
      </trkpt>
      <trkpt lat="42.77443" lon="0.5778">
        <ele>1656</ele>
        <time>1970-01-01T00:06:03.000Z</time>
      </trkpt>
      <trkpt lat="42.77444" lon="0.5778">
        <ele>1654</ele>
        <time>1970-01-01T00:06:04.000Z</time>
      </trkpt>
      <trkpt lat="42.77449" lon="0.57773">
        <ele>1652</ele>
        <time>1970-01-01T00:06:05.000Z</time>
      </trkpt>
      <trkpt lat="42.77449" lon="0.57771">
        <ele>1650</ele>
        <time>1970-01-01T00:06:06.000Z</time>
      </trkpt>
      <trkpt lat="42.7745" lon="0.57769">
        <ele>1647</ele>
        <time>1970-01-01T00:06:07.000Z</time>
      </trkpt>
      <trkpt lat="42.7745" lon="0.57766">
        <ele>1644</ele>
        <time>1970-01-01T00:06:08.000Z</time>
      </trkpt>
      <trkpt lat="42.77452" lon="0.57755">
        <ele>1644</ele>
        <time>1970-01-01T00:06:09.000Z</time>
      </trkpt>
      <trkpt lat="42.77453" lon="0.57753">
        <ele>1643</ele>
        <time>1970-01-01T00:06:10.000Z</time>
      </trkpt>
      <trkpt lat="42.77454" lon="0.57751">
        <ele>1642</ele>
        <time>1970-01-01T00:06:11.000Z</time>
      </trkpt>
      <trkpt lat="42.77456" lon="0.57744">
        <ele>1640</ele>
        <time>1970-01-01T00:06:12.000Z</time>
      </trkpt>
      <trkpt lat="42.77456" lon="0.57744">
        <ele>1639</ele>
        <time>1970-01-01T00:06:13.000Z</time>
      </trkpt>
      <trkpt lat="42.77455" lon="0.57743">
        <ele>1640</ele>
        <time>1970-01-01T00:06:14.000Z</time>
      </trkpt>
      <trkpt lat="42.77455" lon="0.57743">
        <ele>1640</ele>
        <time>1970-01-01T00:06:15.000Z</time>
      </trkpt>
      <trkpt lat="42.77454" lon="0.57742">
        <ele>1640</ele>
        <time>1970-01-01T00:06:16.000Z</time>
      </trkpt>
      <trkpt lat="42.77454" lon="0.57741">
        <ele>1640</ele>
        <time>1970-01-01T00:06:17.000Z</time>
      </trkpt>
      <trkpt lat="42.77453" lon="0.57741">
        <ele>1641</ele>
        <time>1970-01-01T00:06:18.000Z</time>
      </trkpt>
      <trkpt lat="42.77453" lon="0.5774">
        <ele>1641</ele>
        <time>1970-01-01T00:06:19.000Z</time>
      </trkpt>
      <trkpt lat="42.77452" lon="0.5774">
        <ele>1641</ele>
        <time>1970-01-01T00:06:20.000Z</time>
      </trkpt>
      <trkpt lat="42.77452" lon="0.57739">
        <ele>1641</ele>
        <time>1970-01-01T00:06:21.000Z</time>
      </trkpt>
      <trkpt lat="42.77451" lon="0.57739">
        <ele>1641</ele>
        <time>1970-01-01T00:06:22.000Z</time>
      </trkpt>
      <trkpt lat="42.77451" lon="0.57738">
        <ele>1641</ele>
        <time>1970-01-01T00:06:23.000Z</time>
      </trkpt>
      <trkpt lat="42.7745" lon="0.57737">
        <ele>1641</ele>
        <time>1970-01-01T00:06:24.000Z</time>
      </trkpt>
      <trkpt lat="42.77449" lon="0.57737">
        <ele>1641</ele>
        <time>1970-01-01T00:06:25.000Z</time>
      </trkpt>
      <trkpt lat="42.77449" lon="0.57736">
        <ele>1641</ele>
        <time>1970-01-01T00:06:26.000Z</time>
      </trkpt>
      <trkpt lat="42.77449" lon="0.57736">
        <ele>1641</ele>
        <time>1970-01-01T00:06:27.000Z</time>
      </trkpt>
      <trkpt lat="42.77448" lon="0.57735">
        <ele>1640</ele>
        <time>1970-01-01T00:06:28.000Z</time>
      </trkpt>
      <trkpt lat="42.77448" lon="0.57735">
        <ele>1640</ele>
        <time>1970-01-01T00:06:29.000Z</time>
      </trkpt>
      <trkpt lat="42.77448" lon="0.57734">
        <ele>1640</ele>
        <time>1970-01-01T00:06:30.000Z</time>
      </trkpt>
      <trkpt lat="42.77448" lon="0.57734">
        <ele>1640</ele>
        <time>1970-01-01T00:06:31.000Z</time>
      </trkpt>
      <trkpt lat="42.77448" lon="0.57733">
        <ele>1640</ele>
        <time>1970-01-01T00:06:32.000Z</time>
      </trkpt>
      <trkpt lat="42.77447" lon="0.57733">
        <ele>1640</ele>
        <time>1970-01-01T00:06:33.000Z</time>
      </trkpt>
      <trkpt lat="42.77447" lon="0.57733">
        <ele>1640</ele>
        <time>1970-01-01T00:06:34.000Z</time>
      </trkpt>
      <trkpt lat="42.77447" lon="0.57732">
        <ele>1640</ele>
        <time>1970-01-01T00:06:35.000Z</time>
      </trkpt>
      <trkpt lat="42.77447" lon="0.57732">
        <ele>1640</ele>
        <time>1970-01-01T00:06:36.000Z</time>
      </trkpt>
      <trkpt lat="42.77446" lon="0.57731">
        <ele>1640</ele>
        <time>1970-01-01T00:06:37.000Z</time>
      </trkpt>
      <trkpt lat="42.77446" lon="0.57731">
        <ele>1639</ele>
        <time>1970-01-01T00:06:38.000Z</time>
      </trkpt>
      <trkpt lat="42.77446" lon="0.5773">
        <ele>1639</ele>
        <time>1970-01-01T00:06:39.000Z</time>
      </trkpt>
      <trkpt lat="42.77443" lon="0.57724">
        <ele>1639</ele>
        <time>1970-01-01T00:06:40.000Z</time>
      </trkpt>
      <trkpt lat="42.77443" lon="0.57724">
        <ele>1639</ele>
        <time>1970-01-01T00:06:41.000Z</time>
      </trkpt>
      <trkpt lat="42.77444" lon="0.57724">
        <ele>1639</ele>
        <time>1970-01-01T00:06:42.000Z</time>
      </trkpt>
      <trkpt lat="42.77444" lon="0.57724">
        <ele>1639</ele>
        <time>1970-01-01T00:06:43.000Z</time>
      </trkpt>
      <trkpt lat="42.77444" lon="0.57723">
        <ele>1639</ele>
        <time>1970-01-01T00:06:44.000Z</time>
      </trkpt>
      <trkpt lat="42.77445" lon="0.57723">
        <ele>1639</ele>
        <time>1970-01-01T00:06:45.000Z</time>
      </trkpt>
      <trkpt lat="42.77445" lon="0.57723">
        <ele>1639</ele>
        <time>1970-01-01T00:06:46.000Z</time>
      </trkpt>
      <trkpt lat="42.77445" lon="0.57723">
        <ele>1639</ele>
        <time>1970-01-01T00:06:47.000Z</time>
      </trkpt>
      <trkpt lat="42.77445" lon="0.57723">
        <ele>1639</ele>
        <time>1970-01-01T00:06:48.000Z</time>
      </trkpt>
      <trkpt lat="42.77446" lon="0.57723">
        <ele>1639</ele>
        <time>1970-01-01T00:06:49.000Z</time>
      </trkpt>
      <trkpt lat="42.77446" lon="0.57723">
        <ele>1639</ele>
        <time>1970-01-01T00:06:50.000Z</time>
      </trkpt>
      <trkpt lat="42.77446" lon="0.57723">
        <ele>1639</ele>
        <time>1970-01-01T00:06:51.000Z</time>
      </trkpt>
      <trkpt lat="42.77446" lon="0.57723">
        <ele>1639</ele>
        <time>1970-01-01T00:06:52.000Z</time>
      </trkpt>
      <trkpt lat="42.77447" lon="0.57723">
        <ele>1639</ele>
        <time>1970-01-01T00:06:53.000Z</time>
      </trkpt>
      <trkpt lat="42.77447" lon="0.57723">
        <ele>1639</ele>
        <time>1970-01-01T00:06:54.000Z</time>
      </trkpt>
      <trkpt lat="42.77447" lon="0.57722">
        <ele>1639</ele>
        <time>1970-01-01T00:06:55.000Z</time>
      </trkpt>
      <trkpt lat="42.77447" lon="0.57722">
        <ele>1639</ele>
        <time>1970-01-01T00:06:56.000Z</time>
      </trkpt>
      <trkpt lat="42.77448" lon="0.57722">
        <ele>1639</ele>
        <time>1970-01-01T00:06:57.000Z</time>
      </trkpt>
      <trkpt lat="42.77448" lon="0.57722">
        <ele>1639</ele>
        <time>1970-01-01T00:06:58.000Z</time>
      </trkpt>
      <trkpt lat="42.77448" lon="0.57722">
        <ele>1639</ele>
        <time>1970-01-01T00:06:59.000Z</time>
      </trkpt>
      <trkpt lat="42.77448" lon="0.57722">
        <ele>1639</ele>
        <time>1970-01-01T00:07:00.000Z</time>
      </trkpt>
      <trkpt lat="42.77449" lon="0.57722">
        <ele>1639</ele>
        <time>1970-01-01T00:07:01.000Z</time>
      </trkpt>
      <trkpt lat="42.77456" lon="0.57723">
        <ele>1639</ele>
        <time>1970-01-01T00:07:02.000Z</time>
      </trkpt>
      <trkpt lat="42.77458" lon="0.57727">
        <ele>1639</ele>
        <time>1970-01-01T00:07:03.000Z</time>
      </trkpt>
      <trkpt lat="42.7746" lon="0.57731">
        <ele>1639</ele>
        <time>1970-01-01T00:07:04.000Z</time>
      </trkpt>
      <trkpt lat="42.77462" lon="0.57732">
        <ele>1639</ele>
        <time>1970-01-01T00:07:05.000Z</time>
      </trkpt>
      <trkpt lat="42.77463" lon="0.57733">
        <ele>1639</ele>
        <time>1970-01-01T00:07:06.000Z</time>
      </trkpt>
      <trkpt lat="42.77465" lon="0.57735">
        <ele>1639</ele>
        <time>1970-01-01T00:07:07.000Z</time>
      </trkpt>
      <trkpt lat="42.77471" lon="0.57739">
        <ele>1627</ele>
        <time>1970-01-01T00:07:08.000Z</time>
      </trkpt>
      <trkpt lat="42.77472" lon="0.57739">
        <ele>1626</ele>
        <time>1970-01-01T00:07:09.000Z</time>
      </trkpt>
      <trkpt lat="42.77473" lon="0.57739">
        <ele>1625</ele>
        <time>1970-01-01T00:07:10.000Z</time>
      </trkpt>
      <trkpt lat="42.77475" lon="0.57739">
        <ele>1622</ele>
        <time>1970-01-01T00:07:11.000Z</time>
      </trkpt>
      <trkpt lat="42.77482" lon="0.57741">
        <ele>1620</ele>
        <time>1970-01-01T00:07:12.000Z</time>
      </trkpt>
      <trkpt lat="42.77484" lon="0.57741">
        <ele>1619</ele>
        <time>1970-01-01T00:07:13.000Z</time>
      </trkpt>
      <trkpt lat="42.77486" lon="0.57741">
        <ele>1618</ele>
        <time>1970-01-01T00:07:14.000Z</time>
      </trkpt>
      <trkpt lat="42.77493" lon="0.57742">
        <ele>1617</ele>
        <time>1970-01-01T00:07:15.000Z</time>
      </trkpt>
      <trkpt lat="42.77495" lon="0.57742">
        <ele>1616</ele>
        <time>1970-01-01T00:07:16.000Z</time>
      </trkpt>
      <trkpt lat="42.77496" lon="0.57741">
        <ele>1615</ele>
        <time>1970-01-01T00:07:17.000Z</time>
      </trkpt>
      <trkpt lat="42.77498" lon="0.57741">
        <ele>1613</ele>
        <time>1970-01-01T00:07:18.000Z</time>
      </trkpt>
      <trkpt lat="42.77506" lon="0.5774">
        <ele>1612</ele>
        <time>1970-01-01T00:07:19.000Z</time>
      </trkpt>
      <trkpt lat="42.77508" lon="0.57742">
        <ele>1611</ele>
        <time>1970-01-01T00:07:20.000Z</time>
      </trkpt>
      <trkpt lat="42.77509" lon="0.57743">
        <ele>1611</ele>
        <time>1970-01-01T00:07:21.000Z</time>
      </trkpt>
      <trkpt lat="42.77518" lon="0.5775">
        <ele>1610</ele>
        <time>1970-01-01T00:07:22.000Z</time>
      </trkpt>
      <trkpt lat="42.7752" lon="0.57754">
        <ele>1609</ele>
        <time>1970-01-01T00:07:23.000Z</time>
      </trkpt>
      <trkpt lat="42.77523" lon="0.57758">
        <ele>1607</ele>
        <time>1970-01-01T00:07:24.000Z</time>
      </trkpt>
      <trkpt lat="42.77532" lon="0.5777">
        <ele>1606</ele>
        <time>1970-01-01T00:07:25.000Z</time>
      </trkpt>
      <trkpt lat="42.77535" lon="0.57775">
        <ele>1603</ele>
        <time>1970-01-01T00:07:26.000Z</time>
      </trkpt>
      <trkpt lat="42.77537" lon="0.5778">
        <ele>1602</ele>
        <time>1970-01-01T00:07:27.000Z</time>
      </trkpt>
      <trkpt lat="42.77544" lon="0.57794">
        <ele>1600</ele>
        <time>1970-01-01T00:07:28.000Z</time>
      </trkpt>
      <trkpt lat="42.77546" lon="0.57798">
        <ele>1599</ele>
        <time>1970-01-01T00:07:29.000Z</time>
      </trkpt>
      <trkpt lat="42.77552" lon="0.5781">
        <ele>1598</ele>
        <time>1970-01-01T00:07:30.000Z</time>
      </trkpt>
      <trkpt lat="42.77554" lon="0.57814">
        <ele>1596</ele>
        <time>1970-01-01T00:07:31.000Z</time>
      </trkpt>
      <trkpt lat="42.77559" lon="0.57825">
        <ele>1593</ele>
        <time>1970-01-01T00:07:32.000Z</time>
      </trkpt>
      <trkpt lat="42.77561" lon="0.57828">
        <ele>1592</ele>
        <time>1970-01-01T00:07:33.000Z</time>
      </trkpt>
      <trkpt lat="42.77566" lon="0.57836">
        <ele>1591</ele>
        <time>1970-01-01T00:07:34.000Z</time>
      </trkpt>
      <trkpt lat="42.77567" lon="0.57838">
        <ele>1590</ele>
        <time>1970-01-01T00:07:35.000Z</time>
      </trkpt>
      <trkpt lat="42.77568" lon="0.5784">
        <ele>1590</ele>
        <time>1970-01-01T00:07:36.000Z</time>
      </trkpt>
      <trkpt lat="42.77571" lon="0.57846">
        <ele>1589</ele>
        <time>1970-01-01T00:07:37.000Z</time>
      </trkpt>
      <trkpt lat="42.77571" lon="0.57846">
        <ele>1588</ele>
        <time>1970-01-01T00:07:38.000Z</time>
      </trkpt>
      <trkpt lat="42.77571" lon="0.57846">
        <ele>1793</ele>
        <time>1970-01-01T00:07:39.000Z</time>
      </trkpt>
      <trkpt lat="42.77571" lon="0.57845">
        <ele>1793</ele>
        <time>1970-01-01T00:07:40.000Z</time>
      </trkpt>
      <trkpt lat="42.77571" lon="0.57845">
        <ele>1792</ele>
        <time>1970-01-01T00:07:41.000Z</time>
      </trkpt>
      <trkpt lat="42.77571" lon="0.57845">
        <ele>1793</ele>
        <time>1970-01-01T00:07:42.000Z</time>
      </trkpt>
      <trkpt lat="42.77571" lon="0.57844">
        <ele>1794</ele>
        <time>1970-01-01T00:07:43.000Z</time>
      </trkpt>
      <trkpt lat="42.77571" lon="0.57844">
        <ele>1794</ele>
        <time>1970-01-01T00:07:44.000Z</time>
      </trkpt>
      <trkpt lat="42.77571" lon="0.57844">
        <ele>1793</ele>
        <time>1970-01-01T00:07:45.000Z</time>
      </trkpt>
      <trkpt lat="42.77571" lon="0.57843">
        <ele>1794</ele>
        <time>1970-01-01T00:07:46.000Z</time>
      </trkpt>
      <trkpt lat="42.77571" lon="0.57843">
        <ele>1794</ele>
        <time>1970-01-01T00:07:47.000Z</time>
      </trkpt>
      <trkpt lat="42.77571" lon="0.57843">
        <ele>1794</ele>
        <time>1970-01-01T00:07:48.000Z</time>
      </trkpt>
      <trkpt lat="42.77571" lon="0.57842">
        <ele>1794</ele>
        <time>1970-01-01T00:07:49.000Z</time>
      </trkpt>
      <trkpt lat="42.77572" lon="0.57842">
        <ele>1793</ele>
        <time>1970-01-01T00:07:50.000Z</time>
      </trkpt>
      <trkpt lat="42.77572" lon="0.57842">
        <ele>1794</ele>
        <time>1970-01-01T00:07:51.000Z</time>
      </trkpt>
      <trkpt lat="42.77572" lon="0.57841">
        <ele>1794</ele>
        <time>1970-01-01T00:07:52.000Z</time>
      </trkpt>
      <trkpt lat="42.77572" lon="0.57841">
        <ele>1793</ele>
        <time>1970-01-01T00:07:53.000Z</time>
      </trkpt>
      <trkpt lat="42.77572" lon="0.57841">
        <ele>1793</ele>
        <time>1970-01-01T00:07:54.000Z</time>
      </trkpt>
      <trkpt lat="42.77572" lon="0.57841">
        <ele>1793</ele>
        <time>1970-01-01T00:07:55.000Z</time>
      </trkpt>
      <trkpt lat="42.77572" lon="0.5784">
        <ele>1793</ele>
        <time>1970-01-01T00:07:56.000Z</time>
      </trkpt>
      <trkpt lat="42.77572" lon="0.5784">
        <ele>1793</ele>
        <time>1970-01-01T00:07:57.000Z</time>
      </trkpt>
      <trkpt lat="42.77572" lon="0.5784">
        <ele>1792</ele>
        <time>1970-01-01T00:07:58.000Z</time>
      </trkpt>
      <trkpt lat="42.77572" lon="0.57839">
        <ele>1792</ele>
        <time>1970-01-01T00:07:59.000Z</time>
      </trkpt>
      <trkpt lat="42.77573" lon="0.57831">
        <ele>1792</ele>
        <time>1970-01-01T00:08:00.000Z</time>
      </trkpt>
      <trkpt lat="42.77575" lon="0.5783">
        <ele>1792</ele>
        <time>1970-01-01T00:08:01.000Z</time>
      </trkpt>
      <trkpt lat="42.77576" lon="0.57828">
        <ele>1792</ele>
        <time>1970-01-01T00:08:02.000Z</time>
      </trkpt>
      <trkpt lat="42.77577" lon="0.57827">
        <ele>1792</ele>
        <time>1970-01-01T00:08:03.000Z</time>
      </trkpt>
      <trkpt lat="42.77582" lon="0.57822">
        <ele>1792</ele>
        <time>1970-01-01T00:08:04.000Z</time>
      </trkpt>
      <trkpt lat="42.77582" lon="0.57821">
        <ele>1792</ele>
        <time>1970-01-01T00:08:05.000Z</time>
      </trkpt>
      <trkpt lat="42.77582" lon="0.57821">
        <ele>1792</ele>
        <time>1970-01-01T00:08:06.000Z</time>
      </trkpt>
      <trkpt lat="42.77583" lon="0.5782">
        <ele>1792</ele>
        <time>1970-01-01T00:08:07.000Z</time>
      </trkpt>
      <trkpt lat="42.77583" lon="0.5782">
        <ele>1789</ele>
        <time>1970-01-01T00:08:08.000Z</time>
      </trkpt>
      <trkpt lat="42.77583" lon="0.5782">
        <ele>1789</ele>
        <time>1970-01-01T00:08:09.000Z</time>
      </trkpt>
      <trkpt lat="42.77583" lon="0.57819">
        <ele>1789</ele>
        <time>1970-01-01T00:08:10.000Z</time>
      </trkpt>
      <trkpt lat="42.77583" lon="0.57819">
        <ele>1789</ele>
        <time>1970-01-01T00:08:11.000Z</time>
      </trkpt>
      <trkpt lat="42.77584" lon="0.57818">
        <ele>1789</ele>
        <time>1970-01-01T00:08:12.000Z</time>
      </trkpt>
      <trkpt lat="42.77584" lon="0.57818">
        <ele>1789</ele>
        <time>1970-01-01T00:08:13.000Z</time>
      </trkpt>
      <trkpt lat="42.77584" lon="0.57817">
        <ele>1789</ele>
        <time>1970-01-01T00:08:14.000Z</time>
      </trkpt>
      <trkpt lat="42.77584" lon="0.57817">
        <ele>1789</ele>
        <time>1970-01-01T00:08:15.000Z</time>
      </trkpt>
      <trkpt lat="42.77585" lon="0.57817">
        <ele>1789</ele>
        <time>1970-01-01T00:08:16.000Z</time>
      </trkpt>
      <trkpt lat="42.77585" lon="0.57816">
        <ele>1789</ele>
        <time>1970-01-01T00:08:17.000Z</time>
      </trkpt>
      <trkpt lat="42.77588" lon="0.5781">
        <ele>1789</ele>
        <time>1970-01-01T00:08:18.000Z</time>
      </trkpt>
      <trkpt lat="42.77588" lon="0.5781">
        <ele>1789</ele>
        <time>1970-01-01T00:08:19.000Z</time>
      </trkpt>
      <trkpt lat="42.77588" lon="0.5781">
        <ele>1789</ele>
        <time>1970-01-01T00:08:20.000Z</time>
      </trkpt>
      <trkpt lat="42.77587" lon="0.5781">
        <ele>1789</ele>
        <time>1970-01-01T00:08:21.000Z</time>
      </trkpt>
      <trkpt lat="42.77587" lon="0.5781">
        <ele>1789</ele>
        <time>1970-01-01T00:08:22.000Z</time>
      </trkpt>
      <trkpt lat="42.77587" lon="0.5781">
        <ele>1789</ele>
        <time>1970-01-01T00:08:23.000Z</time>
      </trkpt>
      <trkpt lat="42.77587" lon="0.5781">
        <ele>1789</ele>
        <time>1970-01-01T00:08:24.000Z</time>
      </trkpt>
      <trkpt lat="42.77587" lon="0.5781">
        <ele>1789</ele>
        <time>1970-01-01T00:08:25.000Z</time>
      </trkpt>
      <trkpt lat="42.77587" lon="0.5781">
        <ele>1789</ele>
        <time>1970-01-01T00:08:26.000Z</time>
      </trkpt>
      <trkpt lat="42.77587" lon="0.5781">
        <ele>1789</ele>
        <time>1970-01-01T00:08:27.000Z</time>
      </trkpt>
      <trkpt lat="42.77587" lon="0.57809">
        <ele>1789</ele>
        <time>1970-01-01T00:08:28.000Z</time>
      </trkpt>
      <trkpt lat="42.77587" lon="0.57809">
        <ele>1789</ele>
        <time>1970-01-01T00:08:29.000Z</time>
      </trkpt>
      <trkpt lat="42.77587" lon="0.57809">
        <ele>1789</ele>
        <time>1970-01-01T00:08:30.000Z</time>
      </trkpt>
      <trkpt lat="42.77587" lon="0.57809">
        <ele>1789</ele>
        <time>1970-01-01T00:08:31.000Z</time>
      </trkpt>
      <trkpt lat="42.77587" lon="0.57809">
        <ele>1789</ele>
        <time>1970-01-01T00:08:32.000Z</time>
      </trkpt>
      <trkpt lat="42.77587" lon="0.57809">
        <ele>1789</ele>
        <time>1970-01-01T00:08:33.000Z</time>
      </trkpt>
      <trkpt lat="42.77587" lon="0.57809">
        <ele>1789</ele>
        <time>1970-01-01T00:08:34.000Z</time>
      </trkpt>
      <trkpt lat="42.77587" lon="0.57809">
        <ele>1789</ele>
        <time>1970-01-01T00:08:35.000Z</time>
      </trkpt>
      <trkpt lat="42.77587" lon="0.57809">
        <ele>1789</ele>
        <time>1970-01-01T00:08:36.000Z</time>
      </trkpt>
      <trkpt lat="42.77586" lon="0.57809">
        <ele>1789</ele>
        <time>1970-01-01T00:08:37.000Z</time>
      </trkpt>
      <trkpt lat="42.77586" lon="0.57809">
        <ele>1789</ele>
        <time>1970-01-01T00:08:38.000Z</time>
      </trkpt>
      <trkpt lat="42.77586" lon="0.57809">
        <ele>1789</ele>
        <time>1970-01-01T00:08:39.000Z</time>
      </trkpt>
      <trkpt lat="42.77586" lon="0.57809">
        <ele>1789</ele>
        <time>1970-01-01T00:08:40.000Z</time>
      </trkpt>
      <trkpt lat="42.77586" lon="0.57809">
        <ele>1789</ele>
        <time>1970-01-01T00:08:41.000Z</time>
      </trkpt>
      <trkpt lat="42.77586" lon="0.57809">
        <ele>1789</ele>
        <time>1970-01-01T00:08:42.000Z</time>
      </trkpt>
      <trkpt lat="42.77586" lon="0.57809">
        <ele>1789</ele>
        <time>1970-01-01T00:08:43.000Z</time>
      </trkpt>
      <trkpt lat="42.77586" lon="0.57808">
        <ele>1789</ele>
        <time>1970-01-01T00:08:44.000Z</time>
      </trkpt>
      <trkpt lat="42.77586" lon="0.57808">
        <ele>1789</ele>
        <time>1970-01-01T00:08:45.000Z</time>
      </trkpt>
      <trkpt lat="42.77586" lon="0.57808">
        <ele>1789</ele>
        <time>1970-01-01T00:08:46.000Z</time>
      </trkpt>
      <trkpt lat="42.77586" lon="0.57808">
        <ele>1789</ele>
        <time>1970-01-01T00:08:47.000Z</time>
      </trkpt>
      <trkpt lat="42.77586" lon="0.57808">
        <ele>1789</ele>
        <time>1970-01-01T00:08:48.000Z</time>
      </trkpt>
      <trkpt lat="42.77586" lon="0.57808">
        <ele>1789</ele>
        <time>1970-01-01T00:08:49.000Z</time>
      </trkpt>
      <trkpt lat="42.77586" lon="0.57808">
        <ele>1789</ele>
        <time>1970-01-01T00:08:50.000Z</time>
      </trkpt>
      <trkpt lat="42.77586" lon="0.57808">
        <ele>1789</ele>
        <time>1970-01-01T00:08:51.000Z</time>
      </trkpt>
      <trkpt lat="42.77586" lon="0.57808">
        <ele>1789</ele>
        <time>1970-01-01T00:08:52.000Z</time>
      </trkpt>
      <trkpt lat="42.77585" lon="0.57808">
        <ele>1789</ele>
        <time>1970-01-01T00:08:53.000Z</time>
      </trkpt>
      <trkpt lat="42.77585" lon="0.57808">
        <ele>1789</ele>
        <time>1970-01-01T00:08:54.000Z</time>
      </trkpt>
      <trkpt lat="42.77585" lon="0.57808">
        <ele>1789</ele>
        <time>1970-01-01T00:08:55.000Z</time>
      </trkpt>
      <trkpt lat="42.77585" lon="0.57808">
        <ele>1789</ele>
        <time>1970-01-01T00:08:56.000Z</time>
      </trkpt>
      <trkpt lat="42.77585" lon="0.57808">
        <ele>1789</ele>
        <time>1970-01-01T00:08:57.000Z</time>
      </trkpt>
      <trkpt lat="42.77585" lon="0.57808">
        <ele>1789</ele>
        <time>1970-01-01T00:08:58.000Z</time>
      </trkpt>
      <trkpt lat="42.77585" lon="0.57808">
        <ele>1789</ele>
        <time>1970-01-01T00:08:59.000Z</time>
      </trkpt>
      <trkpt lat="42.77585" lon="0.57807">
        <ele>1789</ele>
        <time>1970-01-01T00:09:00.000Z</time>
      </trkpt>
      <trkpt lat="42.77585" lon="0.57807">
        <ele>1789</ele>
        <time>1970-01-01T00:09:01.000Z</time>
      </trkpt>
      <trkpt lat="42.77585" lon="0.57807">
        <ele>1789</ele>
        <time>1970-01-01T00:09:02.000Z</time>
      </trkpt>
      <trkpt lat="42.77585" lon="0.57807">
        <ele>1789</ele>
        <time>1970-01-01T00:09:03.000Z</time>
      </trkpt>
      <trkpt lat="42.77585" lon="0.57807">
        <ele>1789</ele>
        <time>1970-01-01T00:09:04.000Z</time>
      </trkpt>
      <trkpt lat="42.77585" lon="0.57807">
        <ele>1789</ele>
        <time>1970-01-01T00:09:05.000Z</time>
      </trkpt>
      <trkpt lat="42.77585" lon="0.57807">
        <ele>1789</ele>
        <time>1970-01-01T00:09:06.000Z</time>
      </trkpt>
      <trkpt lat="42.77585" lon="0.57807">
        <ele>1789</ele>
        <time>1970-01-01T00:09:07.000Z</time>
      </trkpt>
      <trkpt lat="42.77585" lon="0.57807">
        <ele>1790</ele>
        <time>1970-01-01T00:09:08.000Z</time>
      </trkpt>
      <trkpt lat="42.77584" lon="0.57807">
        <ele>1790</ele>
        <time>1970-01-01T00:09:09.000Z</time>
      </trkpt>
      <trkpt lat="42.77584" lon="0.57807">
        <ele>1790</ele>
        <time>1970-01-01T00:09:10.000Z</time>
      </trkpt>
      <trkpt lat="42.77584" lon="0.57807">
        <ele>1790</ele>
        <time>1970-01-01T00:09:11.000Z</time>
      </trkpt>
      <trkpt lat="42.77584" lon="0.57807">
        <ele>1790</ele>
        <time>1970-01-01T00:09:12.000Z</time>
      </trkpt>
      <trkpt lat="42.77584" lon="0.57807">
        <ele>1790</ele>
        <time>1970-01-01T00:09:13.000Z</time>
      </trkpt>
      <trkpt lat="42.77584" lon="0.57807">
        <ele>1790</ele>
        <time>1970-01-01T00:09:14.000Z</time>
      </trkpt>
      <trkpt lat="42.77584" lon="0.57807">
        <ele>1790</ele>
        <time>1970-01-01T00:09:15.000Z</time>
      </trkpt>
      <trkpt lat="42.77584" lon="0.57806">
        <ele>1790</ele>
        <time>1970-01-01T00:09:16.000Z</time>
      </trkpt>
      <trkpt lat="42.77584" lon="0.57806">
        <ele>1790</ele>
        <time>1970-01-01T00:09:17.000Z</time>
      </trkpt>
      <trkpt lat="42.77584" lon="0.57806">
        <ele>1790</ele>
        <time>1970-01-01T00:09:18.000Z</time>
      </trkpt>
      <trkpt lat="42.77584" lon="0.57806">
        <ele>1790</ele>
        <time>1970-01-01T00:09:19.000Z</time>
      </trkpt>
      <trkpt lat="42.77584" lon="0.57806">
        <ele>1790</ele>
        <time>1970-01-01T00:09:20.000Z</time>
      </trkpt>
      <trkpt lat="42.77584" lon="0.57806">
        <ele>1790</ele>
        <time>1970-01-01T00:09:21.000Z</time>
      </trkpt>
      <trkpt lat="42.77584" lon="0.57806">
        <ele>1790</ele>
        <time>1970-01-01T00:09:22.000Z</time>
      </trkpt>
      <trkpt lat="42.77584" lon="0.57806">
        <ele>1790</ele>
        <time>1970-01-01T00:09:23.000Z</time>
      </trkpt>
      <trkpt lat="42.77579" lon="0.57802">
        <ele>1790</ele>
        <time>1970-01-01T00:09:24.000Z</time>
      </trkpt>
      <trkpt lat="42.77579" lon="0.57803">
        <ele>1790</ele>
        <time>1970-01-01T00:09:25.000Z</time>
      </trkpt>
      <trkpt lat="42.77578" lon="0.57803">
        <ele>1790</ele>
        <time>1970-01-01T00:09:26.000Z</time>
      </trkpt>
      <trkpt lat="42.77578" lon="0.57803">
        <ele>1790</ele>
        <time>1970-01-01T00:09:27.000Z</time>
      </trkpt>
      <trkpt lat="42.77578" lon="0.57803">
        <ele>1789</ele>
        <time>1970-01-01T00:09:28.000Z</time>
      </trkpt>
      <trkpt lat="42.77578" lon="0.57804">
        <ele>1789</ele>
        <time>1970-01-01T00:09:29.000Z</time>
      </trkpt>
      <trkpt lat="42.77577" lon="0.57804">
        <ele>1789</ele>
        <time>1970-01-01T00:09:30.000Z</time>
      </trkpt>
      <trkpt lat="42.77577" lon="0.57804">
        <ele>1789</ele>
        <time>1970-01-01T00:09:31.000Z</time>
      </trkpt>
      <trkpt lat="42.77577" lon="0.57805">
        <ele>1789</ele>
        <time>1970-01-01T00:09:32.000Z</time>
      </trkpt>
      <trkpt lat="42.77577" lon="0.57805">
        <ele>1789</ele>
        <time>1970-01-01T00:09:33.000Z</time>
      </trkpt>
      <trkpt lat="42.77576" lon="0.57805">
        <ele>1789</ele>
        <time>1970-01-01T00:09:34.000Z</time>
      </trkpt>
      <trkpt lat="42.77576" lon="0.57806">
        <ele>1789</ele>
        <time>1970-01-01T00:09:35.000Z</time>
      </trkpt>
      <trkpt lat="42.77576" lon="0.57806">
        <ele>1789</ele>
        <time>1970-01-01T00:09:36.000Z</time>
      </trkpt>
      <trkpt lat="42.77575" lon="0.57806">
        <ele>1789</ele>
        <time>1970-01-01T00:09:37.000Z</time>
      </trkpt>
      <trkpt lat="42.77575" lon="0.57806">
        <ele>1790</ele>
        <time>1970-01-01T00:09:38.000Z</time>
      </trkpt>
      <trkpt lat="42.77575" lon="0.57807">
        <ele>1790</ele>
        <time>1970-01-01T00:09:39.000Z</time>
      </trkpt>
      <trkpt lat="42.77575" lon="0.57807">
        <ele>1790</ele>
        <time>1970-01-01T00:09:40.000Z</time>
      </trkpt>
      <trkpt lat="42.77574" lon="0.57807">
        <ele>1790</ele>
        <time>1970-01-01T00:09:41.000Z</time>
      </trkpt>
      <trkpt lat="42.77574" lon="0.57808">
        <ele>1790</ele>
        <time>1970-01-01T00:09:42.000Z</time>
      </trkpt>
      <trkpt lat="42.77574" lon="0.57808">
        <ele>1790</ele>
        <time>1970-01-01T00:09:43.000Z</time>
      </trkpt>
      <trkpt lat="42.77574" lon="0.57808">
        <ele>1790</ele>
        <time>1970-01-01T00:09:44.000Z</time>
      </trkpt>
      <trkpt lat="42.77573" lon="0.57808">
        <ele>1790</ele>
        <time>1970-01-01T00:09:45.000Z</time>
      </trkpt>
      <trkpt lat="42.77573" lon="0.57809">
        <ele>1790</ele>
        <time>1970-01-01T00:09:46.000Z</time>
      </trkpt>
      <trkpt lat="42.77573" lon="0.57809">
        <ele>1790</ele>
        <time>1970-01-01T00:09:47.000Z</time>
      </trkpt>
      <trkpt lat="42.77573" lon="0.57809">
        <ele>1789</ele>
        <time>1970-01-01T00:09:48.000Z</time>
      </trkpt>
      <trkpt lat="42.77572" lon="0.5781">
        <ele>1789</ele>
        <time>1970-01-01T00:09:49.000Z</time>
      </trkpt>
      <trkpt lat="42.77572" lon="0.5781">
        <ele>1789</ele>
        <time>1970-01-01T00:09:50.000Z</time>
      </trkpt>
      <trkpt lat="42.77572" lon="0.5781">
        <ele>1789</ele>
        <time>1970-01-01T00:09:51.000Z</time>
      </trkpt>
      <trkpt lat="42.77571" lon="0.57811">
        <ele>1789</ele>
        <time>1970-01-01T00:09:52.000Z</time>
      </trkpt>
      <trkpt lat="42.77571" lon="0.57811">
        <ele>1789</ele>
        <time>1970-01-01T00:09:53.000Z</time>
      </trkpt>
      <trkpt lat="42.77571" lon="0.57811">
        <ele>1789</ele>
        <time>1970-01-01T00:09:54.000Z</time>
      </trkpt>
      <trkpt lat="42.77571" lon="0.57811">
        <ele>1789</ele>
        <time>1970-01-01T00:09:55.000Z</time>
      </trkpt>
      <trkpt lat="42.77571" lon="0.57811">
        <ele>1789</ele>
        <time>1970-01-01T00:09:56.000Z</time>
      </trkpt>
      <trkpt lat="42.77572" lon="0.57811">
        <ele>1789</ele>
        <time>1970-01-01T00:09:57.000Z</time>
      </trkpt>
      <trkpt lat="42.77572" lon="0.57811">
        <ele>1789</ele>
        <time>1970-01-01T00:09:58.000Z</time>
      </trkpt>
      <trkpt lat="42.77572" lon="0.57811">
        <ele>1789</ele>
        <time>1970-01-01T00:09:59.000Z</time>
      </trkpt>
      <trkpt lat="42.77572" lon="0.57812">
        <ele>1789</ele>
        <time>1970-01-01T00:10:00.000Z</time>
      </trkpt>
      <trkpt lat="42.77572" lon="0.57812">
        <ele>1789</ele>
        <time>1970-01-01T00:10:01.000Z</time>
      </trkpt>
      <trkpt lat="42.77572" lon="0.57812">
        <ele>1789</ele>
        <time>1970-01-01T00:10:02.000Z</time>
      </trkpt>
      <trkpt lat="42.77572" lon="0.57812">
        <ele>1789</ele>
        <time>1970-01-01T00:10:03.000Z</time>
      </trkpt>
      <trkpt lat="42.77572" lon="0.57812">
        <ele>1789</ele>
        <time>1970-01-01T00:10:04.000Z</time>
      </trkpt>
      <trkpt lat="42.77572" lon="0.57812">
        <ele>1789</ele>
        <time>1970-01-01T00:10:05.000Z</time>
      </trkpt>
      <trkpt lat="42.77572" lon="0.57812">
        <ele>1789</ele>
        <time>1970-01-01T00:10:06.000Z</time>
      </trkpt>
      <trkpt lat="42.77573" lon="0.57812">
        <ele>1789</ele>
        <time>1970-01-01T00:10:07.000Z</time>
      </trkpt>
      <trkpt lat="42.77573" lon="0.57812">
        <ele>1788</ele>
        <time>1970-01-01T00:10:08.000Z</time>
      </trkpt>
      <trkpt lat="42.77573" lon="0.57812">
        <ele>1788</ele>
        <time>1970-01-01T00:10:09.000Z</time>
      </trkpt>
      <trkpt lat="42.77573" lon="0.57813">
        <ele>1788</ele>
        <time>1970-01-01T00:10:10.000Z</time>
      </trkpt>
      <trkpt lat="42.77573" lon="0.57813">
        <ele>1788</ele>
        <time>1970-01-01T00:10:11.000Z</time>
      </trkpt>
      <trkpt lat="42.77573" lon="0.57813">
        <ele>1788</ele>
        <time>1970-01-01T00:10:12.000Z</time>
      </trkpt>
      <trkpt lat="42.77573" lon="0.57813">
        <ele>1788</ele>
        <time>1970-01-01T00:10:13.000Z</time>
      </trkpt>
      <trkpt lat="42.77573" lon="0.57813">
        <ele>1788</ele>
        <time>1970-01-01T00:10:14.000Z</time>
      </trkpt>
      <trkpt lat="42.77573" lon="0.57813">
        <ele>1788</ele>
        <time>1970-01-01T00:10:15.000Z</time>
      </trkpt>
      <trkpt lat="42.77573" lon="0.57813">
        <ele>1788</ele>
        <time>1970-01-01T00:10:16.000Z</time>
      </trkpt>
      <trkpt lat="42.77573" lon="0.57813">
        <ele>1788</ele>
        <time>1970-01-01T00:10:17.000Z</time>
      </trkpt>
      <trkpt lat="42.77574" lon="0.57813">
        <ele>1788</ele>
        <time>1970-01-01T00:10:18.000Z</time>
      </trkpt>
      <trkpt lat="42.77574" lon="0.57814">
        <ele>1788</ele>
        <time>1970-01-01T00:10:19.000Z</time>
      </trkpt>
      <trkpt lat="42.77574" lon="0.57814">
        <ele>1788</ele>
        <time>1970-01-01T00:10:20.000Z</time>
      </trkpt>
      <trkpt lat="42.77574" lon="0.57814">
        <ele>1788</ele>
        <time>1970-01-01T00:10:21.000Z</time>
      </trkpt>
      <trkpt lat="42.77574" lon="0.57814">
        <ele>1788</ele>
        <time>1970-01-01T00:10:22.000Z</time>
      </trkpt>
      <trkpt lat="42.77574" lon="0.57814">
        <ele>1788</ele>
        <time>1970-01-01T00:10:23.000Z</time>
      </trkpt>
      <trkpt lat="42.77574" lon="0.57814">
        <ele>1788</ele>
        <time>1970-01-01T00:10:24.000Z</time>
      </trkpt>
      <trkpt lat="42.77574" lon="0.57814">
        <ele>1788</ele>
        <time>1970-01-01T00:10:25.000Z</time>
      </trkpt>
      <trkpt lat="42.77574" lon="0.57814">
        <ele>1788</ele>
        <time>1970-01-01T00:10:26.000Z</time>
      </trkpt>
      <trkpt lat="42.77574" lon="0.57814">
        <ele>1788</ele>
        <time>1970-01-01T00:10:27.000Z</time>
      </trkpt>
      <trkpt lat="42.77575" lon="0.57814">
        <ele>1789</ele>
        <time>1970-01-01T00:10:28.000Z</time>
      </trkpt>
      <trkpt lat="42.77575" lon="0.57815">
        <ele>1789</ele>
        <time>1970-01-01T00:10:29.000Z</time>
      </trkpt>
      <trkpt lat="42.77575" lon="0.57815">
        <ele>1789</ele>
        <time>1970-01-01T00:10:30.000Z</time>
      </trkpt>
      <trkpt lat="42.77575" lon="0.57815">
        <ele>1789</ele>
        <time>1970-01-01T00:10:31.000Z</time>
      </trkpt>
      <trkpt lat="42.77575" lon="0.57815">
        <ele>1789</ele>
        <time>1970-01-01T00:10:32.000Z</time>
      </trkpt>
      <trkpt lat="42.77575" lon="0.57815">
        <ele>1789</ele>
        <time>1970-01-01T00:10:33.000Z</time>
      </trkpt>
      <trkpt lat="42.77575" lon="0.57815">
        <ele>1789</ele>
        <time>1970-01-01T00:10:34.000Z</time>
      </trkpt>
      <trkpt lat="42.77575" lon="0.57815">
        <ele>1789</ele>
        <time>1970-01-01T00:10:35.000Z</time>
      </trkpt>
      <trkpt lat="42.77575" lon="0.57815">
        <ele>1789</ele>
        <time>1970-01-01T00:10:36.000Z</time>
      </trkpt>
      <trkpt lat="42.77579" lon="0.57819">
        <ele>1789</ele>
        <time>1970-01-01T00:10:37.000Z</time>
      </trkpt>
      <trkpt lat="42.77579" lon="0.57819">
        <ele>1790</ele>
        <time>1970-01-01T00:10:38.000Z</time>
      </trkpt>
      <trkpt lat="42.77579" lon="0.57819">
        <ele>1790</ele>
        <time>1970-01-01T00:10:39.000Z</time>
      </trkpt>
      <trkpt lat="42.77578" lon="0.57819">
        <ele>1790</ele>
        <time>1970-01-01T00:10:40.000Z</time>
      </trkpt>
      <trkpt lat="42.77578" lon="0.57818">
        <ele>1790</ele>
        <time>1970-01-01T00:10:41.000Z</time>
      </trkpt>
      <trkpt lat="42.77578" lon="0.57818">
        <ele>1790</ele>
        <time>1970-01-01T00:10:42.000Z</time>
      </trkpt>
      <trkpt lat="42.77578" lon="0.57818">
        <ele>1790</ele>
        <time>1970-01-01T00:10:43.000Z</time>
      </trkpt>
      <trkpt lat="42.77578" lon="0.57818">
        <ele>1790</ele>
        <time>1970-01-01T00:10:44.000Z</time>
      </trkpt>
      <trkpt lat="42.77577" lon="0.57817">
        <ele>1790</ele>
        <time>1970-01-01T00:10:45.000Z</time>
      </trkpt>
      <trkpt lat="42.77577" lon="0.57817">
        <ele>1790</ele>
        <time>1970-01-01T00:10:46.000Z</time>
      </trkpt>
      <trkpt lat="42.77577" lon="0.57817">
        <ele>1790</ele>
        <time>1970-01-01T00:10:47.000Z</time>
      </trkpt>
      <trkpt lat="42.77577" lon="0.57817">
        <ele>1789</ele>
        <time>1970-01-01T00:10:48.000Z</time>
      </trkpt>
      <trkpt lat="42.77576" lon="0.57816">
        <ele>1789</ele>
        <time>1970-01-01T00:10:49.000Z</time>
      </trkpt>
      <trkpt lat="42.77576" lon="0.57816">
        <ele>1789</ele>
        <time>1970-01-01T00:10:50.000Z</time>
      </trkpt>
      <trkpt lat="42.77576" lon="0.57816">
        <ele>1789</ele>
        <time>1970-01-01T00:10:51.000Z</time>
      </trkpt>
      <trkpt lat="42.77576" lon="0.57816">
        <ele>1789</ele>
        <time>1970-01-01T00:10:52.000Z</time>
      </trkpt>
      <trkpt lat="42.77575" lon="0.57815">
        <ele>1789</ele>
        <time>1970-01-01T00:10:53.000Z</time>
      </trkpt>
      <trkpt lat="42.77575" lon="0.57815">
        <ele>1789</ele>
        <time>1970-01-01T00:10:54.000Z</time>
      </trkpt>
      <trkpt lat="42.77575" lon="0.57815">
        <ele>1789</ele>
        <time>1970-01-01T00:10:55.000Z</time>
      </trkpt>
      <trkpt lat="42.77575" lon="0.57815">
        <ele>1789</ele>
        <time>1970-01-01T00:10:56.000Z</time>
      </trkpt>
      <trkpt lat="42.77574" lon="0.57814">
        <ele>1789</ele>
        <time>1970-01-01T00:10:57.000Z</time>
      </trkpt>
      <trkpt lat="42.77574" lon="0.57814">
        <ele>1789</ele>
        <time>1970-01-01T00:10:58.000Z</time>
      </trkpt>
      <trkpt lat="42.77574" lon="0.57814">
        <ele>1789</ele>
        <time>1970-01-01T00:10:59.000Z</time>
      </trkpt>
      <trkpt lat="42.77574" lon="0.57814">
        <ele>1789</ele>
        <time>1970-01-01T00:11:00.000Z</time>
      </trkpt>
      <trkpt lat="42.77573" lon="0.57813">
        <ele>1789</ele>
        <time>1970-01-01T00:11:01.000Z</time>
      </trkpt>
      <trkpt lat="42.77573" lon="0.57813">
        <ele>1789</ele>
        <time>1970-01-01T00:11:02.000Z</time>
      </trkpt>
      <trkpt lat="42.77573" lon="0.57813">
        <ele>1789</ele>
        <time>1970-01-01T00:11:03.000Z</time>
      </trkpt>
      <trkpt lat="42.77573" lon="0.57813">
        <ele>1789</ele>
        <time>1970-01-01T00:11:04.000Z</time>
      </trkpt>
      <trkpt lat="42.77572" lon="0.57812">
        <ele>1789</ele>
        <time>1970-01-01T00:11:05.000Z</time>
      </trkpt>
      <trkpt lat="42.77572" lon="0.57812">
        <ele>1789</ele>
        <time>1970-01-01T00:11:06.000Z</time>
      </trkpt>
      <trkpt lat="42.77572" lon="0.57812">
        <ele>1789</ele>
        <time>1970-01-01T00:11:07.000Z</time>
      </trkpt>
      <trkpt lat="42.77572" lon="0.57812">
        <ele>1790</ele>
        <time>1970-01-01T00:11:08.000Z</time>
      </trkpt>
      <trkpt lat="42.77571" lon="0.57811">
        <ele>1790</ele>
        <time>1970-01-01T00:11:09.000Z</time>
      </trkpt>
      <trkpt lat="42.77572" lon="0.57812">
        <ele>1790</ele>
        <time>1970-01-01T00:11:10.000Z</time>
      </trkpt>
      <trkpt lat="42.77572" lon="0.57812">
        <ele>1790</ele>
        <time>1970-01-01T00:11:11.000Z</time>
      </trkpt>
      <trkpt lat="42.77572" lon="0.57813">
        <ele>1790</ele>
        <time>1970-01-01T00:11:12.000Z</time>
      </trkpt>
      <trkpt lat="42.77572" lon="0.57814">
        <ele>1790</ele>
        <time>1970-01-01T00:11:13.000Z</time>
      </trkpt>
      <trkpt lat="42.77573" lon="0.57814">
        <ele>1790</ele>
        <time>1970-01-01T00:11:14.000Z</time>
      </trkpt>
      <trkpt lat="42.77573" lon="0.57815">
        <ele>1790</ele>
        <time>1970-01-01T00:11:15.000Z</time>
      </trkpt>
      <trkpt lat="42.77573" lon="0.57816">
        <ele>1790</ele>
        <time>1970-01-01T00:11:16.000Z</time>
      </trkpt>
      <trkpt lat="42.77573" lon="0.57816">
        <ele>1790</ele>
        <time>1970-01-01T00:11:17.000Z</time>
      </trkpt>
      <trkpt lat="42.77574" lon="0.57817">
        <ele>1790</ele>
        <time>1970-01-01T00:11:18.000Z</time>
      </trkpt>
      <trkpt lat="42.77574" lon="0.57817">
        <ele>1790</ele>
        <time>1970-01-01T00:11:19.000Z</time>
      </trkpt>
      <trkpt lat="42.77574" lon="0.57818">
        <ele>1790</ele>
        <time>1970-01-01T00:11:20.000Z</time>
      </trkpt>
      <trkpt lat="42.77574" lon="0.57819">
        <ele>1790</ele>
        <time>1970-01-01T00:11:21.000Z</time>
      </trkpt>
      <trkpt lat="42.77574" lon="0.57819">
        <ele>1790</ele>
        <time>1970-01-01T00:11:22.000Z</time>
      </trkpt>
      <trkpt lat="42.77578" lon="0.5783">
        <ele>1790</ele>
        <time>1970-01-01T00:11:23.000Z</time>
      </trkpt>
      <trkpt lat="42.77579" lon="0.57832">
        <ele>1790</ele>
        <time>1970-01-01T00:11:24.000Z</time>
      </trkpt>
      <trkpt lat="42.7758" lon="0.57834">
        <ele>1790</ele>
        <time>1970-01-01T00:11:25.000Z</time>
      </trkpt>
      <trkpt lat="42.77584" lon="0.57842">
        <ele>1790</ele>
        <time>1970-01-01T00:11:26.000Z</time>
      </trkpt>
      <trkpt lat="42.77586" lon="0.57843">
        <ele>1790</ele>
        <time>1970-01-01T00:11:27.000Z</time>
      </trkpt>
      <trkpt lat="42.77588" lon="0.57843">
        <ele>1780</ele>
        <time>1970-01-01T00:11:28.000Z</time>
      </trkpt>
      <trkpt lat="42.77595" lon="0.57845">
        <ele>1774</ele>
        <time>1970-01-01T00:11:29.000Z</time>
      </trkpt>
      <trkpt lat="42.77597" lon="0.57846">
        <ele>1773</ele>
        <time>1970-01-01T00:11:30.000Z</time>
      </trkpt>
      <trkpt lat="42.77599" lon="0.57846">
        <ele>1770</ele>
        <time>1970-01-01T00:11:31.000Z</time>
      </trkpt>
      <trkpt lat="42.77611" lon="0.57848">
        <ele>1767</ele>
        <time>1970-01-01T00:11:32.000Z</time>
      </trkpt>
      <trkpt lat="42.77617" lon="0.57848">
        <ele>1763</ele>
        <time>1970-01-01T00:11:33.000Z</time>
      </trkpt>
      <trkpt lat="42.7763" lon="0.57849">
        <ele>1759</ele>
        <time>1970-01-01T00:11:34.000Z</time>
      </trkpt>
      <trkpt lat="42.77634" lon="0.5785">
        <ele>1756</ele>
        <time>1970-01-01T00:11:35.000Z</time>
      </trkpt>
      <trkpt lat="42.77638" lon="0.5785">
        <ele>1753</ele>
        <time>1970-01-01T00:11:36.000Z</time>
      </trkpt>
      <trkpt lat="42.77655" lon="0.57852">
        <ele>1750</ele>
        <time>1970-01-01T00:11:37.000Z</time>
      </trkpt>
      <trkpt lat="42.77663" lon="0.57852">
        <ele>1749</ele>
        <time>1970-01-01T00:11:38.000Z</time>
      </trkpt>
      <trkpt lat="42.77679" lon="0.57853">
        <ele>1746</ele>
        <time>1970-01-01T00:11:39.000Z</time>
      </trkpt>
      <trkpt lat="42.77689" lon="0.57854">
        <ele>1744</ele>
        <time>1970-01-01T00:11:40.000Z</time>
      </trkpt>
      <trkpt lat="42.77702" lon="0.57853">
        <ele>1740</ele>
        <time>1970-01-01T00:11:41.000Z</time>
      </trkpt>
      <trkpt lat="42.77713" lon="0.57852">
        <ele>1738</ele>
        <time>1970-01-01T00:11:42.000Z</time>
      </trkpt>
      <trkpt lat="42.77723" lon="0.57854">
        <ele>1737</ele>
        <time>1970-01-01T00:11:43.000Z</time>
      </trkpt>
      <trkpt lat="42.77735" lon="0.57856">
        <ele>1737</ele>
        <time>1970-01-01T00:11:44.000Z</time>
      </trkpt>
      <trkpt lat="42.77746" lon="0.57849">
        <ele>1736</ele>
        <time>1970-01-01T00:11:45.000Z</time>
      </trkpt>
      <trkpt lat="42.77756" lon="0.57845">
        <ele>1736</ele>
        <time>1970-01-01T00:11:46.000Z</time>
      </trkpt>
      <trkpt lat="42.77768" lon="0.57843">
        <ele>1736</ele>
        <time>1970-01-01T00:11:47.000Z</time>
      </trkpt>
      <trkpt lat="42.77768" lon="0.57843">
        <ele>1735</ele>
        <time>1970-01-01T00:11:48.000Z</time>
      </trkpt>
      <trkpt lat="42.77768" lon="0.57844">
        <ele>1735</ele>
        <time>1970-01-01T00:11:49.000Z</time>
      </trkpt>
      <trkpt lat="42.77768" lon="0.57845">
        <ele>1735</ele>
        <time>1970-01-01T00:11:50.000Z</time>
      </trkpt>
      <trkpt lat="42.77768" lon="0.57846">
        <ele>1735</ele>
        <time>1970-01-01T00:11:51.000Z</time>
      </trkpt>
      <trkpt lat="42.77768" lon="0.57847">
        <ele>1735</ele>
        <time>1970-01-01T00:11:52.000Z</time>
      </trkpt>
      <trkpt lat="42.77769" lon="0.57848">
        <ele>1735</ele>
        <time>1970-01-01T00:11:53.000Z</time>
      </trkpt>
      <trkpt lat="42.77769" lon="0.57849">
        <ele>1735</ele>
        <time>1970-01-01T00:11:54.000Z</time>
      </trkpt>
      <trkpt lat="42.77769" lon="0.5785">
        <ele>1735</ele>
        <time>1970-01-01T00:11:55.000Z</time>
      </trkpt>
      <trkpt lat="42.77769" lon="0.5785">
        <ele>1735</ele>
        <time>1970-01-01T00:11:56.000Z</time>
      </trkpt>
      <trkpt lat="42.77771" lon="0.57861">
        <ele>1735</ele>
        <time>1970-01-01T00:11:57.000Z</time>
      </trkpt>
      <trkpt lat="42.77771" lon="0.57864">
        <ele>1735</ele>
        <time>1970-01-01T00:11:58.000Z</time>
      </trkpt>
      <trkpt lat="42.77772" lon="0.57866">
        <ele>1735</ele>
        <time>1970-01-01T00:11:59.000Z</time>
      </trkpt>
      <trkpt lat="42.77773" lon="0.57869">
        <ele>1735</ele>
        <time>1970-01-01T00:12:00.000Z</time>
      </trkpt>
      <trkpt lat="42.77774" lon="0.57871">
        <ele>1735</ele>
        <time>1970-01-01T00:12:01.000Z</time>
      </trkpt>
      <trkpt lat="42.77775" lon="0.57873">
        <ele>1735</ele>
        <time>1970-01-01T00:12:02.000Z</time>
      </trkpt>
      <trkpt lat="42.77776" lon="0.57874">
        <ele>1735</ele>
        <time>1970-01-01T00:12:03.000Z</time>
      </trkpt>
      <trkpt lat="42.77777" lon="0.57876">
        <ele>1735</ele>
        <time>1970-01-01T00:12:04.000Z</time>
      </trkpt>
      <trkpt lat="42.77777" lon="0.57878">
        <ele>1735</ele>
        <time>1970-01-01T00:12:05.000Z</time>
      </trkpt>
      <trkpt lat="42.77778" lon="0.57879">
        <ele>1735</ele>
        <time>1970-01-01T00:12:06.000Z</time>
      </trkpt>
      <trkpt lat="42.77779" lon="0.57881">
        <ele>1735</ele>
        <time>1970-01-01T00:12:07.000Z</time>
      </trkpt>
      <trkpt lat="42.77779" lon="0.57885">
        <ele>1735</ele>
        <time>1970-01-01T00:12:08.000Z</time>
      </trkpt>
      <trkpt lat="42.77779" lon="0.57889">
        <ele>1735</ele>
        <time>1970-01-01T00:12:09.000Z</time>
      </trkpt>
      <trkpt lat="42.77778" lon="0.57893">
        <ele>1735</ele>
        <time>1970-01-01T00:12:10.000Z</time>
      </trkpt>
      <trkpt lat="42.7778" lon="0.57893">
        <ele>1735</ele>
        <time>1970-01-01T00:12:11.000Z</time>
      </trkpt>
      <trkpt lat="42.77782" lon="0.57894">
        <ele>1735</ele>
        <time>1970-01-01T00:12:12.000Z</time>
      </trkpt>
      <trkpt lat="42.77784" lon="0.57895">
        <ele>1735</ele>
        <time>1970-01-01T00:12:13.000Z</time>
      </trkpt>
      <trkpt lat="42.77786" lon="0.57896">
        <ele>1735</ele>
        <time>1970-01-01T00:12:14.000Z</time>
      </trkpt>
      <trkpt lat="42.77788" lon="0.57896">
        <ele>1735</ele>
        <time>1970-01-01T00:12:15.000Z</time>
      </trkpt>
      <trkpt lat="42.77789" lon="0.57896">
        <ele>1735</ele>
        <time>1970-01-01T00:12:16.000Z</time>
      </trkpt>
      <trkpt lat="42.7779" lon="0.57896">
        <ele>1735</ele>
        <time>1970-01-01T00:12:17.000Z</time>
      </trkpt>
      <trkpt lat="42.77791" lon="0.57896">
        <ele>1731</ele>
        <time>1970-01-01T00:12:18.000Z</time>
      </trkpt>
      <trkpt lat="42.77792" lon="0.57896">
        <ele>1731</ele>
        <time>1970-01-01T00:12:19.000Z</time>
      </trkpt>
      <trkpt lat="42.77794" lon="0.57896">
        <ele>1731</ele>
        <time>1970-01-01T00:12:20.000Z</time>
      </trkpt>
      <trkpt lat="42.77801" lon="0.57894">
        <ele>1731</ele>
        <time>1970-01-01T00:12:21.000Z</time>
      </trkpt>
      <trkpt lat="42.77803" lon="0.57893">
        <ele>1731</ele>
        <time>1970-01-01T00:12:22.000Z</time>
      </trkpt>
      <trkpt lat="42.77804" lon="0.57892">
        <ele>1725</ele>
        <time>1970-01-01T00:12:23.000Z</time>
      </trkpt>
      <trkpt lat="42.77814" lon="0.57888">
        <ele>1725</ele>
        <time>1970-01-01T00:12:24.000Z</time>
      </trkpt>
      <trkpt lat="42.77819" lon="0.57886">
        <ele>1725</ele>
        <time>1970-01-01T00:12:25.000Z</time>
      </trkpt>
      <trkpt lat="42.77824" lon="0.57884">
        <ele>1725</ele>
        <time>1970-01-01T00:12:26.000Z</time>
      </trkpt>
      <trkpt lat="42.77828" lon="0.57882">
        <ele>1725</ele>
        <time>1970-01-01T00:12:27.000Z</time>
      </trkpt>
      <trkpt lat="42.7783" lon="0.57881">
        <ele>1718</ele>
        <time>1970-01-01T00:12:28.000Z</time>
      </trkpt>
      <trkpt lat="42.77832" lon="0.57881">
        <ele>1715</ele>
        <time>1970-01-01T00:12:29.000Z</time>
      </trkpt>
      <trkpt lat="42.77834" lon="0.5788">
        <ele>1712</ele>
        <time>1970-01-01T00:12:30.000Z</time>
      </trkpt>
      <trkpt lat="42.7784" lon="0.57875">
        <ele>1710</ele>
        <time>1970-01-01T00:12:31.000Z</time>
      </trkpt>
      <trkpt lat="42.77842" lon="0.57872">
        <ele>1710</ele>
        <time>1970-01-01T00:12:32.000Z</time>
      </trkpt>
      <trkpt lat="42.77843" lon="0.5787">
        <ele>1710</ele>
        <time>1970-01-01T00:12:33.000Z</time>
      </trkpt>
      <trkpt lat="42.77852" lon="0.57861">
        <ele>1709</ele>
        <time>1970-01-01T00:12:34.000Z</time>
      </trkpt>
      <trkpt lat="42.77857" lon="0.5786">
        <ele>1707</ele>
        <time>1970-01-01T00:12:35.000Z</time>
      </trkpt>
      <trkpt lat="42.77861" lon="0.57856">
        <ele>1705</ele>
        <time>1970-01-01T00:12:36.000Z</time>
      </trkpt>
      <trkpt lat="42.77864" lon="0.57851">
        <ele>1704</ele>
        <time>1970-01-01T00:12:37.000Z</time>
      </trkpt>
      <trkpt lat="42.77873" lon="0.57842">
        <ele>1703</ele>
        <time>1970-01-01T00:12:38.000Z</time>
      </trkpt>
      <trkpt lat="42.77875" lon="0.57842">
        <ele>1800</ele>
        <time>1970-01-01T00:12:39.000Z</time>
      </trkpt>
      <trkpt lat="42.77877" lon="0.57841">
        <ele>1800</ele>
        <time>1970-01-01T00:12:40.000Z</time>
      </trkpt>
      <trkpt lat="42.77886" lon="0.5784">
        <ele>1799</ele>
        <time>1970-01-01T00:12:41.000Z</time>
      </trkpt>
      <trkpt lat="42.77888" lon="0.5784">
        <ele>1798</ele>
        <time>1970-01-01T00:12:42.000Z</time>
      </trkpt>
      <trkpt lat="42.77891" lon="0.5784">
        <ele>1798</ele>
        <time>1970-01-01T00:12:43.000Z</time>
      </trkpt>
      <trkpt lat="42.77902" lon="0.57842">
        <ele>1796</ele>
        <time>1970-01-01T00:12:44.000Z</time>
      </trkpt>
      <trkpt lat="42.77905" lon="0.57844">
        <ele>1795</ele>
        <time>1970-01-01T00:12:45.000Z</time>
      </trkpt>
      <trkpt lat="42.77913" lon="0.57848">
        <ele>1795</ele>
        <time>1970-01-01T00:12:46.000Z</time>
      </trkpt>
      <trkpt lat="42.77915" lon="0.57847">
        <ele>1795</ele>
        <time>1970-01-01T00:12:47.000Z</time>
      </trkpt>
      <trkpt lat="42.77916" lon="0.57846">
        <ele>1794</ele>
        <time>1970-01-01T00:12:48.000Z</time>
      </trkpt>
      <trkpt lat="42.77923" lon="0.57841">
        <ele>1794</ele>
        <time>1970-01-01T00:12:49.000Z</time>
      </trkpt>
      <trkpt lat="42.77923" lon="0.57839">
        <ele>1794</ele>
        <time>1970-01-01T00:12:50.000Z</time>
      </trkpt>
      <trkpt lat="42.77924" lon="0.57837">
        <ele>1794</ele>
        <time>1970-01-01T00:12:51.000Z</time>
      </trkpt>
      <trkpt lat="42.77924" lon="0.57835">
        <ele>1794</ele>
        <time>1970-01-01T00:12:52.000Z</time>
      </trkpt>
      <trkpt lat="42.77924" lon="0.57834">
        <ele>1794</ele>
        <time>1970-01-01T00:12:53.000Z</time>
      </trkpt>
      <trkpt lat="42.77925" lon="0.57832">
        <ele>1794</ele>
        <time>1970-01-01T00:12:54.000Z</time>
      </trkpt>
      <trkpt lat="42.77925" lon="0.5783">
        <ele>1794</ele>
        <time>1970-01-01T00:12:55.000Z</time>
      </trkpt>
      <trkpt lat="42.77926" lon="0.57829">
        <ele>1794</ele>
        <time>1970-01-01T00:12:56.000Z</time>
      </trkpt>
      <trkpt lat="42.77926" lon="0.57828">
        <ele>1794</ele>
        <time>1970-01-01T00:12:57.000Z</time>
      </trkpt>
      <trkpt lat="42.77926" lon="0.57828">
        <ele>1794</ele>
        <time>1970-01-01T00:12:58.000Z</time>
      </trkpt>
      <trkpt lat="42.77926" lon="0.57827">
        <ele>1794</ele>
        <time>1970-01-01T00:12:59.000Z</time>
      </trkpt>
      <trkpt lat="42.77927" lon="0.57826">
        <ele>1794</ele>
        <time>1970-01-01T00:13:00.000Z</time>
      </trkpt>
      <trkpt lat="42.77927" lon="0.57825">
        <ele>1794</ele>
        <time>1970-01-01T00:13:01.000Z</time>
      </trkpt>
      <trkpt lat="42.77927" lon="0.57825">
        <ele>1794</ele>
        <time>1970-01-01T00:13:02.000Z</time>
      </trkpt>
      <trkpt lat="42.77927" lon="0.57824">
        <ele>1794</ele>
        <time>1970-01-01T00:13:03.000Z</time>
      </trkpt>
      <trkpt lat="42.77928" lon="0.57823">
        <ele>1794</ele>
        <time>1970-01-01T00:13:04.000Z</time>
      </trkpt>
      <trkpt lat="42.77928" lon="0.57822">
        <ele>1794</ele>
        <time>1970-01-01T00:13:05.000Z</time>
      </trkpt>
      <trkpt lat="42.77928" lon="0.57821">
        <ele>1794</ele>
        <time>1970-01-01T00:13:06.000Z</time>
      </trkpt>
      <trkpt lat="42.77928" lon="0.57821">
        <ele>1794</ele>
        <time>1970-01-01T00:13:07.000Z</time>
      </trkpt>
      <trkpt lat="42.77929" lon="0.5782">
        <ele>1794</ele>
        <time>1970-01-01T00:13:08.000Z</time>
      </trkpt>
      <trkpt lat="42.77929" lon="0.57819">
        <ele>1794</ele>
        <time>1970-01-01T00:13:09.000Z</time>
      </trkpt>
      <trkpt lat="42.77929" lon="0.57818">
        <ele>1794</ele>
        <time>1970-01-01T00:13:10.000Z</time>
      </trkpt>
      <trkpt lat="42.77929" lon="0.57817">
        <ele>1794</ele>
        <time>1970-01-01T00:13:11.000Z</time>
      </trkpt>
      <trkpt lat="42.77929" lon="0.57816">
        <ele>1794</ele>
        <time>1970-01-01T00:13:12.000Z</time>
      </trkpt>
      <trkpt lat="42.77928" lon="0.57815">
        <ele>1794</ele>
        <time>1970-01-01T00:13:13.000Z</time>
      </trkpt>
      <trkpt lat="42.77928" lon="0.57814">
        <ele>1794</ele>
        <time>1970-01-01T00:13:14.000Z</time>
      </trkpt>
      <trkpt lat="42.77928" lon="0.57813">
        <ele>1794</ele>
        <time>1970-01-01T00:13:15.000Z</time>
      </trkpt>
      <trkpt lat="42.77928" lon="0.57812">
        <ele>1794</ele>
        <time>1970-01-01T00:13:16.000Z</time>
      </trkpt>
      <trkpt lat="42.77927" lon="0.57811">
        <ele>1794</ele>
        <time>1970-01-01T00:13:17.000Z</time>
      </trkpt>
      <trkpt lat="42.77927" lon="0.5781">
        <ele>1788</ele>
        <time>1970-01-01T00:13:18.000Z</time>
      </trkpt>
      <trkpt lat="42.77927" lon="0.57809">
        <ele>1783</ele>
        <time>1970-01-01T00:13:19.000Z</time>
      </trkpt>
      <trkpt lat="42.77925" lon="0.57794">
        <ele>1780</ele>
        <time>1970-01-01T00:13:20.000Z</time>
      </trkpt>
      <trkpt lat="42.77926" lon="0.57788">
        <ele>1778</ele>
        <time>1970-01-01T00:13:21.000Z</time>
      </trkpt>
      <trkpt lat="42.77928" lon="0.57773">
        <ele>1777</ele>
        <time>1970-01-01T00:13:22.000Z</time>
      </trkpt>
      <trkpt lat="42.77928" lon="0.57769">
        <ele>1775</ele>
        <time>1970-01-01T00:13:23.000Z</time>
      </trkpt>
      <trkpt lat="42.7793" lon="0.57758">
        <ele>1772</ele>
        <time>1970-01-01T00:13:24.000Z</time>
      </trkpt>
      <trkpt lat="42.77931" lon="0.57754">
        <ele>1769</ele>
        <time>1970-01-01T00:13:25.000Z</time>
      </trkpt>
      <trkpt lat="42.77935" lon="0.57743">
        <ele>1768</ele>
        <time>1970-01-01T00:13:26.000Z</time>
      </trkpt>
      <trkpt lat="42.77937" lon="0.57738">
        <ele>1768</ele>
        <time>1970-01-01T00:13:27.000Z</time>
      </trkpt>
      <trkpt lat="42.77942" lon="0.57727">
        <ele>1767</ele>
        <time>1970-01-01T00:13:28.000Z</time>
      </trkpt>
      <trkpt lat="42.77944" lon="0.57725">
        <ele>1765</ele>
        <time>1970-01-01T00:13:29.000Z</time>
      </trkpt>
      <trkpt lat="42.77946" lon="0.57723">
        <ele>1764</ele>
        <time>1970-01-01T00:13:30.000Z</time>
      </trkpt>
      <trkpt lat="42.77953" lon="0.57717">
        <ele>1761</ele>
        <time>1970-01-01T00:13:31.000Z</time>
      </trkpt>
      <trkpt lat="42.77955" lon="0.57717">
        <ele>1760</ele>
        <time>1970-01-01T00:13:32.000Z</time>
      </trkpt>
      <trkpt lat="42.77957" lon="0.57717">
        <ele>1757</ele>
        <time>1970-01-01T00:13:33.000Z</time>
      </trkpt>
      <trkpt lat="42.77967" lon="0.57716">
        <ele>1756</ele>
        <time>1970-01-01T00:13:34.000Z</time>
      </trkpt>
      <trkpt lat="42.7797" lon="0.57716">
        <ele>1755</ele>
        <time>1970-01-01T00:13:35.000Z</time>
      </trkpt>
      <trkpt lat="42.77979" lon="0.57717">
        <ele>1755</ele>
        <time>1970-01-01T00:13:36.000Z</time>
      </trkpt>
      <trkpt lat="42.77981" lon="0.57717">
        <ele>1753</ele>
        <time>1970-01-01T00:13:37.000Z</time>
      </trkpt>
      <trkpt lat="42.77982" lon="0.57717">
        <ele>1751</ele>
        <time>1970-01-01T00:13:38.000Z</time>
      </trkpt>
      <trkpt lat="42.77984" lon="0.57717">
        <ele>1750</ele>
        <time>1970-01-01T00:13:39.000Z</time>
      </trkpt>
      <trkpt lat="42.77992" lon="0.57718">
        <ele>1748</ele>
        <time>1970-01-01T00:13:40.000Z</time>
      </trkpt>
      <trkpt lat="42.77995" lon="0.57719">
        <ele>1745</ele>
        <time>1970-01-01T00:13:41.000Z</time>
      </trkpt>
      <trkpt lat="42.78003" lon="0.57722">
        <ele>1743</ele>
        <time>1970-01-01T00:13:42.000Z</time>
      </trkpt>
      <trkpt lat="42.78007" lon="0.57723">
        <ele>1741</ele>
        <time>1970-01-01T00:13:43.000Z</time>
      </trkpt>
      <trkpt lat="42.78017" lon="0.57729">
        <ele>1738</ele>
        <time>1970-01-01T00:13:44.000Z</time>
      </trkpt>
      <trkpt lat="42.78021" lon="0.57732">
        <ele>1736</ele>
        <time>1970-01-01T00:13:45.000Z</time>
      </trkpt>
      <trkpt lat="42.78032" lon="0.57741">
        <ele>1735</ele>
        <time>1970-01-01T00:13:46.000Z</time>
      </trkpt>
      <trkpt lat="42.78034" lon="0.57743">
        <ele>1734</ele>
        <time>1970-01-01T00:13:47.000Z</time>
      </trkpt>
      <trkpt lat="42.78042" lon="0.5775">
        <ele>1735</ele>
        <time>1970-01-01T00:13:48.000Z</time>
      </trkpt>
      <trkpt lat="42.78043" lon="0.57752">
        <ele>1735</ele>
        <time>1970-01-01T00:13:49.000Z</time>
      </trkpt>
      <trkpt lat="42.78045" lon="0.57753">
        <ele>1734</ele>
        <time>1970-01-01T00:13:50.000Z</time>
      </trkpt>
      <trkpt lat="42.78051" lon="0.57758">
        <ele>1734</ele>
        <time>1970-01-01T00:13:51.000Z</time>
      </trkpt>
      <trkpt lat="42.78051" lon="0.57757">
        <ele>1734</ele>
        <time>1970-01-01T00:13:52.000Z</time>
      </trkpt>
      <trkpt lat="42.78051" lon="0.57757">
        <ele>1735</ele>
        <time>1970-01-01T00:13:53.000Z</time>
      </trkpt>
      <trkpt lat="42.78052" lon="0.57757">
        <ele>1735</ele>
        <time>1970-01-01T00:13:54.000Z</time>
      </trkpt>
      <trkpt lat="42.78052" lon="0.57756">
        <ele>1735</ele>
        <time>1970-01-01T00:13:55.000Z</time>
      </trkpt>
      <trkpt lat="42.78052" lon="0.57756">
        <ele>1734</ele>
        <time>1970-01-01T00:13:56.000Z</time>
      </trkpt>
      <trkpt lat="42.78052" lon="0.57756">
        <ele>1734</ele>
        <time>1970-01-01T00:13:57.000Z</time>
      </trkpt>
      <trkpt lat="42.78052" lon="0.57755">
        <ele>1734</ele>
        <time>1970-01-01T00:13:58.000Z</time>
      </trkpt>
      <trkpt lat="42.78052" lon="0.57755">
        <ele>1734</ele>
        <time>1970-01-01T00:13:59.000Z</time>
      </trkpt>
      <trkpt lat="42.78053" lon="0.57755">
        <ele>1734</ele>
        <time>1970-01-01T00:14:00.000Z</time>
      </trkpt>
      <trkpt lat="42.78053" lon="0.57754">
        <ele>1734</ele>
        <time>1970-01-01T00:14:01.000Z</time>
      </trkpt>
      <trkpt lat="42.78053" lon="0.57754">
        <ele>1734</ele>
        <time>1970-01-01T00:14:02.000Z</time>
      </trkpt>
      <trkpt lat="42.78053" lon="0.57754">
        <ele>1734</ele>
        <time>1970-01-01T00:14:03.000Z</time>
      </trkpt>
      <trkpt lat="42.78053" lon="0.57753">
        <ele>1734</ele>
        <time>1970-01-01T00:14:04.000Z</time>
      </trkpt>
      <trkpt lat="42.78054" lon="0.57753">
        <ele>1734</ele>
        <time>1970-01-01T00:14:05.000Z</time>
      </trkpt>
      <trkpt lat="42.78054" lon="0.57752">
        <ele>1734</ele>
        <time>1970-01-01T00:14:06.000Z</time>
      </trkpt>
      <trkpt lat="42.78054" lon="0.57752">
        <ele>1734</ele>
        <time>1970-01-01T00:14:07.000Z</time>
      </trkpt>
      <trkpt lat="42.78057" lon="0.57746">
        <ele>1735</ele>
        <time>1970-01-01T00:14:08.000Z</time>
      </trkpt>
      <trkpt lat="42.78057" lon="0.57745">
        <ele>1735</ele>
        <time>1970-01-01T00:14:09.000Z</time>
      </trkpt>
      <trkpt lat="42.78057" lon="0.57745">
        <ele>1735</ele>
        <time>1970-01-01T00:14:10.000Z</time>
      </trkpt>
      <trkpt lat="42.78057" lon="0.57745">
        <ele>1735</ele>
        <time>1970-01-01T00:14:11.000Z</time>
      </trkpt>
      <trkpt lat="42.78057" lon="0.57744">
        <ele>1735</ele>
        <time>1970-01-01T00:14:12.000Z</time>
      </trkpt>
      <trkpt lat="42.78057" lon="0.57744">
        <ele>1735</ele>
        <time>1970-01-01T00:14:13.000Z</time>
      </trkpt>
      <trkpt lat="42.78057" lon="0.57744">
        <ele>1735</ele>
        <time>1970-01-01T00:14:14.000Z</time>
      </trkpt>
      <trkpt lat="42.78057" lon="0.57743">
        <ele>1735</ele>
        <time>1970-01-01T00:14:15.000Z</time>
      </trkpt>
      <trkpt lat="42.78057" lon="0.57743">
        <ele>1735</ele>
        <time>1970-01-01T00:14:16.000Z</time>
      </trkpt>
      <trkpt lat="42.78057" lon="0.57743">
        <ele>1735</ele>
        <time>1970-01-01T00:14:17.000Z</time>
      </trkpt>
      <trkpt lat="42.78057" lon="0.57742">
        <ele>1735</ele>
        <time>1970-01-01T00:14:18.000Z</time>
      </trkpt>
      <trkpt lat="42.78057" lon="0.57742">
        <ele>1735</ele>
        <time>1970-01-01T00:14:19.000Z</time>
      </trkpt>
      <trkpt lat="42.78057" lon="0.57741">
        <ele>1735</ele>
        <time>1970-01-01T00:14:20.000Z</time>
      </trkpt>
      <trkpt lat="42.78057" lon="0.57741">
        <ele>1735</ele>
        <time>1970-01-01T00:14:21.000Z</time>
      </trkpt>
      <trkpt lat="42.78057" lon="0.57741">
        <ele>1735</ele>
        <time>1970-01-01T00:14:22.000Z</time>
      </trkpt>
      <trkpt lat="42.78057" lon="0.5774">
        <ele>1735</ele>
        <time>1970-01-01T00:14:23.000Z</time>
      </trkpt>
      <trkpt lat="42.78057" lon="0.5774">
        <ele>1735</ele>
        <time>1970-01-01T00:14:24.000Z</time>
      </trkpt>
      <trkpt lat="42.78057" lon="0.5774">
        <ele>1735</ele>
        <time>1970-01-01T00:14:25.000Z</time>
      </trkpt>
      <trkpt lat="42.78058" lon="0.57739">
        <ele>1735</ele>
        <time>1970-01-01T00:14:26.000Z</time>
      </trkpt>
      <trkpt lat="42.78058" lon="0.57739">
        <ele>1735</ele>
        <time>1970-01-01T00:14:27.000Z</time>
      </trkpt>
      <trkpt lat="42.78058" lon="0.57739">
        <ele>1734</ele>
        <time>1970-01-01T00:14:28.000Z</time>
      </trkpt>
      <trkpt lat="42.78058" lon="0.57738">
        <ele>1734</ele>
        <time>1970-01-01T00:14:29.000Z</time>
      </trkpt>
      <trkpt lat="42.78058" lon="0.57738">
        <ele>1734</ele>
        <time>1970-01-01T00:14:30.000Z</time>
      </trkpt>
      <trkpt lat="42.78058" lon="0.57738">
        <ele>1734</ele>
        <time>1970-01-01T00:14:31.000Z</time>
      </trkpt>
      <trkpt lat="42.78058" lon="0.57737">
        <ele>1734</ele>
        <time>1970-01-01T00:14:32.000Z</time>
      </trkpt>
      <trkpt lat="42.78058" lon="0.57737">
        <ele>1734</ele>
        <time>1970-01-01T00:14:33.000Z</time>
      </trkpt>
      <trkpt lat="42.78058" lon="0.57736">
        <ele>1734</ele>
        <time>1970-01-01T00:14:34.000Z</time>
      </trkpt>
      <trkpt lat="42.78058" lon="0.57736">
        <ele>1734</ele>
        <time>1970-01-01T00:14:35.000Z</time>
      </trkpt>
      <trkpt lat="42.78058" lon="0.57736">
        <ele>1734</ele>
        <time>1970-01-01T00:14:36.000Z</time>
      </trkpt>
      <trkpt lat="42.78058" lon="0.57735">
        <ele>1734</ele>
        <time>1970-01-01T00:14:37.000Z</time>
      </trkpt>
      <trkpt lat="42.78058" lon="0.57735">
        <ele>1734</ele>
        <time>1970-01-01T00:14:38.000Z</time>
      </trkpt>
      <trkpt lat="42.78058" lon="0.57735">
        <ele>1734</ele>
        <time>1970-01-01T00:14:39.000Z</time>
      </trkpt>
      <trkpt lat="42.78058" lon="0.57734">
        <ele>1734</ele>
        <time>1970-01-01T00:14:40.000Z</time>
      </trkpt>
      <trkpt lat="42.78058" lon="0.57734">
        <ele>1734</ele>
        <time>1970-01-01T00:14:41.000Z</time>
      </trkpt>
      <trkpt lat="42.78058" lon="0.57734">
        <ele>1734</ele>
        <time>1970-01-01T00:14:42.000Z</time>
      </trkpt>
      <trkpt lat="42.78058" lon="0.57733">
        <ele>1734</ele>
        <time>1970-01-01T00:14:43.000Z</time>
      </trkpt>
      <trkpt lat="42.78058" lon="0.57733">
        <ele>1734</ele>
        <time>1970-01-01T00:14:44.000Z</time>
      </trkpt>
      <trkpt lat="42.78058" lon="0.57732">
        <ele>1734</ele>
        <time>1970-01-01T00:14:45.000Z</time>
      </trkpt>
      <trkpt lat="42.78058" lon="0.57732">
        <ele>1734</ele>
        <time>1970-01-01T00:14:46.000Z</time>
      </trkpt>
      <trkpt lat="42.78058" lon="0.57732">
        <ele>1734</ele>
        <time>1970-01-01T00:14:47.000Z</time>
      </trkpt>
      <trkpt lat="42.78058" lon="0.57731">
        <ele>1733</ele>
        <time>1970-01-01T00:14:48.000Z</time>
      </trkpt>
      <trkpt lat="42.78058" lon="0.5773">
        <ele>1733</ele>
        <time>1970-01-01T00:14:49.000Z</time>
      </trkpt>
      <trkpt lat="42.78058" lon="0.57729">
        <ele>1733</ele>
        <time>1970-01-01T00:14:50.000Z</time>
      </trkpt>
      <trkpt lat="42.78058" lon="0.57729">
        <ele>1733</ele>
        <time>1970-01-01T00:14:51.000Z</time>
      </trkpt>
      <trkpt lat="42.78058" lon="0.57728">
        <ele>1733</ele>
        <time>1970-01-01T00:14:52.000Z</time>
      </trkpt>
      <trkpt lat="42.78057" lon="0.57727">
        <ele>1733</ele>
        <time>1970-01-01T00:14:53.000Z</time>
      </trkpt>
      <trkpt lat="42.78057" lon="0.57726">
        <ele>1733</ele>
        <time>1970-01-01T00:14:54.000Z</time>
      </trkpt>
      <trkpt lat="42.78057" lon="0.57725">
        <ele>1733</ele>
        <time>1970-01-01T00:14:55.000Z</time>
      </trkpt>
      <trkpt lat="42.78057" lon="0.57724">
        <ele>1733</ele>
        <time>1970-01-01T00:14:56.000Z</time>
      </trkpt>
      <trkpt lat="42.78057" lon="0.57724">
        <ele>1733</ele>
        <time>1970-01-01T00:14:57.000Z</time>
      </trkpt>
      <trkpt lat="42.78055" lon="0.57715">
        <ele>1734</ele>
        <time>1970-01-01T00:14:58.000Z</time>
      </trkpt>
      <trkpt lat="42.78055" lon="0.57714">
        <ele>1734</ele>
        <time>1970-01-01T00:14:59.000Z</time>
      </trkpt>
      <trkpt lat="42.78054" lon="0.57713">
        <ele>1734</ele>
        <time>1970-01-01T00:15:00.000Z</time>
      </trkpt>
      <trkpt lat="42.78054" lon="0.57712">
        <ele>1734</ele>
        <time>1970-01-01T00:15:01.000Z</time>
      </trkpt>
      <trkpt lat="42.78053" lon="0.57711">
        <ele>1734</ele>
        <time>1970-01-01T00:15:02.000Z</time>
      </trkpt>
      <trkpt lat="42.78053" lon="0.5771">
        <ele>1734</ele>
        <time>1970-01-01T00:15:03.000Z</time>
      </trkpt>
      <trkpt lat="42.78052" lon="0.5771">
        <ele>1734</ele>
        <time>1970-01-01T00:15:04.000Z</time>
      </trkpt>
      <trkpt lat="42.78052" lon="0.57709">
        <ele>1734</ele>
        <time>1970-01-01T00:15:05.000Z</time>
      </trkpt>
      <trkpt lat="42.78051" lon="0.57708">
        <ele>1734</ele>
        <time>1970-01-01T00:15:06.000Z</time>
      </trkpt>
      <trkpt lat="42.7805" lon="0.57707">
        <ele>1734</ele>
        <time>1970-01-01T00:15:07.000Z</time>
      </trkpt>
      <trkpt lat="42.7805" lon="0.57706">
        <ele>1729</ele>
        <time>1970-01-01T00:15:08.000Z</time>
      </trkpt>
      <trkpt lat="42.78049" lon="0.57705">
        <ele>1729</ele>
        <time>1970-01-01T00:15:09.000Z</time>
      </trkpt>
      <trkpt lat="42.78049" lon="0.57703">
        <ele>1729</ele>
        <time>1970-01-01T00:15:10.000Z</time>
      </trkpt>
      <trkpt lat="42.78048" lon="0.577">
        <ele>1729</ele>
        <time>1970-01-01T00:15:11.000Z</time>
      </trkpt>
      <trkpt lat="42.78048" lon="0.57698">
        <ele>1729</ele>
        <time>1970-01-01T00:15:12.000Z</time>
      </trkpt>
      <trkpt lat="42.78047" lon="0.57695">
        <ele>1725</ele>
        <time>1970-01-01T00:15:13.000Z</time>
      </trkpt>
      <trkpt lat="42.78044" lon="0.57681">
        <ele>1725</ele>
        <time>1970-01-01T00:15:14.000Z</time>
      </trkpt>
      <trkpt lat="42.78043" lon="0.57678">
        <ele>1725</ele>
        <time>1970-01-01T00:15:15.000Z</time>
      </trkpt>
      <trkpt lat="42.78042" lon="0.57669">
        <ele>1725</ele>
        <time>1970-01-01T00:15:16.000Z</time>
      </trkpt>
      <trkpt lat="42.78042" lon="0.57667">
        <ele>1725</ele>
        <time>1970-01-01T00:15:17.000Z</time>
      </trkpt>
      <trkpt lat="42.78041" lon="0.57665">
        <ele>1718</ele>
        <time>1970-01-01T00:15:18.000Z</time>
      </trkpt>
      <trkpt lat="42.78041" lon="0.57663">
        <ele>1716</ele>
        <time>1970-01-01T00:15:19.000Z</time>
      </trkpt>
      <trkpt lat="42.78041" lon="0.57661">
        <ele>1716</ele>
        <time>1970-01-01T00:15:20.000Z</time>
      </trkpt>
      <trkpt lat="42.78041" lon="0.5765">
        <ele>1715</ele>
        <time>1970-01-01T00:15:21.000Z</time>
      </trkpt>
      <trkpt lat="42.78041" lon="0.57649">
        <ele>1715</ele>
        <time>1970-01-01T00:15:22.000Z</time>
      </trkpt>
      <trkpt lat="42.78041" lon="0.57647">
        <ele>1715</ele>
        <time>1970-01-01T00:15:23.000Z</time>
      </trkpt>
      <trkpt lat="42.78041" lon="0.57646">
        <ele>1715</ele>
        <time>1970-01-01T00:15:24.000Z</time>
      </trkpt>
      <trkpt lat="42.78041" lon="0.57645">
        <ele>1715</ele>
        <time>1970-01-01T00:15:25.000Z</time>
      </trkpt>
      <trkpt lat="42.78042" lon="0.57637">
        <ele>1715</ele>
        <time>1970-01-01T00:15:26.000Z</time>
      </trkpt>
      <trkpt lat="42.78042" lon="0.57636">
        <ele>1715</ele>
        <time>1970-01-01T00:15:27.000Z</time>
      </trkpt>
      <trkpt lat="42.78042" lon="0.57635">
        <ele>1715</ele>
        <time>1970-01-01T00:15:28.000Z</time>
      </trkpt>
      <trkpt lat="42.78042" lon="0.57634">
        <ele>1715</ele>
        <time>1970-01-01T00:15:29.000Z</time>
      </trkpt>
      <trkpt lat="42.78042" lon="0.57633">
        <ele>1715</ele>
        <time>1970-01-01T00:15:30.000Z</time>
      </trkpt>
      <trkpt lat="42.78042" lon="0.57632">
        <ele>1715</ele>
        <time>1970-01-01T00:15:31.000Z</time>
      </trkpt>
      <trkpt lat="42.78042" lon="0.57631">
        <ele>1715</ele>
        <time>1970-01-01T00:15:32.000Z</time>
      </trkpt>
      <trkpt lat="42.78042" lon="0.5763">
        <ele>1712</ele>
        <time>1970-01-01T00:15:33.000Z</time>
      </trkpt>
      <trkpt lat="42.78042" lon="0.5762">
        <ele>1712</ele>
        <time>1970-01-01T00:15:34.000Z</time>
      </trkpt>
      <trkpt lat="42.78042" lon="0.57618">
        <ele>1712</ele>
        <time>1970-01-01T00:15:35.000Z</time>
      </trkpt>
      <trkpt lat="42.78042" lon="0.57615">
        <ele>1712</ele>
        <time>1970-01-01T00:15:36.000Z</time>
      </trkpt>
      <trkpt lat="42.78043" lon="0.57613">
        <ele>1712</ele>
        <time>1970-01-01T00:15:37.000Z</time>
      </trkpt>
      <trkpt lat="42.78046" lon="0.57602">
        <ele>1706</ele>
        <time>1970-01-01T00:15:38.000Z</time>
      </trkpt>
      <trkpt lat="42.78048" lon="0.57601">
        <ele>1702</ele>
        <time>1970-01-01T00:15:39.000Z</time>
      </trkpt>
      <trkpt lat="42.7805" lon="0.576">
        <ele>1701</ele>
        <time>1970-01-01T00:15:40.000Z</time>
      </trkpt>
      <trkpt lat="42.78058" lon="0.57597">
        <ele>1698</ele>
        <time>1970-01-01T00:15:41.000Z</time>
      </trkpt>
      <trkpt lat="42.78061" lon="0.57598">
        <ele>1698</ele>
        <time>1970-01-01T00:15:42.000Z</time>
      </trkpt>
      <trkpt lat="42.78063" lon="0.57598">
        <ele>1697</ele>
        <time>1970-01-01T00:15:43.000Z</time>
      </trkpt>
      <trkpt lat="42.78074" lon="0.57601">
        <ele>1696</ele>
        <time>1970-01-01T00:15:44.000Z</time>
      </trkpt>
      <trkpt lat="42.78079" lon="0.57603">
        <ele>1696</ele>
        <time>1970-01-01T00:15:45.000Z</time>
      </trkpt>
      <trkpt lat="42.7808" lon="0.57604">
        <ele>1693</ele>
        <time>1970-01-01T00:15:46.000Z</time>
      </trkpt>
      <trkpt lat="42.78081" lon="0.57604">
        <ele>1691</ele>
        <time>1970-01-01T00:15:47.000Z</time>
      </trkpt>
      <trkpt lat="42.78082" lon="0.57604">
        <ele>1690</ele>
        <time>1970-01-01T00:15:48.000Z</time>
      </trkpt>
      <trkpt lat="42.78083" lon="0.57605">
        <ele>1689</ele>
        <time>1970-01-01T00:15:49.000Z</time>
      </trkpt>
      <trkpt lat="42.78084" lon="0.57605">
        <ele>1687</ele>
        <time>1970-01-01T00:15:50.000Z</time>
      </trkpt>
      <trkpt lat="42.78085" lon="0.57605">
        <ele>1685</ele>
        <time>1970-01-01T00:15:51.000Z</time>
      </trkpt>
      <trkpt lat="42.78094" lon="0.57609">
        <ele>1683</ele>
        <time>1970-01-01T00:15:52.000Z</time>
      </trkpt>
      <trkpt lat="42.78096" lon="0.57611">
        <ele>1683</ele>
        <time>1970-01-01T00:15:53.000Z</time>
      </trkpt>
      <trkpt lat="42.78098" lon="0.57613">
        <ele>1681</ele>
        <time>1970-01-01T00:15:54.000Z</time>
      </trkpt>
      <trkpt lat="42.78106" lon="0.5762">
        <ele>1679</ele>
        <time>1970-01-01T00:15:55.000Z</time>
      </trkpt>
      <trkpt lat="42.78108" lon="0.57621">
        <ele>1679</ele>
        <time>1970-01-01T00:15:56.000Z</time>
      </trkpt>
      <trkpt lat="42.78109" lon="0.57621">
        <ele>1677</ele>
        <time>1970-01-01T00:15:57.000Z</time>
      </trkpt>
      <trkpt lat="42.78117" lon="0.57624">
        <ele>1676</ele>
        <time>1970-01-01T00:15:58.000Z</time>
      </trkpt>
      <trkpt lat="42.78119" lon="0.57625">
        <ele>1675</ele>
        <time>1970-01-01T00:15:59.000Z</time>
      </trkpt>
      <trkpt lat="42.78121" lon="0.57626">
        <ele>1673</ele>
        <time>1970-01-01T00:16:00.000Z</time>
      </trkpt>
      <trkpt lat="42.78128" lon="0.57631">
        <ele>1672</ele>
        <time>1970-01-01T00:16:01.000Z</time>
      </trkpt>
      <trkpt lat="42.78128" lon="0.57633">
        <ele>1670</ele>
        <time>1970-01-01T00:16:02.000Z</time>
      </trkpt>
      <trkpt lat="42.78129" lon="0.57635">
        <ele>1668</ele>
        <time>1970-01-01T00:16:03.000Z</time>
      </trkpt>
      <trkpt lat="42.78133" lon="0.57646">
        <ele>1667</ele>
        <time>1970-01-01T00:16:04.000Z</time>
      </trkpt>
      <trkpt lat="42.78134" lon="0.57649">
        <ele>1665</ele>
        <time>1970-01-01T00:16:05.000Z</time>
      </trkpt>
      <trkpt lat="42.78136" lon="0.57653">
        <ele>1665</ele>
        <time>1970-01-01T00:16:06.000Z</time>
      </trkpt>
      <trkpt lat="42.78138" lon="0.57656">
        <ele>1665</ele>
        <time>1970-01-01T00:16:07.000Z</time>
      </trkpt>
      <trkpt lat="42.7814" lon="0.5766">
        <ele>1662</ele>
        <time>1970-01-01T00:16:08.000Z</time>
      </trkpt>
      <trkpt lat="42.78142" lon="0.57664">
        <ele>1662</ele>
        <time>1970-01-01T00:16:09.000Z</time>
      </trkpt>
      <trkpt lat="42.78144" lon="0.5767">
        <ele>1662</ele>
        <time>1970-01-01T00:16:10.000Z</time>
      </trkpt>
      <trkpt lat="42.78147" lon="0.57676">
        <ele>1661</ele>
        <time>1970-01-01T00:16:11.000Z</time>
      </trkpt>
      <trkpt lat="42.78151" lon="0.5768">
        <ele>1659</ele>
        <time>1970-01-01T00:16:12.000Z</time>
      </trkpt>
      <trkpt lat="42.78155" lon="0.57684">
        <ele>1660</ele>
        <time>1970-01-01T00:16:13.000Z</time>
      </trkpt>
      <trkpt lat="42.78156" lon="0.57682">
        <ele>1659</ele>
        <time>1970-01-01T00:16:14.000Z</time>
      </trkpt>
      <trkpt lat="42.78158" lon="0.57681">
        <ele>1658</ele>
        <time>1970-01-01T00:16:15.000Z</time>
      </trkpt>
      <trkpt lat="42.7816" lon="0.57679">
        <ele>1658</ele>
        <time>1970-01-01T00:16:16.000Z</time>
      </trkpt>
      <trkpt lat="42.78166" lon="0.57674">
        <ele>1658</ele>
        <time>1970-01-01T00:16:17.000Z</time>
      </trkpt>
      <trkpt lat="42.78167" lon="0.57673">
        <ele>1658</ele>
        <time>1970-01-01T00:16:18.000Z</time>
      </trkpt>
      <trkpt lat="42.78168" lon="0.57672">
        <ele>1658</ele>
        <time>1970-01-01T00:16:19.000Z</time>
      </trkpt>
      <trkpt lat="42.78169" lon="0.57671">
        <ele>1658</ele>
        <time>1970-01-01T00:16:20.000Z</time>
      </trkpt>
      <trkpt lat="42.7817" lon="0.5767">
        <ele>1658</ele>
        <time>1970-01-01T00:16:21.000Z</time>
      </trkpt>
      <trkpt lat="42.78177" lon="0.57666">
        <ele>1658</ele>
        <time>1970-01-01T00:16:22.000Z</time>
      </trkpt>
      <trkpt lat="42.78179" lon="0.57665">
        <ele>1656</ele>
        <time>1970-01-01T00:16:23.000Z</time>
      </trkpt>
      <trkpt lat="42.78181" lon="0.57664">
        <ele>1656</ele>
        <time>1970-01-01T00:16:24.000Z</time>
      </trkpt>
      <trkpt lat="42.78184" lon="0.57663">
        <ele>1656</ele>
        <time>1970-01-01T00:16:25.000Z</time>
      </trkpt>
      <trkpt lat="42.78186" lon="0.57663">
        <ele>1656</ele>
        <time>1970-01-01T00:16:26.000Z</time>
      </trkpt>
      <trkpt lat="42.78188" lon="0.57664">
        <ele>1656</ele>
        <time>1970-01-01T00:16:27.000Z</time>
      </trkpt>
      <trkpt lat="42.78191" lon="0.57664">
        <ele>1648</ele>
        <time>1970-01-01T00:16:28.000Z</time>
      </trkpt>
      <trkpt lat="42.78199" lon="0.57665">
        <ele>1643</ele>
        <time>1970-01-01T00:16:29.000Z</time>
      </trkpt>
      <trkpt lat="42.78202" lon="0.57666">
        <ele>1642</ele>
        <time>1970-01-01T00:16:30.000Z</time>
      </trkpt>
      <trkpt lat="42.78204" lon="0.57666">
        <ele>1640</ele>
        <time>1970-01-01T00:16:31.000Z</time>
      </trkpt>
      <trkpt lat="42.78212" lon="0.57669">
        <ele>1638</ele>
        <time>1970-01-01T00:16:32.000Z</time>
      </trkpt>
      <trkpt lat="42.78214" lon="0.5767">
        <ele>1637</ele>
        <time>1970-01-01T00:16:33.000Z</time>
      </trkpt>
      <trkpt lat="42.78215" lon="0.57671">
        <ele>1634</ele>
        <time>1970-01-01T00:16:34.000Z</time>
      </trkpt>
      <trkpt lat="42.78217" lon="0.57672">
        <ele>1633</ele>
        <time>1970-01-01T00:16:35.000Z</time>
      </trkpt>
      <trkpt lat="42.78225" lon="0.57678">
        <ele>1630</ele>
        <time>1970-01-01T00:16:36.000Z</time>
      </trkpt>
      <trkpt lat="42.78227" lon="0.5768">
        <ele>1630</ele>
        <time>1970-01-01T00:16:37.000Z</time>
      </trkpt>
      <trkpt lat="42.78228" lon="0.57681">
        <ele>1627</ele>
        <time>1970-01-01T00:16:38.000Z</time>
      </trkpt>
      <trkpt lat="42.78236" lon="0.57688">
        <ele>1625</ele>
        <time>1970-01-01T00:16:39.000Z</time>
      </trkpt>
      <trkpt lat="42.78238" lon="0.57689">
        <ele>1624</ele>
        <time>1970-01-01T00:16:40.000Z</time>
      </trkpt>
      <trkpt lat="42.78244" lon="0.57691">
        <ele>1623</ele>
        <time>1970-01-01T00:16:41.000Z</time>
      </trkpt>
      <trkpt lat="42.78244" lon="0.5769">
        <ele>1623</ele>
        <time>1970-01-01T00:16:42.000Z</time>
      </trkpt>
      <trkpt lat="42.78244" lon="0.57689">
        <ele>1624</ele>
        <time>1970-01-01T00:16:43.000Z</time>
      </trkpt>
      <trkpt lat="42.78244" lon="0.57688">
        <ele>1624</ele>
        <time>1970-01-01T00:16:44.000Z</time>
      </trkpt>
      <trkpt lat="42.78244" lon="0.57688">
        <ele>1623</ele>
        <time>1970-01-01T00:16:45.000Z</time>
      </trkpt>
      <trkpt lat="42.78244" lon="0.57687">
        <ele>1623</ele>
        <time>1970-01-01T00:16:46.000Z</time>
      </trkpt>
      <trkpt lat="42.78244" lon="0.57686">
        <ele>1623</ele>
        <time>1970-01-01T00:16:47.000Z</time>
      </trkpt>
      <trkpt lat="42.78244" lon="0.57685">
        <ele>1622</ele>
        <time>1970-01-01T00:16:48.000Z</time>
      </trkpt>
      <trkpt lat="42.78244" lon="0.57685">
        <ele>1622</ele>
        <time>1970-01-01T00:16:49.000Z</time>
      </trkpt>
      <trkpt lat="42.78245" lon="0.57684">
        <ele>1622</ele>
        <time>1970-01-01T00:16:50.000Z</time>
      </trkpt>
      <trkpt lat="42.78245" lon="0.57673">
        <ele>1622</ele>
        <time>1970-01-01T00:16:51.000Z</time>
      </trkpt>
      <trkpt lat="42.78245" lon="0.57669">
        <ele>1622</ele>
        <time>1970-01-01T00:16:52.000Z</time>
      </trkpt>
      <trkpt lat="42.78243" lon="0.5766">
        <ele>1623</ele>
        <time>1970-01-01T00:16:53.000Z</time>
      </trkpt>
      <trkpt lat="42.78243" lon="0.57657">
        <ele>1623</ele>
        <time>1970-01-01T00:16:54.000Z</time>
      </trkpt>
      <trkpt lat="42.78243" lon="0.57655">
        <ele>1623</ele>
        <time>1970-01-01T00:16:55.000Z</time>
      </trkpt>
      <trkpt lat="42.78242" lon="0.57653">
        <ele>1623</ele>
        <time>1970-01-01T00:16:56.000Z</time>
      </trkpt>
      <trkpt lat="42.78242" lon="0.57651">
        <ele>1623</ele>
        <time>1970-01-01T00:16:57.000Z</time>
      </trkpt>
      <trkpt lat="42.78242" lon="0.57649">
        <ele>1623</ele>
        <time>1970-01-01T00:16:58.000Z</time>
      </trkpt>
      <trkpt lat="42.78241" lon="0.57646">
        <ele>1623</ele>
        <time>1970-01-01T00:16:59.000Z</time>
      </trkpt>
      <trkpt lat="42.7824" lon="0.57644">
        <ele>1623</ele>
        <time>1970-01-01T00:17:00.000Z</time>
      </trkpt>
      <trkpt lat="42.78239" lon="0.57642">
        <ele>1623</ele>
        <time>1970-01-01T00:17:01.000Z</time>
      </trkpt>
      <trkpt lat="42.78239" lon="0.5764">
        <ele>1623</ele>
        <time>1970-01-01T00:17:02.000Z</time>
      </trkpt>
      <trkpt lat="42.78238" lon="0.57637">
        <ele>1623</ele>
        <time>1970-01-01T00:17:03.000Z</time>
      </trkpt>
      <trkpt lat="42.78238" lon="0.57636">
        <ele>1623</ele>
        <time>1970-01-01T00:17:04.000Z</time>
      </trkpt>
      <trkpt lat="42.78237" lon="0.57635">
        <ele>1623</ele>
        <time>1970-01-01T00:17:05.000Z</time>
      </trkpt>
      <trkpt lat="42.78237" lon="0.57634">
        <ele>1623</ele>
        <time>1970-01-01T00:17:06.000Z</time>
      </trkpt>
      <trkpt lat="42.78237" lon="0.57633">
        <ele>1623</ele>
        <time>1970-01-01T00:17:07.000Z</time>
      </trkpt>
      <trkpt lat="42.78236" lon="0.57632">
        <ele>1623</ele>
        <time>1970-01-01T00:17:08.000Z</time>
      </trkpt>
      <trkpt lat="42.78236" lon="0.57631">
        <ele>1623</ele>
        <time>1970-01-01T00:17:09.000Z</time>
      </trkpt>
      <trkpt lat="42.78236" lon="0.57631">
        <ele>1623</ele>
        <time>1970-01-01T00:17:10.000Z</time>
      </trkpt>
      <trkpt lat="42.78235" lon="0.5763">
        <ele>1623</ele>
        <time>1970-01-01T00:17:11.000Z</time>
      </trkpt>
      <trkpt lat="42.78235" lon="0.57629">
        <ele>1623</ele>
        <time>1970-01-01T00:17:12.000Z</time>
      </trkpt>
      <trkpt lat="42.78235" lon="0.57628">
        <ele>1623</ele>
        <time>1970-01-01T00:17:13.000Z</time>
      </trkpt>
      <trkpt lat="42.78234" lon="0.57627">
        <ele>1623</ele>
        <time>1970-01-01T00:17:14.000Z</time>
      </trkpt>
      <trkpt lat="42.78234" lon="0.57626">
        <ele>1623</ele>
        <time>1970-01-01T00:17:15.000Z</time>
      </trkpt>
      <trkpt lat="42.78234" lon="0.57625">
        <ele>1623</ele>
        <time>1970-01-01T00:17:16.000Z</time>
      </trkpt>
      <trkpt lat="42.78234" lon="0.57624">
        <ele>1623</ele>
        <time>1970-01-01T00:17:17.000Z</time>
      </trkpt>
      <trkpt lat="42.78234" lon="0.57624">
        <ele>1623</ele>
        <time>1970-01-01T00:17:18.000Z</time>
      </trkpt>
      <trkpt lat="42.78233" lon="0.57624">
        <ele>1623</ele>
        <time>1970-01-01T00:17:19.000Z</time>
      </trkpt>
      <trkpt lat="42.78233" lon="0.57624">
        <ele>1623</ele>
        <time>1970-01-01T00:17:20.000Z</time>
      </trkpt>
      <trkpt lat="42.78233" lon="0.57623">
        <ele>1623</ele>
        <time>1970-01-01T00:17:21.000Z</time>
      </trkpt>
      <trkpt lat="42.78233" lon="0.57623">
        <ele>1623</ele>
        <time>1970-01-01T00:17:22.000Z</time>
      </trkpt>
      <trkpt lat="42.78233" lon="0.57623">
        <ele>1623</ele>
        <time>1970-01-01T00:17:23.000Z</time>
      </trkpt>
      <trkpt lat="42.78233" lon="0.57623">
        <ele>1623</ele>
        <time>1970-01-01T00:17:24.000Z</time>
      </trkpt>
      <trkpt lat="42.78232" lon="0.57622">
        <ele>1623</ele>
        <time>1970-01-01T00:17:25.000Z</time>
      </trkpt>
      <trkpt lat="42.78232" lon="0.57622">
        <ele>1623</ele>
        <time>1970-01-01T00:17:26.000Z</time>
      </trkpt>
      <trkpt lat="42.78232" lon="0.57622">
        <ele>1623</ele>
        <time>1970-01-01T00:17:27.000Z</time>
      </trkpt>
      <trkpt lat="42.78232" lon="0.57622">
        <ele>1623</ele>
        <time>1970-01-01T00:17:28.000Z</time>
      </trkpt>
      <trkpt lat="42.78232" lon="0.57621">
        <ele>1623</ele>
        <time>1970-01-01T00:17:29.000Z</time>
      </trkpt>
      <trkpt lat="42.78232" lon="0.57621">
        <ele>1623</ele>
        <time>1970-01-01T00:17:30.000Z</time>
      </trkpt>
      <trkpt lat="42.78231" lon="0.57621">
        <ele>1623</ele>
        <time>1970-01-01T00:17:31.000Z</time>
      </trkpt>
      <trkpt lat="42.78231" lon="0.57621">
        <ele>1623</ele>
        <time>1970-01-01T00:17:32.000Z</time>
      </trkpt>
      <trkpt lat="42.78231" lon="0.5762">
        <ele>1623</ele>
        <time>1970-01-01T00:17:33.000Z</time>
      </trkpt>
      <trkpt lat="42.78231" lon="0.5762">
        <ele>1623</ele>
        <time>1970-01-01T00:17:34.000Z</time>
      </trkpt>
      <trkpt lat="42.78231" lon="0.5762">
        <ele>1623</ele>
        <time>1970-01-01T00:17:35.000Z</time>
      </trkpt>
      <trkpt lat="42.78231" lon="0.5762">
        <ele>1623</ele>
        <time>1970-01-01T00:17:36.000Z</time>
      </trkpt>
      <trkpt lat="42.7823" lon="0.57619">
        <ele>1623</ele>
        <time>1970-01-01T00:17:37.000Z</time>
      </trkpt>
      <trkpt lat="42.7823" lon="0.57619">
        <ele>1623</ele>
        <time>1970-01-01T00:17:38.000Z</time>
      </trkpt>
      <trkpt lat="42.7823" lon="0.57619">
        <ele>1623</ele>
        <time>1970-01-01T00:17:39.000Z</time>
      </trkpt>
      <trkpt lat="42.7823" lon="0.57619">
        <ele>1623</ele>
        <time>1970-01-01T00:17:40.000Z</time>
      </trkpt>
      <trkpt lat="42.7823" lon="0.57618">
        <ele>1623</ele>
        <time>1970-01-01T00:17:41.000Z</time>
      </trkpt>
      <trkpt lat="42.7823" lon="0.57618">
        <ele>1623</ele>
        <time>1970-01-01T00:17:42.000Z</time>
      </trkpt>
      <trkpt lat="42.78229" lon="0.57618">
        <ele>1623</ele>
        <time>1970-01-01T00:17:43.000Z</time>
      </trkpt>
      <trkpt lat="42.78229" lon="0.57618">
        <ele>1623</ele>
        <time>1970-01-01T00:17:44.000Z</time>
      </trkpt>
      <trkpt lat="42.78229" lon="0.57617">
        <ele>1623</ele>
        <time>1970-01-01T00:17:45.000Z</time>
      </trkpt>
      <trkpt lat="42.78229" lon="0.57617">
        <ele>1623</ele>
        <time>1970-01-01T00:17:46.000Z</time>
      </trkpt>
      <trkpt lat="42.78229" lon="0.57617">
        <ele>1623</ele>
        <time>1970-01-01T00:17:47.000Z</time>
      </trkpt>
      <trkpt lat="42.78229" lon="0.57617">
        <ele>1836</ele>
        <time>1970-01-01T00:17:48.000Z</time>
      </trkpt>
      <trkpt lat="42.78229" lon="0.57617">
        <ele>1836</ele>
        <time>1970-01-01T00:17:49.000Z</time>
      </trkpt>
      <trkpt lat="42.78229" lon="0.57617">
        <ele>1836</ele>
        <time>1970-01-01T00:17:50.000Z</time>
      </trkpt>
      <trkpt lat="42.78229" lon="0.57617">
        <ele>1835</ele>
        <time>1970-01-01T00:17:51.000Z</time>
      </trkpt>
      <trkpt lat="42.78229" lon="0.57617">
        <ele>1836</ele>
        <time>1970-01-01T00:17:52.000Z</time>
      </trkpt>
      <trkpt lat="42.7823" lon="0.57617">
        <ele>1836</ele>
        <time>1970-01-01T00:17:53.000Z</time>
      </trkpt>
      <trkpt lat="42.7823" lon="0.57617">
        <ele>1836</ele>
        <time>1970-01-01T00:17:54.000Z</time>
      </trkpt>
      <trkpt lat="42.7823" lon="0.57618">
        <ele>1836</ele>
        <time>1970-01-01T00:17:55.000Z</time>
      </trkpt>
      <trkpt lat="42.7823" lon="0.57618">
        <ele>1836</ele>
        <time>1970-01-01T00:17:56.000Z</time>
      </trkpt>
      <trkpt lat="42.78231" lon="0.57618">
        <ele>1836</ele>
        <time>1970-01-01T00:17:57.000Z</time>
      </trkpt>
      <trkpt lat="42.78231" lon="0.57618">
        <ele>1835</ele>
        <time>1970-01-01T00:17:58.000Z</time>
      </trkpt>
      <trkpt lat="42.78231" lon="0.57618">
        <ele>1835</ele>
        <time>1970-01-01T00:17:59.000Z</time>
      </trkpt>
      <trkpt lat="42.78231" lon="0.57618">
        <ele>1835</ele>
        <time>1970-01-01T00:18:00.000Z</time>
      </trkpt>
      <trkpt lat="42.78231" lon="0.57618">
        <ele>1835</ele>
        <time>1970-01-01T00:18:01.000Z</time>
      </trkpt>
      <trkpt lat="42.78232" lon="0.57619">
        <ele>1835</ele>
        <time>1970-01-01T00:18:02.000Z</time>
      </trkpt>
      <trkpt lat="42.78232" lon="0.57619">
        <ele>1835</ele>
        <time>1970-01-01T00:18:03.000Z</time>
      </trkpt>
      <trkpt lat="42.78232" lon="0.57619">
        <ele>1835</ele>
        <time>1970-01-01T00:18:04.000Z</time>
      </trkpt>
      <trkpt lat="42.78232" lon="0.57619">
        <ele>1835</ele>
        <time>1970-01-01T00:18:05.000Z</time>
      </trkpt>
      <trkpt lat="42.78232" lon="0.57619">
        <ele>1835</ele>
        <time>1970-01-01T00:18:06.000Z</time>
      </trkpt>
      <trkpt lat="42.78233" lon="0.57619">
        <ele>1835</ele>
        <time>1970-01-01T00:18:07.000Z</time>
      </trkpt>
      <trkpt lat="42.78233" lon="0.57619">
        <ele>1835</ele>
        <time>1970-01-01T00:18:08.000Z</time>
      </trkpt>
      <trkpt lat="42.78233" lon="0.5762">
        <ele>1835</ele>
        <time>1970-01-01T00:18:09.000Z</time>
      </trkpt>
      <trkpt lat="42.78233" lon="0.5762">
        <ele>1835</ele>
        <time>1970-01-01T00:18:10.000Z</time>
      </trkpt>
      <trkpt lat="42.78233" lon="0.5762">
        <ele>1835</ele>
        <time>1970-01-01T00:18:11.000Z</time>
      </trkpt>
      <trkpt lat="42.78234" lon="0.5762">
        <ele>1835</ele>
        <time>1970-01-01T00:18:12.000Z</time>
      </trkpt>
      <trkpt lat="42.7824" lon="0.57624">
        <ele>1835</ele>
        <time>1970-01-01T00:18:13.000Z</time>
      </trkpt>
      <trkpt lat="42.78242" lon="0.57624">
        <ele>1835</ele>
        <time>1970-01-01T00:18:14.000Z</time>
      </trkpt>
      <trkpt lat="42.78244" lon="0.57624">
        <ele>1835</ele>
        <time>1970-01-01T00:18:15.000Z</time>
      </trkpt>
      <trkpt lat="42.78252" lon="0.57621">
        <ele>1835</ele>
        <time>1970-01-01T00:18:16.000Z</time>
      </trkpt>
      <trkpt lat="42.78254" lon="0.57617">
        <ele>1835</ele>
        <time>1970-01-01T00:18:17.000Z</time>
      </trkpt>
      <trkpt lat="42.78261" lon="0.5761">
        <ele>1824</ele>
        <time>1970-01-01T00:18:18.000Z</time>
      </trkpt>
      <trkpt lat="42.78264" lon="0.57609">
        <ele>1817</ele>
        <time>1970-01-01T00:18:19.000Z</time>
      </trkpt>
      <trkpt lat="42.78273" lon="0.57606">
        <ele>1816</ele>
        <time>1970-01-01T00:18:20.000Z</time>
      </trkpt>
      <trkpt lat="42.78275" lon="0.57606">
        <ele>1815</ele>
        <time>1970-01-01T00:18:21.000Z</time>
      </trkpt>
      <trkpt lat="42.78277" lon="0.57605">
        <ele>1813</ele>
        <time>1970-01-01T00:18:22.000Z</time>
      </trkpt>
      <trkpt lat="42.78289" lon="0.57603">
        <ele>1811</ele>
        <time>1970-01-01T00:18:23.000Z</time>
      </trkpt>
      <trkpt lat="42.78294" lon="0.57603">
        <ele>1810</ele>
        <time>1970-01-01T00:18:24.000Z</time>
      </trkpt>
      <trkpt lat="42.78297" lon="0.57604">
        <ele>1809</ele>
        <time>1970-01-01T00:18:25.000Z</time>
      </trkpt>
      <trkpt lat="42.78299" lon="0.57605">
        <ele>1808</ele>
        <time>1970-01-01T00:18:26.000Z</time>
      </trkpt>
      <trkpt lat="42.78303" lon="0.57613">
        <ele>1807</ele>
        <time>1970-01-01T00:18:27.000Z</time>
      </trkpt>
      <trkpt lat="42.78302" lon="0.57619">
        <ele>1805</ele>
        <time>1970-01-01T00:18:28.000Z</time>
      </trkpt>
      <trkpt lat="42.78299" lon="0.57634">
        <ele>1804</ele>
        <time>1970-01-01T00:18:29.000Z</time>
      </trkpt>
      <trkpt lat="42.78298" lon="0.57639">
        <ele>1802</ele>
        <time>1970-01-01T00:18:30.000Z</time>
      </trkpt>
      <trkpt lat="42.78297" lon="0.57655">
        <ele>1801</ele>
        <time>1970-01-01T00:18:31.000Z</time>
      </trkpt>
      <trkpt lat="42.78296" lon="0.57662">
        <ele>1799</ele>
        <time>1970-01-01T00:18:32.000Z</time>
      </trkpt>
      <trkpt lat="42.78296" lon="0.57665">
        <ele>1797</ele>
        <time>1970-01-01T00:18:33.000Z</time>
      </trkpt>
      <trkpt lat="42.78297" lon="0.57669">
        <ele>1794</ele>
        <time>1970-01-01T00:18:34.000Z</time>
      </trkpt>
      <trkpt lat="42.78299" lon="0.57679">
        <ele>1792</ele>
        <time>1970-01-01T00:18:35.000Z</time>
      </trkpt>
      <trkpt lat="42.78301" lon="0.57683">
        <ele>1791</ele>
        <time>1970-01-01T00:18:36.000Z</time>
      </trkpt>
      <trkpt lat="42.78307" lon="0.57692">
        <ele>1788</ele>
        <time>1970-01-01T00:18:37.000Z</time>
      </trkpt>
      <trkpt lat="42.78309" lon="0.57694">
        <ele>1787</ele>
        <time>1970-01-01T00:18:38.000Z</time>
      </trkpt>
      <trkpt lat="42.78311" lon="0.57697">
        <ele>1784</ele>
        <time>1970-01-01T00:18:39.000Z</time>
      </trkpt>
      <trkpt lat="42.78318" lon="0.57707">
        <ele>1781</ele>
        <time>1970-01-01T00:18:40.000Z</time>
      </trkpt>
      <trkpt lat="42.78319" lon="0.57709">
        <ele>1777</ele>
        <time>1970-01-01T00:18:41.000Z</time>
      </trkpt>
      <trkpt lat="42.7832" lon="0.57712">
        <ele>1776</ele>
        <time>1970-01-01T00:18:42.000Z</time>
      </trkpt>
      <trkpt lat="42.78326" lon="0.57721">
        <ele>1775</ele>
        <time>1970-01-01T00:18:43.000Z</time>
      </trkpt>
      <trkpt lat="42.78328" lon="0.57722">
        <ele>1773</ele>
        <time>1970-01-01T00:18:44.000Z</time>
      </trkpt>
      <trkpt lat="42.7833" lon="0.57723">
        <ele>1771</ele>
        <time>1970-01-01T00:18:45.000Z</time>
      </trkpt>
      <trkpt lat="42.78336" lon="0.57727">
        <ele>1768</ele>
        <time>1970-01-01T00:18:46.000Z</time>
      </trkpt>
      <trkpt lat="42.78338" lon="0.57728">
        <ele>1766</ele>
        <time>1970-01-01T00:18:47.000Z</time>
      </trkpt>
      <trkpt lat="42.7834" lon="0.57729">
        <ele>1764</ele>
        <time>1970-01-01T00:18:48.000Z</time>
      </trkpt>
      <trkpt lat="42.78346" lon="0.57733">
        <ele>1762</ele>
        <time>1970-01-01T00:18:49.000Z</time>
      </trkpt>
      <trkpt lat="42.78348" lon="0.57734">
        <ele>1761</ele>
        <time>1970-01-01T00:18:50.000Z</time>
      </trkpt>
      <trkpt lat="42.78349" lon="0.57736">
        <ele>1759</ele>
        <time>1970-01-01T00:18:51.000Z</time>
      </trkpt>
      <trkpt lat="42.78353" lon="0.5774">
        <ele>1759</ele>
        <time>1970-01-01T00:18:52.000Z</time>
      </trkpt>
      <trkpt lat="42.78353" lon="0.5774">
        <ele>1759</ele>
        <time>1970-01-01T00:18:53.000Z</time>
      </trkpt>
      <trkpt lat="42.78353" lon="0.5774">
        <ele>1759</ele>
        <time>1970-01-01T00:18:54.000Z</time>
      </trkpt>
      <trkpt lat="42.78353" lon="0.57739">
        <ele>1758</ele>
        <time>1970-01-01T00:18:55.000Z</time>
      </trkpt>
      <trkpt lat="42.78353" lon="0.57739">
        <ele>1758</ele>
        <time>1970-01-01T00:18:56.000Z</time>
      </trkpt>
      <trkpt lat="42.78353" lon="0.57739">
        <ele>1758</ele>
        <time>1970-01-01T00:18:57.000Z</time>
      </trkpt>
      <trkpt lat="42.78353" lon="0.57738">
        <ele>1757</ele>
        <time>1970-01-01T00:18:58.000Z</time>
      </trkpt>
      <trkpt lat="42.78353" lon="0.57738">
        <ele>1758</ele>
        <time>1970-01-01T00:18:59.000Z</time>
      </trkpt>
      <trkpt lat="42.78352" lon="0.57738">
        <ele>1758</ele>
        <time>1970-01-01T00:19:00.000Z</time>
      </trkpt>
      <trkpt lat="42.78352" lon="0.57737">
        <ele>1758</ele>
        <time>1970-01-01T00:19:01.000Z</time>
      </trkpt>
      <trkpt lat="42.78352" lon="0.57737">
        <ele>1758</ele>
        <time>1970-01-01T00:19:02.000Z</time>
      </trkpt>
      <trkpt lat="42.78352" lon="0.57737">
        <ele>1758</ele>
        <time>1970-01-01T00:19:03.000Z</time>
      </trkpt>
      <trkpt lat="42.78352" lon="0.57736">
        <ele>1758</ele>
        <time>1970-01-01T00:19:04.000Z</time>
      </trkpt>
      <trkpt lat="42.78352" lon="0.57736">
        <ele>1758</ele>
        <time>1970-01-01T00:19:05.000Z</time>
      </trkpt>
      <trkpt lat="42.78352" lon="0.57736">
        <ele>1758</ele>
        <time>1970-01-01T00:19:06.000Z</time>
      </trkpt>
      <trkpt lat="42.78352" lon="0.57736">
        <ele>1757</ele>
        <time>1970-01-01T00:19:07.000Z</time>
      </trkpt>
      <trkpt lat="42.78351" lon="0.57735">
        <ele>1758</ele>
        <time>1970-01-01T00:19:08.000Z</time>
      </trkpt>
      <trkpt lat="42.78351" lon="0.57735">
        <ele>1758</ele>
        <time>1970-01-01T00:19:09.000Z</time>
      </trkpt>
      <trkpt lat="42.78351" lon="0.57735">
        <ele>1758</ele>
        <time>1970-01-01T00:19:10.000Z</time>
      </trkpt>
      <trkpt lat="42.78351" lon="0.57734">
        <ele>1758</ele>
        <time>1970-01-01T00:19:11.000Z</time>
      </trkpt>
      <trkpt lat="42.78351" lon="0.57734">
        <ele>1758</ele>
        <time>1970-01-01T00:19:12.000Z</time>
      </trkpt>
      <trkpt lat="42.78351" lon="0.57734">
        <ele>1758</ele>
        <time>1970-01-01T00:19:13.000Z</time>
      </trkpt>
      <trkpt lat="42.78351" lon="0.57733">
        <ele>1758</ele>
        <time>1970-01-01T00:19:14.000Z</time>
      </trkpt>
      <trkpt lat="42.7835" lon="0.57733">
        <ele>1758</ele>
        <time>1970-01-01T00:19:15.000Z</time>
      </trkpt>
      <trkpt lat="42.7835" lon="0.57733">
        <ele>1758</ele>
        <time>1970-01-01T00:19:16.000Z</time>
      </trkpt>
      <trkpt lat="42.7835" lon="0.57732">
        <ele>1758</ele>
        <time>1970-01-01T00:19:17.000Z</time>
      </trkpt>
      <trkpt lat="42.7835" lon="0.57732">
        <ele>1758</ele>
        <time>1970-01-01T00:19:18.000Z</time>
      </trkpt>
      <trkpt lat="42.7835" lon="0.57732">
        <ele>1758</ele>
        <time>1970-01-01T00:19:19.000Z</time>
      </trkpt>
      <trkpt lat="42.7835" lon="0.57731">
        <ele>1758</ele>
        <time>1970-01-01T00:19:20.000Z</time>
      </trkpt>
      <trkpt lat="42.7835" lon="0.57731">
        <ele>1758</ele>
        <time>1970-01-01T00:19:21.000Z</time>
      </trkpt>
      <trkpt lat="42.7835" lon="0.57731">
        <ele>1758</ele>
        <time>1970-01-01T00:19:22.000Z</time>
      </trkpt>
      <trkpt lat="42.78349" lon="0.57731">
        <ele>1758</ele>
        <time>1970-01-01T00:19:23.000Z</time>
      </trkpt>
      <trkpt lat="42.78349" lon="0.5773">
        <ele>1758</ele>
        <time>1970-01-01T00:19:24.000Z</time>
      </trkpt>
      <trkpt lat="42.78349" lon="0.5773">
        <ele>1758</ele>
        <time>1970-01-01T00:19:25.000Z</time>
      </trkpt>
      <trkpt lat="42.7835" lon="0.5773">
        <ele>1758</ele>
        <time>1970-01-01T00:19:26.000Z</time>
      </trkpt>
      <trkpt lat="42.7835" lon="0.57731">
        <ele>1758</ele>
        <time>1970-01-01T00:19:27.000Z</time>
      </trkpt>
      <trkpt lat="42.7835" lon="0.57731">
        <ele>1758</ele>
        <time>1970-01-01T00:19:28.000Z</time>
      </trkpt>
      <trkpt lat="42.7835" lon="0.57731">
        <ele>1758</ele>
        <time>1970-01-01T00:19:29.000Z</time>
      </trkpt>
      <trkpt lat="42.7835" lon="0.57731">
        <ele>1758</ele>
        <time>1970-01-01T00:19:30.000Z</time>
      </trkpt>
      <trkpt lat="42.7835" lon="0.57731">
        <ele>1758</ele>
        <time>1970-01-01T00:19:31.000Z</time>
      </trkpt>
      <trkpt lat="42.7835" lon="0.57731">
        <ele>1758</ele>
        <time>1970-01-01T00:19:32.000Z</time>
      </trkpt>
      <trkpt lat="42.7835" lon="0.57731">
        <ele>1758</ele>
        <time>1970-01-01T00:19:33.000Z</time>
      </trkpt>
      <trkpt lat="42.7835" lon="0.57731">
        <ele>1758</ele>
        <time>1970-01-01T00:19:34.000Z</time>
      </trkpt>
      <trkpt lat="42.7835" lon="0.57731">
        <ele>1758</ele>
        <time>1970-01-01T00:19:35.000Z</time>
      </trkpt>
      <trkpt lat="42.78351" lon="0.57731">
        <ele>1758</ele>
        <time>1970-01-01T00:19:36.000Z</time>
      </trkpt>
      <trkpt lat="42.78351" lon="0.57731">
        <ele>1758</ele>
        <time>1970-01-01T00:19:37.000Z</time>
      </trkpt>
      <trkpt lat="42.78351" lon="0.57732">
        <ele>1758</ele>
        <time>1970-01-01T00:19:38.000Z</time>
      </trkpt>
      <trkpt lat="42.78351" lon="0.57732">
        <ele>1758</ele>
        <time>1970-01-01T00:19:39.000Z</time>
      </trkpt>
      <trkpt lat="42.78351" lon="0.57732">
        <ele>1758</ele>
        <time>1970-01-01T00:19:40.000Z</time>
      </trkpt>
      <trkpt lat="42.78351" lon="0.57732">
        <ele>1758</ele>
        <time>1970-01-01T00:19:41.000Z</time>
      </trkpt>
      <trkpt lat="42.78351" lon="0.57732">
        <ele>1758</ele>
        <time>1970-01-01T00:19:42.000Z</time>
      </trkpt>
      <trkpt lat="42.78351" lon="0.57732">
        <ele>1758</ele>
        <time>1970-01-01T00:19:43.000Z</time>
      </trkpt>
      <trkpt lat="42.78351" lon="0.57732">
        <ele>1758</ele>
        <time>1970-01-01T00:19:44.000Z</time>
      </trkpt>
      <trkpt lat="42.78351" lon="0.57732">
        <ele>1758</ele>
        <time>1970-01-01T00:19:45.000Z</time>
      </trkpt>
      <trkpt lat="42.78352" lon="0.57732">
        <ele>1758</ele>
        <time>1970-01-01T00:19:46.000Z</time>
      </trkpt>
      <trkpt lat="42.78352" lon="0.57732">
        <ele>1758</ele>
        <time>1970-01-01T00:19:47.000Z</time>
      </trkpt>
      <trkpt lat="42.78352" lon="0.57732">
        <ele>1758</ele>
        <time>1970-01-01T00:19:48.000Z</time>
      </trkpt>
      <trkpt lat="42.78352" lon="0.57733">
        <ele>1758</ele>
        <time>1970-01-01T00:19:49.000Z</time>
      </trkpt>
      <trkpt lat="42.78352" lon="0.57733">
        <ele>1758</ele>
        <time>1970-01-01T00:19:50.000Z</time>
      </trkpt>
      <trkpt lat="42.78352" lon="0.57733">
        <ele>1758</ele>
        <time>1970-01-01T00:19:51.000Z</time>
      </trkpt>
      <trkpt lat="42.78352" lon="0.57733">
        <ele>1758</ele>
        <time>1970-01-01T00:19:52.000Z</time>
      </trkpt>
      <trkpt lat="42.78352" lon="0.57733">
        <ele>1758</ele>
        <time>1970-01-01T00:19:53.000Z</time>
      </trkpt>
      <trkpt lat="42.78352" lon="0.57733">
        <ele>1758</ele>
        <time>1970-01-01T00:19:54.000Z</time>
      </trkpt>
      <trkpt lat="42.78353" lon="0.57733">
        <ele>1758</ele>
        <time>1970-01-01T00:19:55.000Z</time>
      </trkpt>
      <trkpt lat="42.78353" lon="0.57733">
        <ele>1758</ele>
        <time>1970-01-01T00:19:56.000Z</time>
      </trkpt>
      <trkpt lat="42.78353" lon="0.57733">
        <ele>1758</ele>
        <time>1970-01-01T00:19:57.000Z</time>
      </trkpt>
      <trkpt lat="42.78353" lon="0.57733">
        <ele>1758</ele>
        <time>1970-01-01T00:19:58.000Z</time>
      </trkpt>
      <trkpt lat="42.78353" lon="0.57733">
        <ele>1758</ele>
        <time>1970-01-01T00:19:59.000Z</time>
      </trkpt>
      <trkpt lat="42.78353" lon="0.57734">
        <ele>1758</ele>
        <time>1970-01-01T00:20:00.000Z</time>
      </trkpt>
      <trkpt lat="42.78353" lon="0.57734">
        <ele>1758</ele>
        <time>1970-01-01T00:20:01.000Z</time>
      </trkpt>
      <trkpt lat="42.78353" lon="0.57734">
        <ele>1758</ele>
        <time>1970-01-01T00:20:02.000Z</time>
      </trkpt>
      <trkpt lat="42.78353" lon="0.57734">
        <ele>1758</ele>
        <time>1970-01-01T00:20:03.000Z</time>
      </trkpt>
      <trkpt lat="42.78353" lon="0.57734">
        <ele>1758</ele>
        <time>1970-01-01T00:20:04.000Z</time>
      </trkpt>
      <trkpt lat="42.78354" lon="0.57734">
        <ele>1758</ele>
        <time>1970-01-01T00:20:05.000Z</time>
      </trkpt>
      <trkpt lat="42.78354" lon="0.57734">
        <ele>1758</ele>
        <time>1970-01-01T00:20:06.000Z</time>
      </trkpt>
      <trkpt lat="42.78354" lon="0.57734">
        <ele>1758</ele>
        <time>1970-01-01T00:20:07.000Z</time>
      </trkpt>
      <trkpt lat="42.78354" lon="0.57734">
        <ele>1752</ele>
        <time>1970-01-01T00:20:08.000Z</time>
      </trkpt>
      <trkpt lat="42.78354" lon="0.57734">
        <ele>1751</ele>
        <time>1970-01-01T00:20:09.000Z</time>
      </trkpt>
      <trkpt lat="42.78354" lon="0.57734">
        <ele>1749</ele>
        <time>1970-01-01T00:20:10.000Z</time>
      </trkpt>
      <trkpt lat="42.78354" lon="0.57735">
        <ele>1748</ele>
        <time>1970-01-01T00:20:11.000Z</time>
      </trkpt>
      <trkpt lat="42.78354" lon="0.57735">
        <ele>1747</ele>
        <time>1970-01-01T00:20:12.000Z</time>
      </trkpt>
      <trkpt lat="42.78359" lon="0.57739">
        <ele>1746</ele>
        <time>1970-01-01T00:20:13.000Z</time>
      </trkpt>
      <trkpt lat="42.78359" lon="0.57739">
        <ele>1746</ele>
        <time>1970-01-01T00:20:14.000Z</time>
      </trkpt>
      <trkpt lat="42.78359" lon="0.57739">
        <ele>1746</ele>
        <time>1970-01-01T00:20:15.000Z</time>
      </trkpt>
      <trkpt lat="42.7836" lon="0.57739">
        <ele>1746</ele>
        <time>1970-01-01T00:20:16.000Z</time>
      </trkpt>
      <trkpt lat="42.7836" lon="0.57739">
        <ele>1745</ele>
        <time>1970-01-01T00:20:17.000Z</time>
      </trkpt>
      <trkpt lat="42.7836" lon="0.57739">
        <ele>1744</ele>
        <time>1970-01-01T00:20:18.000Z</time>
      </trkpt>
      <trkpt lat="42.7836" lon="0.5774">
        <ele>1745</ele>
        <time>1970-01-01T00:20:19.000Z</time>
      </trkpt>
      <trkpt lat="42.7836" lon="0.5774">
        <ele>1745</ele>
        <time>1970-01-01T00:20:20.000Z</time>
      </trkpt>
      <trkpt lat="42.7836" lon="0.5774">
        <ele>1744</ele>
        <time>1970-01-01T00:20:21.000Z</time>
      </trkpt>
      <trkpt lat="42.7836" lon="0.5774">
        <ele>1744</ele>
        <time>1970-01-01T00:20:22.000Z</time>
      </trkpt>
      <trkpt lat="42.7836" lon="0.5774">
        <ele>1744</ele>
        <time>1970-01-01T00:20:23.000Z</time>
      </trkpt>
      <trkpt lat="42.7836" lon="0.5774">
        <ele>1744</ele>
        <time>1970-01-01T00:20:24.000Z</time>
      </trkpt>
      <trkpt lat="42.78361" lon="0.5774">
        <ele>1744</ele>
        <time>1970-01-01T00:20:25.000Z</time>
      </trkpt>
      <trkpt lat="42.78361" lon="0.5774">
        <ele>1744</ele>
        <time>1970-01-01T00:20:26.000Z</time>
      </trkpt>
      <trkpt lat="42.78361" lon="0.5774">
        <ele>1744</ele>
        <time>1970-01-01T00:20:27.000Z</time>
      </trkpt>
      <trkpt lat="42.78361" lon="0.5774">
        <ele>1744</ele>
        <time>1970-01-01T00:20:28.000Z</time>
      </trkpt>
      <trkpt lat="42.78361" lon="0.5774">
        <ele>1744</ele>
        <time>1970-01-01T00:20:29.000Z</time>
      </trkpt>
      <trkpt lat="42.78361" lon="0.5774">
        <ele>1744</ele>
        <time>1970-01-01T00:20:30.000Z</time>
      </trkpt>
      <trkpt lat="42.78361" lon="0.5774">
        <ele>1744</ele>
        <time>1970-01-01T00:20:31.000Z</time>
      </trkpt>
      <trkpt lat="42.78361" lon="0.5774">
        <ele>1744</ele>
        <time>1970-01-01T00:20:32.000Z</time>
      </trkpt>
      <trkpt lat="42.78362" lon="0.5774">
        <ele>1744</ele>
        <time>1970-01-01T00:20:33.000Z</time>
      </trkpt>
      <trkpt lat="42.78362" lon="0.5774">
        <ele>1744</ele>
        <time>1970-01-01T00:20:34.000Z</time>
      </trkpt>
      <trkpt lat="42.78362" lon="0.5774">
        <ele>1744</ele>
        <time>1970-01-01T00:20:35.000Z</time>
      </trkpt>
      <trkpt lat="42.78362" lon="0.5774">
        <ele>1744</ele>
        <time>1970-01-01T00:20:36.000Z</time>
      </trkpt>
      <trkpt lat="42.78362" lon="0.57741">
        <ele>1744</ele>
        <time>1970-01-01T00:20:37.000Z</time>
      </trkpt>
      <trkpt lat="42.78362" lon="0.57741">
        <ele>1744</ele>
        <time>1970-01-01T00:20:38.000Z</time>
      </trkpt>
      <trkpt lat="42.78362" lon="0.57741">
        <ele>1744</ele>
        <time>1970-01-01T00:20:39.000Z</time>
      </trkpt>
      <trkpt lat="42.78362" lon="0.57741">
        <ele>1744</ele>
        <time>1970-01-01T00:20:40.000Z</time>
      </trkpt>
      <trkpt lat="42.78362" lon="0.57741">
        <ele>1744</ele>
        <time>1970-01-01T00:20:41.000Z</time>
      </trkpt>
      <trkpt lat="42.78363" lon="0.57741">
        <ele>1744</ele>
        <time>1970-01-01T00:20:42.000Z</time>
      </trkpt>
      <trkpt lat="42.78363" lon="0.57741">
        <ele>1744</ele>
        <time>1970-01-01T00:20:43.000Z</time>
      </trkpt>
      <trkpt lat="42.78363" lon="0.57741">
        <ele>1744</ele>
        <time>1970-01-01T00:20:44.000Z</time>
      </trkpt>
      <trkpt lat="42.78363" lon="0.57741">
        <ele>1744</ele>
        <time>1970-01-01T00:20:45.000Z</time>
      </trkpt>
      <trkpt lat="42.78363" lon="0.57741">
        <ele>1744</ele>
        <time>1970-01-01T00:20:46.000Z</time>
      </trkpt>
      <trkpt lat="42.78363" lon="0.57741">
        <ele>1744</ele>
        <time>1970-01-01T00:20:47.000Z</time>
      </trkpt>
      <trkpt lat="42.78363" lon="0.57741">
        <ele>1744</ele>
        <time>1970-01-01T00:20:48.000Z</time>
      </trkpt>
      <trkpt lat="42.78363" lon="0.57741">
        <ele>1744</ele>
        <time>1970-01-01T00:20:49.000Z</time>
      </trkpt>
      <trkpt lat="42.78364" lon="0.57741">
        <ele>1744</ele>
        <time>1970-01-01T00:20:50.000Z</time>
      </trkpt>
      <trkpt lat="42.78364" lon="0.57741">
        <ele>1744</ele>
        <time>1970-01-01T00:20:51.000Z</time>
      </trkpt>
      <trkpt lat="42.78364" lon="0.57741">
        <ele>1744</ele>
        <time>1970-01-01T00:20:52.000Z</time>
      </trkpt>
      <trkpt lat="42.78364" lon="0.57741">
        <ele>1744</ele>
        <time>1970-01-01T00:20:53.000Z</time>
      </trkpt>
      <trkpt lat="42.78364" lon="0.57741">
        <ele>1744</ele>
        <time>1970-01-01T00:20:54.000Z</time>
      </trkpt>
      <trkpt lat="42.78364" lon="0.57742">
        <ele>1744</ele>
        <time>1970-01-01T00:20:55.000Z</time>
      </trkpt>
      <trkpt lat="42.78364" lon="0.57742">
        <ele>1744</ele>
        <time>1970-01-01T00:20:56.000Z</time>
      </trkpt>
      <trkpt lat="42.78364" lon="0.57742">
        <ele>1744</ele>
        <time>1970-01-01T00:20:57.000Z</time>
      </trkpt>
      <trkpt lat="42.78364" lon="0.57742">
        <ele>1744</ele>
        <time>1970-01-01T00:20:58.000Z</time>
      </trkpt>
      <trkpt lat="42.78365" lon="0.57742">
        <ele>1744</ele>
        <time>1970-01-01T00:20:59.000Z</time>
      </trkpt>
      <trkpt lat="42.78365" lon="0.57742">
        <ele>1744</ele>
        <time>1970-01-01T00:21:00.000Z</time>
      </trkpt>
      <trkpt lat="42.78365" lon="0.57742">
        <ele>1744</ele>
        <time>1970-01-01T00:21:01.000Z</time>
      </trkpt>
      <trkpt lat="42.78365" lon="0.57742">
        <ele>1744</ele>
        <time>1970-01-01T00:21:02.000Z</time>
      </trkpt>
      <trkpt lat="42.78365" lon="0.57742">
        <ele>1744</ele>
        <time>1970-01-01T00:21:03.000Z</time>
      </trkpt>
      <trkpt lat="42.78373" lon="0.57746">
        <ele>1744</ele>
        <time>1970-01-01T00:21:04.000Z</time>
      </trkpt>
      <trkpt lat="42.78374" lon="0.57746">
        <ele>1744</ele>
        <time>1970-01-01T00:21:05.000Z</time>
      </trkpt>
      <trkpt lat="42.78376" lon="0.57747">
        <ele>1744</ele>
        <time>1970-01-01T00:21:06.000Z</time>
      </trkpt>
      <trkpt lat="42.78384" lon="0.57751">
        <ele>1744</ele>
        <time>1970-01-01T00:21:07.000Z</time>
      </trkpt>
      <trkpt lat="42.78387" lon="0.57752">
        <ele>1728</ele>
        <time>1970-01-01T00:21:08.000Z</time>
      </trkpt>
      <trkpt lat="42.78395" lon="0.57755">
        <ele>1727</ele>
        <time>1970-01-01T00:21:09.000Z</time>
      </trkpt>
      <trkpt lat="42.78397" lon="0.57757">
        <ele>1725</ele>
        <time>1970-01-01T00:21:10.000Z</time>
      </trkpt>
      <trkpt lat="42.78399" lon="0.57758">
        <ele>1724</ele>
        <time>1970-01-01T00:21:11.000Z</time>
      </trkpt>
      <trkpt lat="42.78407" lon="0.57769">
        <ele>1722</ele>
        <time>1970-01-01T00:21:12.000Z</time>
      </trkpt>
      <trkpt lat="42.7841" lon="0.57774">
        <ele>1721</ele>
        <time>1970-01-01T00:21:13.000Z</time>
      </trkpt>
      <trkpt lat="42.78412" lon="0.57775">
        <ele>1720</ele>
        <time>1970-01-01T00:21:14.000Z</time>
      </trkpt>
      <trkpt lat="42.78414" lon="0.57775">
        <ele>1720</ele>
        <time>1970-01-01T00:21:15.000Z</time>
      </trkpt>
      <trkpt lat="42.78415" lon="0.57776">
        <ele>1720</ele>
        <time>1970-01-01T00:21:16.000Z</time>
      </trkpt>
      <trkpt lat="42.78423" lon="0.57778">
        <ele>1717</ele>
        <time>1970-01-01T00:21:17.000Z</time>
      </trkpt>
      <trkpt lat="42.78425" lon="0.57778">
        <ele>1715</ele>
        <time>1970-01-01T00:21:18.000Z</time>
      </trkpt>
      <trkpt lat="42.78427" lon="0.57778">
        <ele>1712</ele>
        <time>1970-01-01T00:21:19.000Z</time>
      </trkpt>
      <trkpt lat="42.78436" lon="0.5778">
        <ele>1709</ele>
        <time>1970-01-01T00:21:20.000Z</time>
      </trkpt>
      <trkpt lat="42.78438" lon="0.5778">
        <ele>1708</ele>
        <time>1970-01-01T00:21:21.000Z</time>
      </trkpt>
      <trkpt lat="42.7844" lon="0.57781">
        <ele>1706</ele>
        <time>1970-01-01T00:21:22.000Z</time>
      </trkpt>
      <trkpt lat="42.78449" lon="0.57782">
        <ele>1704</ele>
        <time>1970-01-01T00:21:23.000Z</time>
      </trkpt>
      <trkpt lat="42.78451" lon="0.57782">
        <ele>1701</ele>
        <time>1970-01-01T00:21:24.000Z</time>
      </trkpt>
      <trkpt lat="42.78454" lon="0.57781">
        <ele>1699</ele>
        <time>1970-01-01T00:21:25.000Z</time>
      </trkpt>
      <trkpt lat="42.78465" lon="0.57779">
        <ele>1697</ele>
        <time>1970-01-01T00:21:26.000Z</time>
      </trkpt>
      <trkpt lat="42.7847" lon="0.57779">
        <ele>1694</ele>
        <time>1970-01-01T00:21:27.000Z</time>
      </trkpt>
      <trkpt lat="42.78474" lon="0.57777">
        <ele>1691</ele>
        <time>1970-01-01T00:21:28.000Z</time>
      </trkpt>
      <trkpt lat="42.78477" lon="0.57775">
        <ele>1689</ele>
        <time>1970-01-01T00:21:29.000Z</time>
      </trkpt>
      <trkpt lat="42.78488" lon="0.5777">
        <ele>1687</ele>
        <time>1970-01-01T00:21:30.000Z</time>
      </trkpt>
      <trkpt lat="42.78491" lon="0.5777">
        <ele>1684</ele>
        <time>1970-01-01T00:21:31.000Z</time>
      </trkpt>
      <trkpt lat="42.78503" lon="0.57771">
        <ele>1681</ele>
        <time>1970-01-01T00:21:32.000Z</time>
      </trkpt>
      <trkpt lat="42.78507" lon="0.57772">
        <ele>1679</ele>
        <time>1970-01-01T00:21:33.000Z</time>
      </trkpt>
      <trkpt lat="42.78517" lon="0.57778">
        <ele>1677</ele>
        <time>1970-01-01T00:21:34.000Z</time>
      </trkpt>
      <trkpt lat="42.78519" lon="0.57782">
        <ele>1676</ele>
        <time>1970-01-01T00:21:35.000Z</time>
      </trkpt>
      <trkpt lat="42.78524" lon="0.57793">
        <ele>1673</ele>
        <time>1970-01-01T00:21:36.000Z</time>
      </trkpt>
      <trkpt lat="42.78525" lon="0.57797">
        <ele>1670</ele>
        <time>1970-01-01T00:21:37.000Z</time>
      </trkpt>
      <trkpt lat="42.78527" lon="0.57809">
        <ele>1669</ele>
        <time>1970-01-01T00:21:38.000Z</time>
      </trkpt>
      <trkpt lat="42.78528" lon="0.57811">
        <ele>1666</ele>
        <time>1970-01-01T00:21:39.000Z</time>
      </trkpt>
      <trkpt lat="42.7853" lon="0.57813">
        <ele>1663</ele>
        <time>1970-01-01T00:21:40.000Z</time>
      </trkpt>
      <trkpt lat="42.78536" lon="0.57822">
        <ele>1661</ele>
        <time>1970-01-01T00:21:41.000Z</time>
      </trkpt>
      <trkpt lat="42.78538" lon="0.57824">
        <ele>1658</ele>
        <time>1970-01-01T00:21:42.000Z</time>
      </trkpt>
      <trkpt lat="42.78544" lon="0.57831">
        <ele>1656</ele>
        <time>1970-01-01T00:21:43.000Z</time>
      </trkpt>
      <trkpt lat="42.78546" lon="0.57833">
        <ele>1655</ele>
        <time>1970-01-01T00:21:44.000Z</time>
      </trkpt>
      <trkpt lat="42.78548" lon="0.57835">
        <ele>1653</ele>
        <time>1970-01-01T00:21:45.000Z</time>
      </trkpt>
      <trkpt lat="42.78558" lon="0.57843">
        <ele>1650</ele>
        <time>1970-01-01T00:21:46.000Z</time>
      </trkpt>
      <trkpt lat="42.7856" lon="0.57845">
        <ele>1648</ele>
        <time>1970-01-01T00:21:47.000Z</time>
      </trkpt>
      <trkpt lat="42.78566" lon="0.57849">
        <ele>1646</ele>
        <time>1970-01-01T00:21:48.000Z</time>
      </trkpt>
      <trkpt lat="42.78567" lon="0.57848">
        <ele>1645</ele>
        <time>1970-01-01T00:21:49.000Z</time>
      </trkpt>
      <trkpt lat="42.78567" lon="0.57848">
        <ele>1645</ele>
        <time>1970-01-01T00:21:50.000Z</time>
      </trkpt>
      <trkpt lat="42.78568" lon="0.57847">
        <ele>1645</ele>
        <time>1970-01-01T00:21:51.000Z</time>
      </trkpt>
      <trkpt lat="42.78568" lon="0.57846">
        <ele>1644</ele>
        <time>1970-01-01T00:21:52.000Z</time>
      </trkpt>
      <trkpt lat="42.78569" lon="0.57846">
        <ele>1644</ele>
        <time>1970-01-01T00:21:53.000Z</time>
      </trkpt>
      <trkpt lat="42.7857" lon="0.57845">
        <ele>1644</ele>
        <time>1970-01-01T00:21:54.000Z</time>
      </trkpt>
      <trkpt lat="42.7857" lon="0.57845">
        <ele>1644</ele>
        <time>1970-01-01T00:21:55.000Z</time>
      </trkpt>
      <trkpt lat="42.78571" lon="0.57844">
        <ele>1644</ele>
        <time>1970-01-01T00:21:56.000Z</time>
      </trkpt>
      <trkpt lat="42.78571" lon="0.57844">
        <ele>1644</ele>
        <time>1970-01-01T00:21:57.000Z</time>
      </trkpt>
      <trkpt lat="42.78572" lon="0.57843">
        <ele>1644</ele>
        <time>1970-01-01T00:21:58.000Z</time>
      </trkpt>
      <trkpt lat="42.78572" lon="0.57843">
        <ele>1644</ele>
        <time>1970-01-01T00:21:59.000Z</time>
      </trkpt>
      <trkpt lat="42.78573" lon="0.57842">
        <ele>1644</ele>
        <time>1970-01-01T00:22:00.000Z</time>
      </trkpt>
      <trkpt lat="42.78573" lon="0.57842">
        <ele>1644</ele>
        <time>1970-01-01T00:22:01.000Z</time>
      </trkpt>
      <trkpt lat="42.78574" lon="0.57841">
        <ele>1644</ele>
        <time>1970-01-01T00:22:02.000Z</time>
      </trkpt>
      <trkpt lat="42.78574" lon="0.57841">
        <ele>1644</ele>
        <time>1970-01-01T00:22:03.000Z</time>
      </trkpt>
      <trkpt lat="42.78574" lon="0.57842">
        <ele>1644</ele>
        <time>1970-01-01T00:22:04.000Z</time>
      </trkpt>
      <trkpt lat="42.78574" lon="0.57842">
        <ele>1644</ele>
        <time>1970-01-01T00:22:05.000Z</time>
      </trkpt>
      <trkpt lat="42.78574" lon="0.57842">
        <ele>1644</ele>
        <time>1970-01-01T00:22:06.000Z</time>
      </trkpt>
      <trkpt lat="42.78574" lon="0.57842">
        <ele>1644</ele>
        <time>1970-01-01T00:22:07.000Z</time>
      </trkpt>
      <trkpt lat="42.78575" lon="0.57842">
        <ele>1644</ele>
        <time>1970-01-01T00:22:08.000Z</time>
      </trkpt>
      <trkpt lat="42.78575" lon="0.57843">
        <ele>1644</ele>
        <time>1970-01-01T00:22:09.000Z</time>
      </trkpt>
      <trkpt lat="42.78575" lon="0.57843">
        <ele>1644</ele>
        <time>1970-01-01T00:22:10.000Z</time>
      </trkpt>
      <trkpt lat="42.78575" lon="0.57843">
        <ele>1644</ele>
        <time>1970-01-01T00:22:11.000Z</time>
      </trkpt>
      <trkpt lat="42.78575" lon="0.57843">
        <ele>1644</ele>
        <time>1970-01-01T00:22:12.000Z</time>
      </trkpt>
      <trkpt lat="42.78575" lon="0.57844">
        <ele>1644</ele>
        <time>1970-01-01T00:22:13.000Z</time>
      </trkpt>
      <trkpt lat="42.78575" lon="0.57844">
        <ele>1644</ele>
        <time>1970-01-01T00:22:14.000Z</time>
      </trkpt>
      <trkpt lat="42.78575" lon="0.57844">
        <ele>1644</ele>
        <time>1970-01-01T00:22:15.000Z</time>
      </trkpt>
      <trkpt lat="42.78575" lon="0.57844">
        <ele>1644</ele>
        <time>1970-01-01T00:22:16.000Z</time>
      </trkpt>
      <trkpt lat="42.78575" lon="0.57845">
        <ele>1644</ele>
        <time>1970-01-01T00:22:17.000Z</time>
      </trkpt>
      <trkpt lat="42.78575" lon="0.57845">
        <ele>1644</ele>
        <time>1970-01-01T00:22:18.000Z</time>
      </trkpt>
      <trkpt lat="42.78576" lon="0.57845">
        <ele>1644</ele>
        <time>1970-01-01T00:22:19.000Z</time>
      </trkpt>
      <trkpt lat="42.78576" lon="0.57845">
        <ele>1644</ele>
        <time>1970-01-01T00:22:20.000Z</time>
      </trkpt>
      <trkpt lat="42.78576" lon="0.57846">
        <ele>1644</ele>
        <time>1970-01-01T00:22:21.000Z</time>
      </trkpt>
      <trkpt lat="42.78576" lon="0.57846">
        <ele>1644</ele>
        <time>1970-01-01T00:22:22.000Z</time>
      </trkpt>
      <trkpt lat="42.78576" lon="0.57846">
        <ele>1644</ele>
        <time>1970-01-01T00:22:23.000Z</time>
      </trkpt>
      <trkpt lat="42.78576" lon="0.57846">
        <ele>1644</ele>
        <time>1970-01-01T00:22:24.000Z</time>
      </trkpt>
      <trkpt lat="42.78576" lon="0.57846">
        <ele>1644</ele>
        <time>1970-01-01T00:22:25.000Z</time>
      </trkpt>
      <trkpt lat="42.78576" lon="0.57847">
        <ele>1644</ele>
        <time>1970-01-01T00:22:26.000Z</time>
      </trkpt>
      <trkpt lat="42.78576" lon="0.57847">
        <ele>1644</ele>
        <time>1970-01-01T00:22:27.000Z</time>
      </trkpt>
      <trkpt lat="42.78576" lon="0.57847">
        <ele>1644</ele>
        <time>1970-01-01T00:22:28.000Z</time>
      </trkpt>
      <trkpt lat="42.78576" lon="0.57847">
        <ele>1644</ele>
        <time>1970-01-01T00:22:29.000Z</time>
      </trkpt>
      <trkpt lat="42.78577" lon="0.57848">
        <ele>1644</ele>
        <time>1970-01-01T00:22:30.000Z</time>
      </trkpt>
      <trkpt lat="42.78577" lon="0.57848">
        <ele>1644</ele>
        <time>1970-01-01T00:22:31.000Z</time>
      </trkpt>
      <trkpt lat="42.78577" lon="0.57848">
        <ele>1644</ele>
        <time>1970-01-01T00:22:32.000Z</time>
      </trkpt>
      <trkpt lat="42.78577" lon="0.57848">
        <ele>1644</ele>
        <time>1970-01-01T00:22:33.000Z</time>
      </trkpt>
      <trkpt lat="42.78577" lon="0.57849">
        <ele>1644</ele>
        <time>1970-01-01T00:22:34.000Z</time>
      </trkpt>
      <trkpt lat="42.78577" lon="0.57849">
        <ele>1644</ele>
        <time>1970-01-01T00:22:35.000Z</time>
      </trkpt>
      <trkpt lat="42.78577" lon="0.57849">
        <ele>1644</ele>
        <time>1970-01-01T00:22:36.000Z</time>
      </trkpt>
      <trkpt lat="42.78577" lon="0.57849">
        <ele>1644</ele>
        <time>1970-01-01T00:22:37.000Z</time>
      </trkpt>
      <trkpt lat="42.78583" lon="0.57863">
        <ele>1636</ele>
        <time>1970-01-01T00:22:38.000Z</time>
      </trkpt>
      <trkpt lat="42.78585" lon="0.57869">
        <ele>1822</ele>
        <time>1970-01-01T00:22:39.000Z</time>
      </trkpt>
      <trkpt lat="42.78593" lon="0.57883">
        <ele>1820</ele>
        <time>1970-01-01T00:22:40.000Z</time>
      </trkpt>
      <trkpt lat="42.78595" lon="0.57887">
        <ele>1817</ele>
        <time>1970-01-01T00:22:41.000Z</time>
      </trkpt>
      <trkpt lat="42.78603" lon="0.57896">
        <ele>1813</ele>
        <time>1970-01-01T00:22:42.000Z</time>
      </trkpt>
      <trkpt lat="42.78606" lon="0.57898">
        <ele>1812</ele>
        <time>1970-01-01T00:22:43.000Z</time>
      </trkpt>
      <trkpt lat="42.78615" lon="0.57904">
        <ele>1810</ele>
        <time>1970-01-01T00:22:44.000Z</time>
      </trkpt>
      <trkpt lat="42.78618" lon="0.57904">
        <ele>1807</ele>
        <time>1970-01-01T00:22:45.000Z</time>
      </trkpt>
      <trkpt lat="42.78627" lon="0.57903">
        <ele>1805</ele>
        <time>1970-01-01T00:22:46.000Z</time>
      </trkpt>
      <trkpt lat="42.7863" lon="0.57901">
        <ele>1803</ele>
        <time>1970-01-01T00:22:47.000Z</time>
      </trkpt>
      <trkpt lat="42.7864" lon="0.57895">
        <ele>1800</ele>
        <time>1970-01-01T00:22:48.000Z</time>
      </trkpt>
      <trkpt lat="42.78643" lon="0.57895">
        <ele>1797</ele>
        <time>1970-01-01T00:22:49.000Z</time>
      </trkpt>
      <trkpt lat="42.78654" lon="0.57894">
        <ele>1794</ele>
        <time>1970-01-01T00:22:50.000Z</time>
      </trkpt>
      <trkpt lat="42.78658" lon="0.57895">
        <ele>1791</ele>
        <time>1970-01-01T00:22:51.000Z</time>
      </trkpt>
      <trkpt lat="42.7867" lon="0.57896">
        <ele>1788</ele>
        <time>1970-01-01T00:22:52.000Z</time>
      </trkpt>
      <trkpt lat="42.78675" lon="0.57896">
        <ele>1785</ele>
        <time>1970-01-01T00:22:53.000Z</time>
      </trkpt>
      <trkpt lat="42.78689" lon="0.57894">
        <ele>1782</ele>
        <time>1970-01-01T00:22:54.000Z</time>
      </trkpt>
      <trkpt lat="42.78694" lon="0.57894">
        <ele>1779</ele>
        <time>1970-01-01T00:22:55.000Z</time>
      </trkpt>
      <trkpt lat="42.78707" lon="0.5789">
        <ele>1777</ele>
        <time>1970-01-01T00:22:56.000Z</time>
      </trkpt>
      <trkpt lat="42.78711" lon="0.57889">
        <ele>1775</ele>
        <time>1970-01-01T00:22:57.000Z</time>
      </trkpt>
      <trkpt lat="42.78723" lon="0.57884">
        <ele>1771</ele>
        <time>1970-01-01T00:22:58.000Z</time>
      </trkpt>
      <trkpt lat="42.78727" lon="0.57883">
        <ele>1768</ele>
        <time>1970-01-01T00:22:59.000Z</time>
      </trkpt>
      <trkpt lat="42.78736" lon="0.57879">
        <ele>1767</ele>
        <time>1970-01-01T00:23:00.000Z</time>
      </trkpt>
      <trkpt lat="42.78737" lon="0.57878">
        <ele>1766</ele>
        <time>1970-01-01T00:23:01.000Z</time>
      </trkpt>
      <trkpt lat="42.78738" lon="0.57877">
        <ele>1766</ele>
        <time>1970-01-01T00:23:02.000Z</time>
      </trkpt>
      <trkpt lat="42.78739" lon="0.57876">
        <ele>1764</ele>
        <time>1970-01-01T00:23:03.000Z</time>
      </trkpt>
      <trkpt lat="42.7874" lon="0.57875">
        <ele>1763</ele>
        <time>1970-01-01T00:23:04.000Z</time>
      </trkpt>
      <trkpt lat="42.78747" lon="0.57862">
        <ele>1762</ele>
        <time>1970-01-01T00:23:05.000Z</time>
      </trkpt>
      <trkpt lat="42.78748" lon="0.57853">
        <ele>1762</ele>
        <time>1970-01-01T00:23:06.000Z</time>
      </trkpt>
      <trkpt lat="42.78751" lon="0.57835">
        <ele>1759</ele>
        <time>1970-01-01T00:23:07.000Z</time>
      </trkpt>
      <trkpt lat="42.78748" lon="0.57817">
        <ele>1756</ele>
        <time>1970-01-01T00:23:08.000Z</time>
      </trkpt>
      <trkpt lat="42.78745" lon="0.57801">
        <ele>1756</ele>
        <time>1970-01-01T00:23:09.000Z</time>
      </trkpt>
      <trkpt lat="42.78742" lon="0.57786">
        <ele>1754</ele>
        <time>1970-01-01T00:23:10.000Z</time>
      </trkpt>
      <trkpt lat="42.78741" lon="0.57769">
        <ele>1750</ele>
        <time>1970-01-01T00:23:11.000Z</time>
      </trkpt>
      <trkpt lat="42.78741" lon="0.57752">
        <ele>1748</ele>
        <time>1970-01-01T00:23:12.000Z</time>
      </trkpt>
      <trkpt lat="42.78742" lon="0.57735">
        <ele>1749</ele>
        <time>1970-01-01T00:23:13.000Z</time>
      </trkpt>
      <trkpt lat="42.78741" lon="0.57721">
        <ele>1748</ele>
        <time>1970-01-01T00:23:14.000Z</time>
      </trkpt>
      <trkpt lat="42.78742" lon="0.57715">
        <ele>1746</ele>
        <time>1970-01-01T00:23:15.000Z</time>
      </trkpt>
      <trkpt lat="42.78742" lon="0.57709">
        <ele>1745</ele>
        <time>1970-01-01T00:23:16.000Z</time>
      </trkpt>
      <trkpt lat="42.78745" lon="0.57693">
        <ele>1745</ele>
        <time>1970-01-01T00:23:17.000Z</time>
      </trkpt>
      <trkpt lat="42.78747" lon="0.57689">
        <ele>1745</ele>
        <time>1970-01-01T00:23:18.000Z</time>
      </trkpt>
      <trkpt lat="42.78753" lon="0.5768">
        <ele>1745</ele>
        <time>1970-01-01T00:23:19.000Z</time>
      </trkpt>
      <trkpt lat="42.78753" lon="0.57678">
        <ele>1744</ele>
        <time>1970-01-01T00:23:20.000Z</time>
      </trkpt>
      <trkpt lat="42.78753" lon="0.57677">
        <ele>1745</ele>
        <time>1970-01-01T00:23:21.000Z</time>
      </trkpt>
      <trkpt lat="42.78753" lon="0.57675">
        <ele>1745</ele>
        <time>1970-01-01T00:23:22.000Z</time>
      </trkpt>
      <trkpt lat="42.78754" lon="0.57673">
        <ele>1745</ele>
        <time>1970-01-01T00:23:23.000Z</time>
      </trkpt>
      <trkpt lat="42.78754" lon="0.57663">
        <ele>1745</ele>
        <time>1970-01-01T00:23:24.000Z</time>
      </trkpt>
      <trkpt lat="42.78753" lon="0.57661">
        <ele>1745</ele>
        <time>1970-01-01T00:23:25.000Z</time>
      </trkpt>
      <trkpt lat="42.78752" lon="0.57659">
        <ele>1745</ele>
        <time>1970-01-01T00:23:26.000Z</time>
      </trkpt>
      <trkpt lat="42.78752" lon="0.57657">
        <ele>1745</ele>
        <time>1970-01-01T00:23:27.000Z</time>
      </trkpt>
      <trkpt lat="42.78751" lon="0.57655">
        <ele>1745</ele>
        <time>1970-01-01T00:23:28.000Z</time>
      </trkpt>
      <trkpt lat="42.7875" lon="0.57653">
        <ele>1745</ele>
        <time>1970-01-01T00:23:29.000Z</time>
      </trkpt>
      <trkpt lat="42.7875" lon="0.57653">
        <ele>1745</ele>
        <time>1970-01-01T00:23:30.000Z</time>
      </trkpt>
      <trkpt lat="42.7875" lon="0.57653">
        <ele>1745</ele>
        <time>1970-01-01T00:23:31.000Z</time>
      </trkpt>
      <trkpt lat="42.7875" lon="0.57652">
        <ele>1745</ele>
        <time>1970-01-01T00:23:32.000Z</time>
      </trkpt>
      <trkpt lat="42.78749" lon="0.57652">
        <ele>1745</ele>
        <time>1970-01-01T00:23:33.000Z</time>
      </trkpt>
      <trkpt lat="42.78749" lon="0.57652">
        <ele>1745</ele>
        <time>1970-01-01T00:23:34.000Z</time>
      </trkpt>
      <trkpt lat="42.78749" lon="0.57651">
        <ele>1745</ele>
        <time>1970-01-01T00:23:35.000Z</time>
      </trkpt>
      <trkpt lat="42.78749" lon="0.57651">
        <ele>1745</ele>
        <time>1970-01-01T00:23:36.000Z</time>
      </trkpt>
      <trkpt lat="42.78749" lon="0.57651">
        <ele>1745</ele>
        <time>1970-01-01T00:23:37.000Z</time>
      </trkpt>
      <trkpt lat="42.78749" lon="0.5765">
        <ele>1745</ele>
        <time>1970-01-01T00:23:38.000Z</time>
      </trkpt>
      <trkpt lat="42.78749" lon="0.5765">
        <ele>1745</ele>
        <time>1970-01-01T00:23:39.000Z</time>
      </trkpt>
      <trkpt lat="42.78749" lon="0.57649">
        <ele>1745</ele>
        <time>1970-01-01T00:23:40.000Z</time>
      </trkpt>
      <trkpt lat="42.78749" lon="0.57649">
        <ele>1745</ele>
        <time>1970-01-01T00:23:41.000Z</time>
      </trkpt>
      <trkpt lat="42.78748" lon="0.57649">
        <ele>1745</ele>
        <time>1970-01-01T00:23:42.000Z</time>
      </trkpt>
      <trkpt lat="42.78748" lon="0.57648">
        <ele>1745</ele>
        <time>1970-01-01T00:23:43.000Z</time>
      </trkpt>
      <trkpt lat="42.78748" lon="0.57648">
        <ele>1745</ele>
        <time>1970-01-01T00:23:44.000Z</time>
      </trkpt>
      <trkpt lat="42.78748" lon="0.57648">
        <ele>1745</ele>
        <time>1970-01-01T00:23:45.000Z</time>
      </trkpt>
      <trkpt lat="42.78748" lon="0.57647">
        <ele>1745</ele>
        <time>1970-01-01T00:23:46.000Z</time>
      </trkpt>
      <trkpt lat="42.78748" lon="0.57647">
        <ele>1745</ele>
        <time>1970-01-01T00:23:47.000Z</time>
      </trkpt>
      <trkpt lat="42.78746" lon="0.57641">
        <ele>1744</ele>
        <time>1970-01-01T00:23:48.000Z</time>
      </trkpt>
      <trkpt lat="42.78746" lon="0.57641">
        <ele>1744</ele>
        <time>1970-01-01T00:23:49.000Z</time>
      </trkpt>
      <trkpt lat="42.78747" lon="0.57641">
        <ele>1744</ele>
        <time>1970-01-01T00:23:50.000Z</time>
      </trkpt>
      <trkpt lat="42.78747" lon="0.57642">
        <ele>1744</ele>
        <time>1970-01-01T00:23:51.000Z</time>
      </trkpt>
      <trkpt lat="42.78747" lon="0.57642">
        <ele>1744</ele>
        <time>1970-01-01T00:23:52.000Z</time>
      </trkpt>
      <trkpt lat="42.78747" lon="0.57642">
        <ele>1744</ele>
        <time>1970-01-01T00:23:53.000Z</time>
      </trkpt>
      <trkpt lat="42.78747" lon="0.57643">
        <ele>1744</ele>
        <time>1970-01-01T00:23:54.000Z</time>
      </trkpt>
      <trkpt lat="42.78748" lon="0.57643">
        <ele>1744</ele>
        <time>1970-01-01T00:23:55.000Z</time>
      </trkpt>
      <trkpt lat="42.78748" lon="0.57644">
        <ele>1744</ele>
        <time>1970-01-01T00:23:56.000Z</time>
      </trkpt>
      <trkpt lat="42.78748" lon="0.57644">
        <ele>1744</ele>
        <time>1970-01-01T00:23:57.000Z</time>
      </trkpt>
      <trkpt lat="42.78748" lon="0.57644">
        <ele>1745</ele>
        <time>1970-01-01T00:23:58.000Z</time>
      </trkpt>
      <trkpt lat="42.78748" lon="0.57645">
        <ele>1745</ele>
        <time>1970-01-01T00:23:59.000Z</time>
      </trkpt>
      <trkpt lat="42.78749" lon="0.57645">
        <ele>1745</ele>
        <time>1970-01-01T00:24:00.000Z</time>
      </trkpt>
      <trkpt lat="42.78749" lon="0.57645">
        <ele>1745</ele>
        <time>1970-01-01T00:24:01.000Z</time>
      </trkpt>
      <trkpt lat="42.78749" lon="0.57646">
        <ele>1745</ele>
        <time>1970-01-01T00:24:02.000Z</time>
      </trkpt>
      <trkpt lat="42.78749" lon="0.57646">
        <ele>1745</ele>
        <time>1970-01-01T00:24:03.000Z</time>
      </trkpt>
      <trkpt lat="42.7875" lon="0.57646">
        <ele>1745</ele>
        <time>1970-01-01T00:24:04.000Z</time>
      </trkpt>
      <trkpt lat="42.7875" lon="0.57647">
        <ele>1745</ele>
        <time>1970-01-01T00:24:05.000Z</time>
      </trkpt>
      <trkpt lat="42.7875" lon="0.57647">
        <ele>1745</ele>
        <time>1970-01-01T00:24:06.000Z</time>
      </trkpt>
      <trkpt lat="42.7875" lon="0.57648">
        <ele>1745</ele>
        <time>1970-01-01T00:24:07.000Z</time>
      </trkpt>
      <trkpt lat="42.7875" lon="0.57648">
        <ele>1744</ele>
        <time>1970-01-01T00:24:08.000Z</time>
      </trkpt>
      <trkpt lat="42.78751" lon="0.57648">
        <ele>1744</ele>
        <time>1970-01-01T00:24:09.000Z</time>
      </trkpt>
      <trkpt lat="42.78751" lon="0.57649">
        <ele>1744</ele>
        <time>1970-01-01T00:24:10.000Z</time>
      </trkpt>
      <trkpt lat="42.78751" lon="0.57649">
        <ele>1744</ele>
        <time>1970-01-01T00:24:11.000Z</time>
      </trkpt>
      <trkpt lat="42.78751" lon="0.57649">
        <ele>1744</ele>
        <time>1970-01-01T00:24:12.000Z</time>
      </trkpt>
      <trkpt lat="42.78751" lon="0.5765">
        <ele>1744</ele>
        <time>1970-01-01T00:24:13.000Z</time>
      </trkpt>
      <trkpt lat="42.78752" lon="0.5765">
        <ele>1744</ele>
        <time>1970-01-01T00:24:14.000Z</time>
      </trkpt>
      <trkpt lat="42.78752" lon="0.5765">
        <ele>1744</ele>
        <time>1970-01-01T00:24:15.000Z</time>
      </trkpt>
      <trkpt lat="42.78752" lon="0.57651">
        <ele>1744</ele>
        <time>1970-01-01T00:24:16.000Z</time>
      </trkpt>
      <trkpt lat="42.78752" lon="0.57651">
        <ele>1744</ele>
        <time>1970-01-01T00:24:17.000Z</time>
      </trkpt>
      <trkpt lat="42.78754" lon="0.57653">
        <ele>1739</ele>
        <time>1970-01-01T00:24:18.000Z</time>
      </trkpt>
      <trkpt lat="42.78755" lon="0.57655">
        <ele>1739</ele>
        <time>1970-01-01T00:24:19.000Z</time>
      </trkpt>
      <trkpt lat="42.78756" lon="0.57658">
        <ele>1739</ele>
        <time>1970-01-01T00:24:20.000Z</time>
      </trkpt>
      <trkpt lat="42.78762" lon="0.57667">
        <ele>1739</ele>
        <time>1970-01-01T00:24:21.000Z</time>
      </trkpt>
      <trkpt lat="42.78764" lon="0.57669">
        <ele>1739</ele>
        <time>1970-01-01T00:24:22.000Z</time>
      </trkpt>
      <trkpt lat="42.78773" lon="0.57677">
        <ele>1732</ele>
        <time>1970-01-01T00:24:23.000Z</time>
      </trkpt>
      <trkpt lat="42.78778" lon="0.5768">
        <ele>1732</ele>
        <time>1970-01-01T00:24:24.000Z</time>
      </trkpt>
      <trkpt lat="42.78787" lon="0.57686">
        <ele>1732</ele>
        <time>1970-01-01T00:24:25.000Z</time>
      </trkpt>
      <trkpt lat="42.7879" lon="0.57689">
        <ele>1732</ele>
        <time>1970-01-01T00:24:26.000Z</time>
      </trkpt>
      <trkpt lat="42.78793" lon="0.57692">
        <ele>1732</ele>
        <time>1970-01-01T00:24:27.000Z</time>
      </trkpt>
      <trkpt lat="42.788" lon="0.577">
        <ele>1728</ele>
        <time>1970-01-01T00:24:28.000Z</time>
      </trkpt>
      <trkpt lat="42.78801" lon="0.57702">
        <ele>1727</ele>
        <time>1970-01-01T00:24:29.000Z</time>
      </trkpt>
      <trkpt lat="42.78802" lon="0.57704">
        <ele>1726</ele>
        <time>1970-01-01T00:24:30.000Z</time>
      </trkpt>
      <trkpt lat="42.78803" lon="0.57706">
        <ele>1726</ele>
        <time>1970-01-01T00:24:31.000Z</time>
      </trkpt>
      <trkpt lat="42.78803" lon="0.57708">
        <ele>1726</ele>
        <time>1970-01-01T00:24:32.000Z</time>
      </trkpt>
      <trkpt lat="42.78804" lon="0.5771">
        <ele>1725</ele>
        <time>1970-01-01T00:24:33.000Z</time>
      </trkpt>
      <trkpt lat="42.78805" lon="0.57712">
        <ele>1725</ele>
        <time>1970-01-01T00:24:34.000Z</time>
      </trkpt>
      <trkpt lat="42.78806" lon="0.57714">
        <ele>1722</ele>
        <time>1970-01-01T00:24:35.000Z</time>
      </trkpt>
      <trkpt lat="42.78807" lon="0.57717">
        <ele>1722</ele>
        <time>1970-01-01T00:24:36.000Z</time>
      </trkpt>
      <trkpt lat="42.7881" lon="0.57725">
        <ele>1722</ele>
        <time>1970-01-01T00:24:37.000Z</time>
      </trkpt>
      <trkpt lat="42.78811" lon="0.57728">
        <ele>1720</ele>
        <time>1970-01-01T00:24:38.000Z</time>
      </trkpt>
      <trkpt lat="42.78812" lon="0.5773">
        <ele>1719</ele>
        <time>1970-01-01T00:24:39.000Z</time>
      </trkpt>
      <trkpt lat="42.78816" lon="0.57738">
        <ele>1717</ele>
        <time>1970-01-01T00:24:40.000Z</time>
      </trkpt>
      <trkpt lat="42.78818" lon="0.57741">
        <ele>1716</ele>
        <time>1970-01-01T00:24:41.000Z</time>
      </trkpt>
      <trkpt lat="42.78825" lon="0.5775">
        <ele>1716</ele>
        <time>1970-01-01T00:24:42.000Z</time>
      </trkpt>
      <trkpt lat="42.7883" lon="0.57754">
        <ele>1716</ele>
        <time>1970-01-01T00:24:43.000Z</time>
      </trkpt>
      <trkpt lat="42.78829" lon="0.57752">
        <ele>1716</ele>
        <time>1970-01-01T00:24:44.000Z</time>
      </trkpt>
      <trkpt lat="42.78829" lon="0.57751">
        <ele>1716</ele>
        <time>1970-01-01T00:24:45.000Z</time>
      </trkpt>
      <trkpt lat="42.78829" lon="0.57749">
        <ele>1716</ele>
        <time>1970-01-01T00:24:46.000Z</time>
      </trkpt>
      <trkpt lat="42.78829" lon="0.57747">
        <ele>1716</ele>
        <time>1970-01-01T00:24:47.000Z</time>
      </trkpt>
      <trkpt lat="42.78828" lon="0.5774">
        <ele>1716</ele>
        <time>1970-01-01T00:24:48.000Z</time>
      </trkpt>
      <trkpt lat="42.78828" lon="0.5774">
        <ele>1716</ele>
        <time>1970-01-01T00:24:49.000Z</time>
      </trkpt>
      <trkpt lat="42.78828" lon="0.57741">
        <ele>1716</ele>
        <time>1970-01-01T00:24:50.000Z</time>
      </trkpt>
      <trkpt lat="42.78828" lon="0.57741">
        <ele>1716</ele>
        <time>1970-01-01T00:24:51.000Z</time>
      </trkpt>
      <trkpt lat="42.78828" lon="0.57741">
        <ele>1716</ele>
        <time>1970-01-01T00:24:52.000Z</time>
      </trkpt>
      <trkpt lat="42.78828" lon="0.57742">
        <ele>1716</ele>
        <time>1970-01-01T00:24:53.000Z</time>
      </trkpt>
      <trkpt lat="42.78828" lon="0.57742">
        <ele>1716</ele>
        <time>1970-01-01T00:24:54.000Z</time>
      </trkpt>
      <trkpt lat="42.78828" lon="0.57742">
        <ele>1716</ele>
        <time>1970-01-01T00:24:55.000Z</time>
      </trkpt>
      <trkpt lat="42.78828" lon="0.57742">
        <ele>1716</ele>
        <time>1970-01-01T00:24:56.000Z</time>
      </trkpt>
      <trkpt lat="42.78828" lon="0.57743">
        <ele>1716</ele>
        <time>1970-01-01T00:24:57.000Z</time>
      </trkpt>
      <trkpt lat="42.78828" lon="0.57743">
        <ele>1716</ele>
        <time>1970-01-01T00:24:58.000Z</time>
      </trkpt>
      <trkpt lat="42.78828" lon="0.57743">
        <ele>1716</ele>
        <time>1970-01-01T00:24:59.000Z</time>
      </trkpt>
      <trkpt lat="42.78828" lon="0.57743">
        <ele>1716</ele>
        <time>1970-01-01T00:25:00.000Z</time>
      </trkpt>
      <trkpt lat="42.78828" lon="0.57744">
        <ele>1716</ele>
        <time>1970-01-01T00:25:01.000Z</time>
      </trkpt>
      <trkpt lat="42.78828" lon="0.57744">
        <ele>1716</ele>
        <time>1970-01-01T00:25:02.000Z</time>
      </trkpt>
      <trkpt lat="42.78828" lon="0.57744">
        <ele>1716</ele>
        <time>1970-01-01T00:25:03.000Z</time>
      </trkpt>
      <trkpt lat="42.78828" lon="0.57745">
        <ele>1716</ele>
        <time>1970-01-01T00:25:04.000Z</time>
      </trkpt>
      <trkpt lat="42.78828" lon="0.57745">
        <ele>1716</ele>
        <time>1970-01-01T00:25:05.000Z</time>
      </trkpt>
      <trkpt lat="42.78828" lon="0.57745">
        <ele>1716</ele>
        <time>1970-01-01T00:25:06.000Z</time>
      </trkpt>
      <trkpt lat="42.78827" lon="0.57745">
        <ele>1716</ele>
        <time>1970-01-01T00:25:07.000Z</time>
      </trkpt>
      <trkpt lat="42.78827" lon="0.57746">
        <ele>1717</ele>
        <time>1970-01-01T00:25:08.000Z</time>
      </trkpt>
      <trkpt lat="42.78827" lon="0.57746">
        <ele>1717</ele>
        <time>1970-01-01T00:25:09.000Z</time>
      </trkpt>
      <trkpt lat="42.78827" lon="0.57746">
        <ele>1717</ele>
        <time>1970-01-01T00:25:10.000Z</time>
      </trkpt>
      <trkpt lat="42.78827" lon="0.57747">
        <ele>1717</ele>
        <time>1970-01-01T00:25:11.000Z</time>
      </trkpt>
      <trkpt lat="42.78827" lon="0.57747">
        <ele>1717</ele>
        <time>1970-01-01T00:25:12.000Z</time>
      </trkpt>
      <trkpt lat="42.78827" lon="0.57747">
        <ele>1717</ele>
        <time>1970-01-01T00:25:13.000Z</time>
      </trkpt>
      <trkpt lat="42.78827" lon="0.57747">
        <ele>1717</ele>
        <time>1970-01-01T00:25:14.000Z</time>
      </trkpt>
      <trkpt lat="42.78827" lon="0.57748">
        <ele>1717</ele>
        <time>1970-01-01T00:25:15.000Z</time>
      </trkpt>
      <trkpt lat="42.78827" lon="0.57748">
        <ele>1717</ele>
        <time>1970-01-01T00:25:16.000Z</time>
      </trkpt>
      <trkpt lat="42.78827" lon="0.57748">
        <ele>1717</ele>
        <time>1970-01-01T00:25:17.000Z</time>
      </trkpt>
      <trkpt lat="42.78827" lon="0.57748">
        <ele>1714</ele>
        <time>1970-01-01T00:25:18.000Z</time>
      </trkpt>
      <trkpt lat="42.78825" lon="0.57759">
        <ele>1714</ele>
        <time>1970-01-01T00:25:19.000Z</time>
      </trkpt>
      <trkpt lat="42.78824" lon="0.57761">
        <ele>1714</ele>
        <time>1970-01-01T00:25:20.000Z</time>
      </trkpt>
      <trkpt lat="42.78822" lon="0.57764">
        <ele>1714</ele>
        <time>1970-01-01T00:25:21.000Z</time>
      </trkpt>
      <trkpt lat="42.78819" lon="0.57773">
        <ele>1714</ele>
        <time>1970-01-01T00:25:22.000Z</time>
      </trkpt>
      <trkpt lat="42.78819" lon="0.57775">
        <ele>1711</ele>
        <time>1970-01-01T00:25:23.000Z</time>
      </trkpt>
      <trkpt lat="42.7882" lon="0.57777">
        <ele>1711</ele>
        <time>1970-01-01T00:25:24.000Z</time>
      </trkpt>
      <trkpt lat="42.78823" lon="0.57785">
        <ele>1711</ele>
        <time>1970-01-01T00:25:25.000Z</time>
      </trkpt>
      <trkpt lat="42.78825" lon="0.57785">
        <ele>1711</ele>
        <time>1970-01-01T00:25:26.000Z</time>
      </trkpt>
      <trkpt lat="42.78827" lon="0.57786">
        <ele>1711</ele>
        <time>1970-01-01T00:25:27.000Z</time>
      </trkpt>
      <trkpt lat="42.78838" lon="0.57788">
        <ele>1705</ele>
        <time>1970-01-01T00:25:28.000Z</time>
      </trkpt>
      <trkpt lat="42.7884" lon="0.57789">
        <ele>1702</ele>
        <time>1970-01-01T00:25:29.000Z</time>
      </trkpt>
      <trkpt lat="42.78849" lon="0.57792">
        <ele>1699</ele>
        <time>1970-01-01T00:25:30.000Z</time>
      </trkpt>
      <trkpt lat="42.78852" lon="0.57793">
        <ele>1696</ele>
        <time>1970-01-01T00:25:31.000Z</time>
      </trkpt>
      <trkpt lat="42.78861" lon="0.57795">
        <ele>1694</ele>
        <time>1970-01-01T00:25:32.000Z</time>
      </trkpt>
      <trkpt lat="42.78864" lon="0.57795">
        <ele>1692</ele>
        <time>1970-01-01T00:25:33.000Z</time>
      </trkpt>
      <trkpt lat="42.78874" lon="0.57796">
        <ele>1691</ele>
        <time>1970-01-01T00:25:34.000Z</time>
      </trkpt>
      <trkpt lat="42.78877" lon="0.57797">
        <ele>1689</ele>
        <time>1970-01-01T00:25:35.000Z</time>
      </trkpt>
      <trkpt lat="42.78881" lon="0.57797">
        <ele>1690</ele>
        <time>1970-01-01T00:25:36.000Z</time>
      </trkpt>
      <trkpt lat="42.78882" lon="0.57799">
        <ele>1689</ele>
        <time>1970-01-01T00:25:37.000Z</time>
      </trkpt>
      <trkpt lat="42.78882" lon="0.57801">
        <ele>1687</ele>
        <time>1970-01-01T00:25:38.000Z</time>
      </trkpt>
      <trkpt lat="42.78883" lon="0.57803">
        <ele>1686</ele>
        <time>1970-01-01T00:25:39.000Z</time>
      </trkpt>
      <trkpt lat="42.78884" lon="0.57804">
        <ele>1684</ele>
        <time>1970-01-01T00:25:40.000Z</time>
      </trkpt>
      <trkpt lat="42.78891" lon="0.57814">
        <ele>1683</ele>
        <time>1970-01-01T00:25:41.000Z</time>
      </trkpt>
      <trkpt lat="42.78893" lon="0.57816">
        <ele>1682</ele>
        <time>1970-01-01T00:25:42.000Z</time>
      </trkpt>
      <trkpt lat="42.78901" lon="0.57823">
        <ele>1680</ele>
        <time>1970-01-01T00:25:43.000Z</time>
      </trkpt>
      <trkpt lat="42.78903" lon="0.57825">
        <ele>1679</ele>
        <time>1970-01-01T00:25:44.000Z</time>
      </trkpt>
      <trkpt lat="42.7891" lon="0.5783">
        <ele>1679</ele>
        <time>1970-01-01T00:25:45.000Z</time>
      </trkpt>
      <trkpt lat="42.78912" lon="0.57831">
        <ele>1679</ele>
        <time>1970-01-01T00:25:46.000Z</time>
      </trkpt>
      <trkpt lat="42.78913" lon="0.57832">
        <ele>1679</ele>
        <time>1970-01-01T00:25:47.000Z</time>
      </trkpt>
      <trkpt lat="42.78919" lon="0.57837">
        <ele>1679</ele>
        <time>1970-01-01T00:25:48.000Z</time>
      </trkpt>
      <trkpt lat="42.78919" lon="0.57837">
        <ele>1679</ele>
        <time>1970-01-01T00:25:49.000Z</time>
      </trkpt>
      <trkpt lat="42.78919" lon="0.57838">
        <ele>1679</ele>
        <time>1970-01-01T00:25:50.000Z</time>
      </trkpt>
      <trkpt lat="42.7892" lon="0.57839">
        <ele>1679</ele>
        <time>1970-01-01T00:25:51.000Z</time>
      </trkpt>
      <trkpt lat="42.7892" lon="0.57839">
        <ele>1679</ele>
        <time>1970-01-01T00:25:52.000Z</time>
      </trkpt>
      <trkpt lat="42.78921" lon="0.5784">
        <ele>1679</ele>
        <time>1970-01-01T00:25:53.000Z</time>
      </trkpt>
      <trkpt lat="42.78921" lon="0.5784">
        <ele>1679</ele>
        <time>1970-01-01T00:25:54.000Z</time>
      </trkpt>
      <trkpt lat="42.78922" lon="0.57841">
        <ele>1679</ele>
        <time>1970-01-01T00:25:55.000Z</time>
      </trkpt>
      <trkpt lat="42.78922" lon="0.57842">
        <ele>1679</ele>
        <time>1970-01-01T00:25:56.000Z</time>
      </trkpt>
      <trkpt lat="42.78923" lon="0.57842">
        <ele>1679</ele>
        <time>1970-01-01T00:25:57.000Z</time>
      </trkpt>
      <trkpt lat="42.78923" lon="0.57843">
        <ele>1679</ele>
        <time>1970-01-01T00:25:58.000Z</time>
      </trkpt>
      <trkpt lat="42.78924" lon="0.57844">
        <ele>1679</ele>
        <time>1970-01-01T00:25:59.000Z</time>
      </trkpt>
      <trkpt lat="42.78924" lon="0.57844">
        <ele>1679</ele>
        <time>1970-01-01T00:26:00.000Z</time>
      </trkpt>
      <trkpt lat="42.78925" lon="0.57845">
        <ele>1679</ele>
        <time>1970-01-01T00:26:01.000Z</time>
      </trkpt>
      <trkpt lat="42.78925" lon="0.57846">
        <ele>1679</ele>
        <time>1970-01-01T00:26:02.000Z</time>
      </trkpt>
      <trkpt lat="42.78925" lon="0.57845">
        <ele>1679</ele>
        <time>1970-01-01T00:26:03.000Z</time>
      </trkpt>
      <trkpt lat="42.78925" lon="0.57845">
        <ele>1679</ele>
        <time>1970-01-01T00:26:04.000Z</time>
      </trkpt>
      <trkpt lat="42.78925" lon="0.57844">
        <ele>1679</ele>
        <time>1970-01-01T00:26:05.000Z</time>
      </trkpt>
      <trkpt lat="42.78925" lon="0.57844">
        <ele>1679</ele>
        <time>1970-01-01T00:26:06.000Z</time>
      </trkpt>
      <trkpt lat="42.78924" lon="0.57843">
        <ele>1679</ele>
        <time>1970-01-01T00:26:07.000Z</time>
      </trkpt>
      <trkpt lat="42.78924" lon="0.57843">
        <ele>1676</ele>
        <time>1970-01-01T00:26:08.000Z</time>
      </trkpt>
      <trkpt lat="42.78924" lon="0.57842">
        <ele>1676</ele>
        <time>1970-01-01T00:26:09.000Z</time>
      </trkpt>
      <trkpt lat="42.78924" lon="0.57842">
        <ele>1676</ele>
        <time>1970-01-01T00:26:10.000Z</time>
      </trkpt>
      <trkpt lat="42.78924" lon="0.57841">
        <ele>1676</ele>
        <time>1970-01-01T00:26:11.000Z</time>
      </trkpt>
      <trkpt lat="42.78924" lon="0.57841">
        <ele>1676</ele>
        <time>1970-01-01T00:26:12.000Z</time>
      </trkpt>
      <trkpt lat="42.78924" lon="0.5784">
        <ele>1678</ele>
        <time>1970-01-01T00:26:13.000Z</time>
      </trkpt>
      <trkpt lat="42.78923" lon="0.5784">
        <ele>1678</ele>
        <time>1970-01-01T00:26:14.000Z</time>
      </trkpt>
      <trkpt lat="42.78923" lon="0.57839">
        <ele>1678</ele>
        <time>1970-01-01T00:26:15.000Z</time>
      </trkpt>
      <trkpt lat="42.78923" lon="0.57839">
        <ele>1678</ele>
        <time>1970-01-01T00:26:16.000Z</time>
      </trkpt>
      <trkpt lat="42.78923" lon="0.57838">
        <ele>1678</ele>
        <time>1970-01-01T00:26:17.000Z</time>
      </trkpt>
      <trkpt lat="42.78923" lon="0.57838">
        <ele>1678</ele>
        <time>1970-01-01T00:26:18.000Z</time>
      </trkpt>
      <trkpt lat="42.78921" lon="0.5783">
        <ele>1678</ele>
        <time>1970-01-01T00:26:19.000Z</time>
      </trkpt>
      <trkpt lat="42.78921" lon="0.57831">
        <ele>1678</ele>
        <time>1970-01-01T00:26:20.000Z</time>
      </trkpt>
      <trkpt lat="42.78921" lon="0.57831">
        <ele>1678</ele>
        <time>1970-01-01T00:26:21.000Z</time>
      </trkpt>
      <trkpt lat="42.78922" lon="0.57831">
        <ele>1678</ele>
        <time>1970-01-01T00:26:22.000Z</time>
      </trkpt>
      <trkpt lat="42.78922" lon="0.57831">
        <ele>1678</ele>
        <time>1970-01-01T00:26:23.000Z</time>
      </trkpt>
      <trkpt lat="42.78922" lon="0.57832">
        <ele>1678</ele>
        <time>1970-01-01T00:26:24.000Z</time>
      </trkpt>
      <trkpt lat="42.78922" lon="0.57832">
        <ele>1678</ele>
        <time>1970-01-01T00:26:25.000Z</time>
      </trkpt>
      <trkpt lat="42.78923" lon="0.57832">
        <ele>1678</ele>
        <time>1970-01-01T00:26:26.000Z</time>
      </trkpt>
      <trkpt lat="42.78923" lon="0.57832">
        <ele>1678</ele>
        <time>1970-01-01T00:26:27.000Z</time>
      </trkpt>
      <trkpt lat="42.78923" lon="0.57833">
        <ele>1678</ele>
        <time>1970-01-01T00:26:28.000Z</time>
      </trkpt>
      <trkpt lat="42.78924" lon="0.57833">
        <ele>1678</ele>
        <time>1970-01-01T00:26:29.000Z</time>
      </trkpt>
      <trkpt lat="42.78924" lon="0.57833">
        <ele>1678</ele>
        <time>1970-01-01T00:26:30.000Z</time>
      </trkpt>
      <trkpt lat="42.78924" lon="0.57833">
        <ele>1678</ele>
        <time>1970-01-01T00:26:31.000Z</time>
      </trkpt>
      <trkpt lat="42.78924" lon="0.57834">
        <ele>1678</ele>
        <time>1970-01-01T00:26:32.000Z</time>
      </trkpt>
      <trkpt lat="42.78925" lon="0.57834">
        <ele>1678</ele>
        <time>1970-01-01T00:26:33.000Z</time>
      </trkpt>
      <trkpt lat="42.78925" lon="0.57834">
        <ele>1678</ele>
        <time>1970-01-01T00:26:34.000Z</time>
      </trkpt>
      <trkpt lat="42.78925" lon="0.57834">
        <ele>1678</ele>
        <time>1970-01-01T00:26:35.000Z</time>
      </trkpt>
      <trkpt lat="42.78933" lon="0.57847">
        <ele>1678</ele>
        <time>1970-01-01T00:26:36.000Z</time>
      </trkpt>
      <trkpt lat="42.78936" lon="0.57856">
        <ele>1678</ele>
        <time>1970-01-01T00:26:37.000Z</time>
      </trkpt>
      <trkpt lat="42.78942" lon="0.57873">
        <ele>1672</ele>
        <time>1970-01-01T00:26:38.000Z</time>
      </trkpt>
      <trkpt lat="42.78945" lon="0.57877">
        <ele>1667</ele>
        <time>1970-01-01T00:26:39.000Z</time>
      </trkpt>
      <trkpt lat="42.78948" lon="0.57881">
        <ele>1664</ele>
        <time>1970-01-01T00:26:40.000Z</time>
      </trkpt>
      <trkpt lat="42.78958" lon="0.57891">
        <ele>1661</ele>
        <time>1970-01-01T00:26:41.000Z</time>
      </trkpt>
      <trkpt lat="42.78962" lon="0.57893">
        <ele>1658</ele>
        <time>1970-01-01T00:26:42.000Z</time>
      </trkpt>
      <trkpt lat="42.78972" lon="0.57898">
        <ele>1656</ele>
        <time>1970-01-01T00:26:43.000Z</time>
      </trkpt>
      <trkpt lat="42.78976" lon="0.57898">
        <ele>1655</ele>
        <time>1970-01-01T00:26:44.000Z</time>
      </trkpt>
      <trkpt lat="42.78986" lon="0.57897">
        <ele>1656</ele>
        <time>1970-01-01T00:26:45.000Z</time>
      </trkpt>
      <trkpt lat="42.78988" lon="0.57894">
        <ele>1654</ele>
        <time>1970-01-01T00:26:46.000Z</time>
      </trkpt>
      <trkpt lat="42.78995" lon="0.57888">
        <ele>1653</ele>
        <time>1970-01-01T00:26:47.000Z</time>
      </trkpt>
      <trkpt lat="42.78997" lon="0.57886">
        <ele>1652</ele>
        <time>1970-01-01T00:26:48.000Z</time>
      </trkpt>
      <trkpt lat="42.78999" lon="0.57884">
        <ele>1649</ele>
        <time>1970-01-01T00:26:49.000Z</time>
      </trkpt>
      <trkpt lat="42.79007" lon="0.57879">
        <ele>1646</ele>
        <time>1970-01-01T00:26:50.000Z</time>
      </trkpt>
      <trkpt lat="42.7901" lon="0.5788">
        <ele>1643</ele>
        <time>1970-01-01T00:26:51.000Z</time>
      </trkpt>
      <trkpt lat="42.79013" lon="0.57881">
        <ele>1641</ele>
        <time>1970-01-01T00:26:52.000Z</time>
      </trkpt>
      <trkpt lat="42.79024" lon="0.57888">
        <ele>1640</ele>
        <time>1970-01-01T00:26:53.000Z</time>
      </trkpt>
      <trkpt lat="42.79027" lon="0.57891">
        <ele>1638</ele>
        <time>1970-01-01T00:26:54.000Z</time>
      </trkpt>
      <trkpt lat="42.79035" lon="0.57901">
        <ele>1636</ele>
        <time>1970-01-01T00:26:55.000Z</time>
      </trkpt>
      <trkpt lat="42.79038" lon="0.57904">
        <ele>1634</ele>
        <time>1970-01-01T00:26:56.000Z</time>
      </trkpt>
      <trkpt lat="42.79044" lon="0.57914">
        <ele>1632</ele>
        <time>1970-01-01T00:26:57.000Z</time>
      </trkpt>
      <trkpt lat="42.79046" lon="0.57917">
        <ele>1631</ele>
        <time>1970-01-01T00:26:58.000Z</time>
      </trkpt>
      <trkpt lat="42.79054" lon="0.57927">
        <ele>1631</ele>
        <time>1970-01-01T00:26:59.000Z</time>
      </trkpt>
      <trkpt lat="42.79058" lon="0.57931">
        <ele>1631</ele>
        <time>1970-01-01T00:27:00.000Z</time>
      </trkpt>
      <trkpt lat="42.79061" lon="0.57932">
        <ele>1629</ele>
        <time>1970-01-01T00:27:01.000Z</time>
      </trkpt>
      <trkpt lat="42.79063" lon="0.57933">
        <ele>1627</ele>
        <time>1970-01-01T00:27:02.000Z</time>
      </trkpt>
      <trkpt lat="42.79071" lon="0.57935">
        <ele>1625</ele>
        <time>1970-01-01T00:27:03.000Z</time>
      </trkpt>
      <trkpt lat="42.79074" lon="0.57935">
        <ele>1622</ele>
        <time>1970-01-01T00:27:04.000Z</time>
      </trkpt>
      <trkpt lat="42.79077" lon="0.57935">
        <ele>1619</ele>
        <time>1970-01-01T00:27:05.000Z</time>
      </trkpt>
      <trkpt lat="42.79089" lon="0.57937">
        <ele>1616</ele>
        <time>1970-01-01T00:27:06.000Z</time>
      </trkpt>
      <trkpt lat="42.79092" lon="0.57938">
        <ele>1614</ele>
        <time>1970-01-01T00:27:07.000Z</time>
      </trkpt>
      <trkpt lat="42.79103" lon="0.5794">
        <ele>1613</ele>
        <time>1970-01-01T00:27:08.000Z</time>
      </trkpt>
      <trkpt lat="42.79107" lon="0.57939">
        <ele>1611</ele>
        <time>1970-01-01T00:27:09.000Z</time>
      </trkpt>
      <trkpt lat="42.79118" lon="0.57936">
        <ele>1610</ele>
        <time>1970-01-01T00:27:10.000Z</time>
      </trkpt>
      <trkpt lat="42.79121" lon="0.57935">
        <ele>1607</ele>
        <time>1970-01-01T00:27:11.000Z</time>
      </trkpt>
      <trkpt lat="42.79129" lon="0.57934">
        <ele>1605</ele>
        <time>1970-01-01T00:27:12.000Z</time>
      </trkpt>
      <trkpt lat="42.79132" lon="0.57934">
        <ele>1605</ele>
        <time>1970-01-01T00:27:13.000Z</time>
      </trkpt>
      <trkpt lat="42.7914" lon="0.57934">
        <ele>1604</ele>
        <time>1970-01-01T00:27:14.000Z</time>
      </trkpt>
      <trkpt lat="42.79141" lon="0.57934">
        <ele>1603</ele>
        <time>1970-01-01T00:27:15.000Z</time>
      </trkpt>
      <trkpt lat="42.79143" lon="0.57934">
        <ele>1602</ele>
        <time>1970-01-01T00:27:16.000Z</time>
      </trkpt>
      <trkpt lat="42.79148" lon="0.57941">
        <ele>1601</ele>
        <time>1970-01-01T00:27:17.000Z</time>
      </trkpt>
      <trkpt lat="42.79147" lon="0.57947">
        <ele>1599</ele>
        <time>1970-01-01T00:27:18.000Z</time>
      </trkpt>
      <trkpt lat="42.79148" lon="0.57952">
        <ele>1597</ele>
        <time>1970-01-01T00:27:19.000Z</time>
      </trkpt>
      <trkpt lat="42.79148" lon="0.57957">
        <ele>1596</ele>
        <time>1970-01-01T00:27:20.000Z</time>
      </trkpt>
      <trkpt lat="42.79149" lon="0.57972">
        <ele>1594</ele>
        <time>1970-01-01T00:27:21.000Z</time>
      </trkpt>
      <trkpt lat="42.79148" lon="0.57977">
        <ele>1591</ele>
        <time>1970-01-01T00:27:22.000Z</time>
      </trkpt>
      <trkpt lat="42.79145" lon="0.57993">
        <ele>1590</ele>
        <time>1970-01-01T00:27:23.000Z</time>
      </trkpt>
      <trkpt lat="42.79143" lon="0.57999">
        <ele>1588</ele>
        <time>1970-01-01T00:27:24.000Z</time>
      </trkpt>
      <trkpt lat="42.79139" lon="0.58015">
        <ele>1586</ele>
        <time>1970-01-01T00:27:25.000Z</time>
      </trkpt>
      <trkpt lat="42.79138" lon="0.58019">
        <ele>1585</ele>
        <time>1970-01-01T00:27:26.000Z</time>
      </trkpt>
      <trkpt lat="42.79137" lon="0.58031">
        <ele>1583</ele>
        <time>1970-01-01T00:27:27.000Z</time>
      </trkpt>
      <trkpt lat="42.79137" lon="0.58035">
        <ele>1581</ele>
        <time>1970-01-01T00:27:28.000Z</time>
      </trkpt>
      <trkpt lat="42.79138" lon="0.58049">
        <ele>1579</ele>
        <time>1970-01-01T00:27:29.000Z</time>
      </trkpt>
      <trkpt lat="42.79138" lon="0.58053">
        <ele>1578</ele>
        <time>1970-01-01T00:27:30.000Z</time>
      </trkpt>
      <trkpt lat="42.79141" lon="0.58065">
        <ele>1576</ele>
        <time>1970-01-01T00:27:31.000Z</time>
      </trkpt>
      <trkpt lat="42.79142" lon="0.58068">
        <ele>1573</ele>
        <time>1970-01-01T00:27:32.000Z</time>
      </trkpt>
      <trkpt lat="42.79146" lon="0.5808">
        <ele>1571</ele>
        <time>1970-01-01T00:27:33.000Z</time>
      </trkpt>
      <trkpt lat="42.79147" lon="0.58085">
        <ele>1568</ele>
        <time>1970-01-01T00:27:34.000Z</time>
      </trkpt>
      <trkpt lat="42.7915" lon="0.58098">
        <ele>1566</ele>
        <time>1970-01-01T00:27:35.000Z</time>
      </trkpt>
      <trkpt lat="42.79151" lon="0.58102">
        <ele>1563</ele>
        <time>1970-01-01T00:27:36.000Z</time>
      </trkpt>
      <trkpt lat="42.79153" lon="0.58113">
        <ele>1562</ele>
        <time>1970-01-01T00:27:37.000Z</time>
      </trkpt>
      <trkpt lat="42.79153" lon="0.58116">
        <ele>1561</ele>
        <time>1970-01-01T00:27:38.000Z</time>
      </trkpt>
      <trkpt lat="42.79154" lon="0.58119">
        <ele>1782</ele>
        <time>1970-01-01T00:27:39.000Z</time>
      </trkpt>
      <trkpt lat="42.79155" lon="0.58133">
        <ele>1779</ele>
        <time>1970-01-01T00:27:40.000Z</time>
      </trkpt>
      <trkpt lat="42.79155" lon="0.58138">
        <ele>1778</ele>
        <time>1970-01-01T00:27:41.000Z</time>
      </trkpt>
      <trkpt lat="42.79154" lon="0.58158">
        <ele>1776</ele>
        <time>1970-01-01T00:27:42.000Z</time>
      </trkpt>
      <trkpt lat="42.79155" lon="0.58168">
        <ele>1773</ele>
        <time>1970-01-01T00:27:43.000Z</time>
      </trkpt>
      <trkpt lat="42.79155" lon="0.58189">
        <ele>1770</ele>
        <time>1970-01-01T00:27:44.000Z</time>
      </trkpt>
      <trkpt lat="42.79154" lon="0.58196">
        <ele>1769</ele>
        <time>1970-01-01T00:27:45.000Z</time>
      </trkpt>
      <trkpt lat="42.79154" lon="0.58204">
        <ele>1766</ele>
        <time>1970-01-01T00:27:46.000Z</time>
      </trkpt>
      <trkpt lat="42.79152" lon="0.58224">
        <ele>1765</ele>
        <time>1970-01-01T00:27:47.000Z</time>
      </trkpt>
      <trkpt lat="42.79152" lon="0.5823">
        <ele>1765</ele>
        <time>1970-01-01T00:27:48.000Z</time>
      </trkpt>
      <trkpt lat="42.79151" lon="0.58246">
        <ele>1764</ele>
        <time>1970-01-01T00:27:49.000Z</time>
      </trkpt>
      <trkpt lat="42.79151" lon="0.5825">
        <ele>1763</ele>
        <time>1970-01-01T00:27:50.000Z</time>
      </trkpt>
      <trkpt lat="42.79151" lon="0.58258">
        <ele>1764</ele>
        <time>1970-01-01T00:27:51.000Z</time>
      </trkpt>
      <trkpt lat="42.79151" lon="0.5826">
        <ele>1764</ele>
        <time>1970-01-01T00:27:52.000Z</time>
      </trkpt>
      <trkpt lat="42.79151" lon="0.58261">
        <ele>1763</ele>
        <time>1970-01-01T00:27:53.000Z</time>
      </trkpt>
      <trkpt lat="42.79152" lon="0.58262">
        <ele>1763</ele>
        <time>1970-01-01T00:27:54.000Z</time>
      </trkpt>
      <trkpt lat="42.79152" lon="0.58264">
        <ele>1763</ele>
        <time>1970-01-01T00:27:55.000Z</time>
      </trkpt>
      <trkpt lat="42.79152" lon="0.58265">
        <ele>1763</ele>
        <time>1970-01-01T00:27:56.000Z</time>
      </trkpt>
      <trkpt lat="42.79153" lon="0.58266">
        <ele>1763</ele>
        <time>1970-01-01T00:27:57.000Z</time>
      </trkpt>
      <trkpt lat="42.79155" lon="0.58278">
        <ele>1763</ele>
        <time>1970-01-01T00:27:58.000Z</time>
      </trkpt>
      <trkpt lat="42.79155" lon="0.5828">
        <ele>1763</ele>
        <time>1970-01-01T00:27:59.000Z</time>
      </trkpt>
      <trkpt lat="42.79155" lon="0.58283">
        <ele>1763</ele>
        <time>1970-01-01T00:28:00.000Z</time>
      </trkpt>
      <trkpt lat="42.79155" lon="0.58285">
        <ele>1763</ele>
        <time>1970-01-01T00:28:01.000Z</time>
      </trkpt>
      <trkpt lat="42.79155" lon="0.58297">
        <ele>1763</ele>
        <time>1970-01-01T00:28:02.000Z</time>
      </trkpt>
      <trkpt lat="42.79155" lon="0.58299">
        <ele>1763</ele>
        <time>1970-01-01T00:28:03.000Z</time>
      </trkpt>
      <trkpt lat="42.79156" lon="0.58302">
        <ele>1763</ele>
        <time>1970-01-01T00:28:04.000Z</time>
      </trkpt>
      <trkpt lat="42.79156" lon="0.58305">
        <ele>1763</ele>
        <time>1970-01-01T00:28:05.000Z</time>
      </trkpt>
      <trkpt lat="42.79156" lon="0.58308">
        <ele>1763</ele>
        <time>1970-01-01T00:28:06.000Z</time>
      </trkpt>
      <trkpt lat="42.79156" lon="0.5831">
        <ele>1763</ele>
        <time>1970-01-01T00:28:07.000Z</time>
      </trkpt>
      <trkpt lat="42.79157" lon="0.58312">
        <ele>1763</ele>
        <time>1970-01-01T00:28:08.000Z</time>
      </trkpt>
      <trkpt lat="42.79157" lon="0.58313">
        <ele>1763</ele>
        <time>1970-01-01T00:28:09.000Z</time>
      </trkpt>
      <trkpt lat="42.79158" lon="0.58315">
        <ele>1763</ele>
        <time>1970-01-01T00:28:10.000Z</time>
      </trkpt>
      <trkpt lat="42.7916" lon="0.58325">
        <ele>1763</ele>
        <time>1970-01-01T00:28:11.000Z</time>
      </trkpt>
      <trkpt lat="42.7916" lon="0.58327">
        <ele>1763</ele>
        <time>1970-01-01T00:28:12.000Z</time>
      </trkpt>
      <trkpt lat="42.79161" lon="0.58329">
        <ele>1763</ele>
        <time>1970-01-01T00:28:13.000Z</time>
      </trkpt>
      <trkpt lat="42.79161" lon="0.5833">
        <ele>1763</ele>
        <time>1970-01-01T00:28:14.000Z</time>
      </trkpt>
      <trkpt lat="42.79163" lon="0.5834">
        <ele>1763</ele>
        <time>1970-01-01T00:28:15.000Z</time>
      </trkpt>
      <trkpt lat="42.79164" lon="0.58342">
        <ele>1763</ele>
        <time>1970-01-01T00:28:16.000Z</time>
      </trkpt>
      <trkpt lat="42.79164" lon="0.58343">
        <ele>1763</ele>
        <time>1970-01-01T00:28:17.000Z</time>
      </trkpt>
      <trkpt lat="42.79165" lon="0.58345">
        <ele>1764</ele>
        <time>1970-01-01T00:28:18.000Z</time>
      </trkpt>
      <trkpt lat="42.79167" lon="0.58352">
        <ele>1764</ele>
        <time>1970-01-01T00:28:19.000Z</time>
      </trkpt>
      <trkpt lat="42.79167" lon="0.5835">
        <ele>1764</ele>
        <time>1970-01-01T00:28:20.000Z</time>
      </trkpt>
      <trkpt lat="42.79167" lon="0.58349">
        <ele>1764</ele>
        <time>1970-01-01T00:28:21.000Z</time>
      </trkpt>
      <trkpt lat="42.79167" lon="0.58348">
        <ele>1764</ele>
        <time>1970-01-01T00:28:22.000Z</time>
      </trkpt>
      <trkpt lat="42.79167" lon="0.58347">
        <ele>1764</ele>
        <time>1970-01-01T00:28:23.000Z</time>
      </trkpt>
      <trkpt lat="42.79167" lon="0.58346">
        <ele>1764</ele>
        <time>1970-01-01T00:28:24.000Z</time>
      </trkpt>
      <trkpt lat="42.79167" lon="0.58344">
        <ele>1764</ele>
        <time>1970-01-01T00:28:25.000Z</time>
      </trkpt>
      <trkpt lat="42.79167" lon="0.58343">
        <ele>1764</ele>
        <time>1970-01-01T00:28:26.000Z</time>
      </trkpt>
      <trkpt lat="42.79167" lon="0.58342">
        <ele>1764</ele>
        <time>1970-01-01T00:28:27.000Z</time>
      </trkpt>
      <trkpt lat="42.79167" lon="0.58341">
        <ele>1764</ele>
        <time>1970-01-01T00:28:28.000Z</time>
      </trkpt>
      <trkpt lat="42.79167" lon="0.58339">
        <ele>1764</ele>
        <time>1970-01-01T00:28:29.000Z</time>
      </trkpt>
      <trkpt lat="42.79167" lon="0.5834">
        <ele>1764</ele>
        <time>1970-01-01T00:28:30.000Z</time>
      </trkpt>
      <trkpt lat="42.79167" lon="0.58341">
        <ele>1764</ele>
        <time>1970-01-01T00:28:31.000Z</time>
      </trkpt>
      <trkpt lat="42.79167" lon="0.58342">
        <ele>1764</ele>
        <time>1970-01-01T00:28:32.000Z</time>
      </trkpt>
      <trkpt lat="42.79167" lon="0.58342">
        <ele>1764</ele>
        <time>1970-01-01T00:28:33.000Z</time>
      </trkpt>
      <trkpt lat="42.79167" lon="0.58343">
        <ele>1764</ele>
        <time>1970-01-01T00:28:34.000Z</time>
      </trkpt>
      <trkpt lat="42.79167" lon="0.58344">
        <ele>1764</ele>
        <time>1970-01-01T00:28:35.000Z</time>
      </trkpt>
      <trkpt lat="42.79167" lon="0.58345">
        <ele>1764</ele>
        <time>1970-01-01T00:28:36.000Z</time>
      </trkpt>
      <trkpt lat="42.79167" lon="0.58345">
        <ele>1764</ele>
        <time>1970-01-01T00:28:37.000Z</time>
      </trkpt>
      <trkpt lat="42.79167" lon="0.58346">
        <ele>1763</ele>
        <time>1970-01-01T00:28:38.000Z</time>
      </trkpt>
      <trkpt lat="42.79167" lon="0.58347">
        <ele>1763</ele>
        <time>1970-01-01T00:28:39.000Z</time>
      </trkpt>
      <trkpt lat="42.79167" lon="0.58347">
        <ele>1763</ele>
        <time>1970-01-01T00:28:40.000Z</time>
      </trkpt>
      <trkpt lat="42.79166" lon="0.58358">
        <ele>1763</ele>
        <time>1970-01-01T00:28:41.000Z</time>
      </trkpt>
      <trkpt lat="42.79166" lon="0.58361">
        <ele>1763</ele>
        <time>1970-01-01T00:28:42.000Z</time>
      </trkpt>
      <trkpt lat="42.79166" lon="0.58364">
        <ele>1763</ele>
        <time>1970-01-01T00:28:43.000Z</time>
      </trkpt>
      <trkpt lat="42.79165" lon="0.58378">
        <ele>1763</ele>
        <time>1970-01-01T00:28:44.000Z</time>
      </trkpt>
      <trkpt lat="42.79164" lon="0.58382">
        <ele>1763</ele>
        <time>1970-01-01T00:28:45.000Z</time>
      </trkpt>
      <trkpt lat="42.79162" lon="0.58391">
        <ele>1763</ele>
        <time>1970-01-01T00:28:46.000Z</time>
      </trkpt>
      <trkpt lat="42.79162" lon="0.58391">
        <ele>1763</ele>
        <time>1970-01-01T00:28:47.000Z</time>
      </trkpt>
      <trkpt lat="42.79162" lon="0.58392">
        <ele>1759</ele>
        <time>1970-01-01T00:28:48.000Z</time>
      </trkpt>
      <trkpt lat="42.79162" lon="0.58392">
        <ele>1759</ele>
        <time>1970-01-01T00:28:49.000Z</time>
      </trkpt>
      <trkpt lat="42.79162" lon="0.58393">
        <ele>1759</ele>
        <time>1970-01-01T00:28:50.000Z</time>
      </trkpt>
      <trkpt lat="42.79162" lon="0.58393">
        <ele>1759</ele>
        <time>1970-01-01T00:28:51.000Z</time>
      </trkpt>
      <trkpt lat="42.79162" lon="0.58393">
        <ele>1759</ele>
        <time>1970-01-01T00:28:52.000Z</time>
      </trkpt>
      <trkpt lat="42.79162" lon="0.58394">
        <ele>1758</ele>
        <time>1970-01-01T00:28:53.000Z</time>
      </trkpt>
      <trkpt lat="42.79162" lon="0.58394">
        <ele>1758</ele>
        <time>1970-01-01T00:28:54.000Z</time>
      </trkpt>
      <trkpt lat="42.79163" lon="0.58394">
        <ele>1758</ele>
        <time>1970-01-01T00:28:55.000Z</time>
      </trkpt>
      <trkpt lat="42.79163" lon="0.58395">
        <ele>1758</ele>
        <time>1970-01-01T00:28:56.000Z</time>
      </trkpt>
      <trkpt lat="42.79163" lon="0.58395">
        <ele>1758</ele>
        <time>1970-01-01T00:28:57.000Z</time>
      </trkpt>
      <trkpt lat="42.79163" lon="0.58396">
        <ele>1758</ele>
        <time>1970-01-01T00:28:58.000Z</time>
      </trkpt>
      <trkpt lat="42.79163" lon="0.58396">
        <ele>1758</ele>
        <time>1970-01-01T00:28:59.000Z</time>
      </trkpt>
      <trkpt lat="42.79163" lon="0.58396">
        <ele>1758</ele>
        <time>1970-01-01T00:29:00.000Z</time>
      </trkpt>
      <trkpt lat="42.79163" lon="0.58397">
        <ele>1758</ele>
        <time>1970-01-01T00:29:01.000Z</time>
      </trkpt>
      <trkpt lat="42.79163" lon="0.58397">
        <ele>1758</ele>
        <time>1970-01-01T00:29:02.000Z</time>
      </trkpt>
      <trkpt lat="42.79163" lon="0.58397">
        <ele>1758</ele>
        <time>1970-01-01T00:29:03.000Z</time>
      </trkpt>
      <trkpt lat="42.79163" lon="0.58398">
        <ele>1758</ele>
        <time>1970-01-01T00:29:04.000Z</time>
      </trkpt>
      <trkpt lat="42.79163" lon="0.58404">
        <ele>1758</ele>
        <time>1970-01-01T00:29:05.000Z</time>
      </trkpt>
      <trkpt lat="42.79162" lon="0.58403">
        <ele>1758</ele>
        <time>1970-01-01T00:29:06.000Z</time>
      </trkpt>
      <trkpt lat="42.79162" lon="0.58402">
        <ele>1758</ele>
        <time>1970-01-01T00:29:07.000Z</time>
      </trkpt>
      <trkpt lat="42.79161" lon="0.58401">
        <ele>1759</ele>
        <time>1970-01-01T00:29:08.000Z</time>
      </trkpt>
      <trkpt lat="42.79161" lon="0.58401">
        <ele>1759</ele>
        <time>1970-01-01T00:29:09.000Z</time>
      </trkpt>
      <trkpt lat="42.7916" lon="0.584">
        <ele>1759</ele>
        <time>1970-01-01T00:29:10.000Z</time>
      </trkpt>
      <trkpt lat="42.7916" lon="0.58399">
        <ele>1759</ele>
        <time>1970-01-01T00:29:11.000Z</time>
      </trkpt>
      <trkpt lat="42.79156" lon="0.58391">
        <ele>1759</ele>
        <time>1970-01-01T00:29:12.000Z</time>
      </trkpt>
      <trkpt lat="42.79155" lon="0.58389">
        <ele>1759</ele>
        <time>1970-01-01T00:29:13.000Z</time>
      </trkpt>
      <trkpt lat="42.79155" lon="0.58387">
        <ele>1759</ele>
        <time>1970-01-01T00:29:14.000Z</time>
      </trkpt>
      <trkpt lat="42.79155" lon="0.58385">
        <ele>1759</ele>
        <time>1970-01-01T00:29:15.000Z</time>
      </trkpt>
      <trkpt lat="42.79153" lon="0.58374">
        <ele>1759</ele>
        <time>1970-01-01T00:29:16.000Z</time>
      </trkpt>
      <trkpt lat="42.79152" lon="0.58371">
        <ele>1759</ele>
        <time>1970-01-01T00:29:17.000Z</time>
      </trkpt>
      <trkpt lat="42.79152" lon="0.58368">
        <ele>1759</ele>
        <time>1970-01-01T00:29:18.000Z</time>
      </trkpt>
      <trkpt lat="42.79152" lon="0.58365">
        <ele>1759</ele>
        <time>1970-01-01T00:29:19.000Z</time>
      </trkpt>
      <trkpt lat="42.79152" lon="0.58363">
        <ele>1759</ele>
        <time>1970-01-01T00:29:20.000Z</time>
      </trkpt>
      <trkpt lat="42.79152" lon="0.58362">
        <ele>1759</ele>
        <time>1970-01-01T00:29:21.000Z</time>
      </trkpt>
      <trkpt lat="42.79152" lon="0.58361">
        <ele>1759</ele>
        <time>1970-01-01T00:29:22.000Z</time>
      </trkpt>
      <trkpt lat="42.79152" lon="0.58359">
        <ele>1759</ele>
        <time>1970-01-01T00:29:23.000Z</time>
      </trkpt>
      <trkpt lat="42.79152" lon="0.58358">
        <ele>1759</ele>
        <time>1970-01-01T00:29:24.000Z</time>
      </trkpt>
      <trkpt lat="42.79152" lon="0.58356">
        <ele>1759</ele>
        <time>1970-01-01T00:29:25.000Z</time>
      </trkpt>
      <trkpt lat="42.79153" lon="0.58355">
        <ele>1759</ele>
        <time>1970-01-01T00:29:26.000Z</time>
      </trkpt>
      <trkpt lat="42.79153" lon="0.58353">
        <ele>1759</ele>
        <time>1970-01-01T00:29:27.000Z</time>
      </trkpt>
      <trkpt lat="42.79152" lon="0.5835">
        <ele>1759</ele>
        <time>1970-01-01T00:29:28.000Z</time>
      </trkpt>
      <trkpt lat="42.7915" lon="0.58346">
        <ele>1759</ele>
        <time>1970-01-01T00:29:29.000Z</time>
      </trkpt>
      <trkpt lat="42.79149" lon="0.58343">
        <ele>1759</ele>
        <time>1970-01-01T00:29:30.000Z</time>
      </trkpt>
      <trkpt lat="42.79149" lon="0.58344">
        <ele>1759</ele>
        <time>1970-01-01T00:29:31.000Z</time>
      </trkpt>
      <trkpt lat="42.79149" lon="0.58344">
        <ele>1759</ele>
        <time>1970-01-01T00:29:32.000Z</time>
      </trkpt>
      <trkpt lat="42.79149" lon="0.58344">
        <ele>1759</ele>
        <time>1970-01-01T00:29:33.000Z</time>
      </trkpt>
      <trkpt lat="42.79149" lon="0.58345">
        <ele>1759</ele>
        <time>1970-01-01T00:29:34.000Z</time>
      </trkpt>
      <trkpt lat="42.79149" lon="0.58345">
        <ele>1759</ele>
        <time>1970-01-01T00:29:35.000Z</time>
      </trkpt>
      <trkpt lat="42.79149" lon="0.58346">
        <ele>1759</ele>
        <time>1970-01-01T00:29:36.000Z</time>
      </trkpt>
      <trkpt lat="42.79149" lon="0.58346">
        <ele>1759</ele>
        <time>1970-01-01T00:29:37.000Z</time>
      </trkpt>
      <trkpt lat="42.79149" lon="0.58347">
        <ele>1759</ele>
        <time>1970-01-01T00:29:38.000Z</time>
      </trkpt>
      <trkpt lat="42.79149" lon="0.58347">
        <ele>1759</ele>
        <time>1970-01-01T00:29:39.000Z</time>
      </trkpt>
      <trkpt lat="42.79149" lon="0.58348">
        <ele>1759</ele>
        <time>1970-01-01T00:29:40.000Z</time>
      </trkpt>
      <trkpt lat="42.79149" lon="0.58348">
        <ele>1759</ele>
        <time>1970-01-01T00:29:41.000Z</time>
      </trkpt>
      <trkpt lat="42.79149" lon="0.58349">
        <ele>1759</ele>
        <time>1970-01-01T00:29:42.000Z</time>
      </trkpt>
      <trkpt lat="42.79149" lon="0.58349">
        <ele>1759</ele>
        <time>1970-01-01T00:29:43.000Z</time>
      </trkpt>
      <trkpt lat="42.79148" lon="0.5835">
        <ele>1759</ele>
        <time>1970-01-01T00:29:44.000Z</time>
      </trkpt>
      <trkpt lat="42.79148" lon="0.5835">
        <ele>1759</ele>
        <time>1970-01-01T00:29:45.000Z</time>
      </trkpt>
      <trkpt lat="42.79148" lon="0.58351">
        <ele>1759</ele>
        <time>1970-01-01T00:29:46.000Z</time>
      </trkpt>
      <trkpt lat="42.79148" lon="0.58351">
        <ele>1759</ele>
        <time>1970-01-01T00:29:47.000Z</time>
      </trkpt>
      <trkpt lat="42.79148" lon="0.58352">
        <ele>1758</ele>
        <time>1970-01-01T00:29:48.000Z</time>
      </trkpt>
      <trkpt lat="42.79148" lon="0.58352">
        <ele>1758</ele>
        <time>1970-01-01T00:29:49.000Z</time>
      </trkpt>
      <trkpt lat="42.79148" lon="0.58353">
        <ele>1758</ele>
        <time>1970-01-01T00:29:50.000Z</time>
      </trkpt>
      <trkpt lat="42.79148" lon="0.58353">
        <ele>1758</ele>
        <time>1970-01-01T00:29:51.000Z</time>
      </trkpt>
      <trkpt lat="42.79147" lon="0.58368">
        <ele>1758</ele>
        <time>1970-01-01T00:29:52.000Z</time>
      </trkpt>
      <trkpt lat="42.79147" lon="0.58373">
        <ele>1758</ele>
        <time>1970-01-01T00:29:53.000Z</time>
      </trkpt>
      <trkpt lat="42.79148" lon="0.58393">
        <ele>1758</ele>
        <time>1970-01-01T00:29:54.000Z</time>
      </trkpt>
      <trkpt lat="42.79148" lon="0.58403">
        <ele>1758</ele>
        <time>1970-01-01T00:29:55.000Z</time>
      </trkpt>
      <trkpt lat="42.79149" lon="0.58425">
        <ele>1758</ele>
        <time>1970-01-01T00:29:56.000Z</time>
      </trkpt>
      <trkpt lat="42.79148" lon="0.58443">
        <ele>1758</ele>
        <time>1970-01-01T00:29:57.000Z</time>
      </trkpt>
      <trkpt lat="42.79148" lon="0.58461">
        <ele>1742</ele>
        <time>1970-01-01T00:29:58.000Z</time>
      </trkpt>
      <trkpt lat="42.79146" lon="0.58477">
        <ele>1734</ele>
        <time>1970-01-01T00:29:59.000Z</time>
      </trkpt>
      <trkpt lat="42.79145" lon="0.58496">
        <ele>1732</ele>
        <time>1970-01-01T00:30:00.000Z</time>
      </trkpt>
      <trkpt lat="42.79144" lon="0.58515">
        <ele>1728</ele>
        <time>1970-01-01T00:30:01.000Z</time>
      </trkpt>
      <trkpt lat="42.79144" lon="0.58532">
        <ele>1726</ele>
        <time>1970-01-01T00:30:02.000Z</time>
      </trkpt>
      <trkpt lat="42.79143" lon="0.5855">
        <ele>1724</ele>
        <time>1970-01-01T00:30:03.000Z</time>
      </trkpt>
      <trkpt lat="42.79144" lon="0.58564">
        <ele>1723</ele>
        <time>1970-01-01T00:30:04.000Z</time>
      </trkpt>
      <trkpt lat="42.79145" lon="0.58579">
        <ele>1720</ele>
        <time>1970-01-01T00:30:05.000Z</time>
      </trkpt>
      <trkpt lat="42.79145" lon="0.58595">
        <ele>1718</ele>
        <time>1970-01-01T00:30:06.000Z</time>
      </trkpt>
      <trkpt lat="42.79147" lon="0.58614">
        <ele>1717</ele>
        <time>1970-01-01T00:30:07.000Z</time>
      </trkpt>
      <trkpt lat="42.79148" lon="0.58631">
        <ele>1714</ele>
        <time>1970-01-01T00:30:08.000Z</time>
      </trkpt>
      <trkpt lat="42.79147" lon="0.58652">
        <ele>1712</ele>
        <time>1970-01-01T00:30:09.000Z</time>
      </trkpt>
      <trkpt lat="42.79148" lon="0.58669">
        <ele>1711</ele>
        <time>1970-01-01T00:30:10.000Z</time>
      </trkpt>
      <trkpt lat="42.7915" lon="0.58688">
        <ele>1710</ele>
        <time>1970-01-01T00:30:11.000Z</time>
      </trkpt>
      <trkpt lat="42.79154" lon="0.58705">
        <ele>1709</ele>
        <time>1970-01-01T00:30:12.000Z</time>
      </trkpt>
      <trkpt lat="42.79157" lon="0.58719">
        <ele>1706</ele>
        <time>1970-01-01T00:30:13.000Z</time>
      </trkpt>
      <trkpt lat="42.79159" lon="0.58737">
        <ele>1706</ele>
        <time>1970-01-01T00:30:14.000Z</time>
      </trkpt>
      <trkpt lat="42.79161" lon="0.58751">
        <ele>1706</ele>
        <time>1970-01-01T00:30:15.000Z</time>
      </trkpt>
      <trkpt lat="42.79161" lon="0.58752">
        <ele>1707</ele>
        <time>1970-01-01T00:30:16.000Z</time>
      </trkpt>
      <trkpt lat="42.79161" lon="0.58753">
        <ele>1707</ele>
        <time>1970-01-01T00:30:17.000Z</time>
      </trkpt>
      <trkpt lat="42.79161" lon="0.58754">
        <ele>1707</ele>
        <time>1970-01-01T00:30:18.000Z</time>
      </trkpt>
      <trkpt lat="42.7916" lon="0.58755">
        <ele>1706</ele>
        <time>1970-01-01T00:30:19.000Z</time>
      </trkpt>
      <trkpt lat="42.7916" lon="0.58756">
        <ele>1706</ele>
        <time>1970-01-01T00:30:20.000Z</time>
      </trkpt>
      <trkpt lat="42.7916" lon="0.58756">
        <ele>1705</ele>
        <time>1970-01-01T00:30:21.000Z</time>
      </trkpt>
      <trkpt lat="42.7916" lon="0.58757">
        <ele>1706</ele>
        <time>1970-01-01T00:30:22.000Z</time>
      </trkpt>
      <trkpt lat="42.7916" lon="0.58758">
        <ele>1706</ele>
        <time>1970-01-01T00:30:23.000Z</time>
      </trkpt>
      <trkpt lat="42.7916" lon="0.58759">
        <ele>1706</ele>
        <time>1970-01-01T00:30:24.000Z</time>
      </trkpt>
      <trkpt lat="42.7916" lon="0.5876">
        <ele>1706</ele>
        <time>1970-01-01T00:30:25.000Z</time>
      </trkpt>
      <trkpt lat="42.7916" lon="0.58761">
        <ele>1706</ele>
        <time>1970-01-01T00:30:26.000Z</time>
      </trkpt>
      <trkpt lat="42.7916" lon="0.58762">
        <ele>1706</ele>
        <time>1970-01-01T00:30:27.000Z</time>
      </trkpt>
      <trkpt lat="42.7916" lon="0.58762">
        <ele>1705</ele>
        <time>1970-01-01T00:30:28.000Z</time>
      </trkpt>
      <trkpt lat="42.7916" lon="0.58763">
        <ele>1705</ele>
        <time>1970-01-01T00:30:29.000Z</time>
      </trkpt>
      <trkpt lat="42.79159" lon="0.58764">
        <ele>1705</ele>
        <time>1970-01-01T00:30:30.000Z</time>
      </trkpt>
      <trkpt lat="42.79159" lon="0.58765">
        <ele>1705</ele>
        <time>1970-01-01T00:30:31.000Z</time>
      </trkpt>
      <trkpt lat="42.79159" lon="0.58763">
        <ele>1705</ele>
        <time>1970-01-01T00:30:32.000Z</time>
      </trkpt>
      <trkpt lat="42.79158" lon="0.58761">
        <ele>1705</ele>
        <time>1970-01-01T00:30:33.000Z</time>
      </trkpt>
      <trkpt lat="42.79157" lon="0.58758">
        <ele>1705</ele>
        <time>1970-01-01T00:30:34.000Z</time>
      </trkpt>
      <trkpt lat="42.79155" lon="0.58755">
        <ele>1705</ele>
        <time>1970-01-01T00:30:35.000Z</time>
      </trkpt>
      <trkpt lat="42.79155" lon="0.58759">
        <ele>1705</ele>
        <time>1970-01-01T00:30:36.000Z</time>
      </trkpt>
      <trkpt lat="42.79155" lon="0.58762">
        <ele>1705</ele>
        <time>1970-01-01T00:30:37.000Z</time>
      </trkpt>
      <trkpt lat="42.79155" lon="0.58776">
        <ele>1699</ele>
        <time>1970-01-01T00:30:38.000Z</time>
      </trkpt>
      <trkpt lat="42.79156" lon="0.58779">
        <ele>1695</ele>
        <time>1970-01-01T00:30:39.000Z</time>
      </trkpt>
      <trkpt lat="42.79159" lon="0.58791">
        <ele>1691</ele>
        <time>1970-01-01T00:30:40.000Z</time>
      </trkpt>
      <trkpt lat="42.79161" lon="0.58795">
        <ele>1690</ele>
        <time>1970-01-01T00:30:41.000Z</time>
      </trkpt>
      <trkpt lat="42.79165" lon="0.5881">
        <ele>1686</ele>
        <time>1970-01-01T00:30:42.000Z</time>
      </trkpt>
      <trkpt lat="42.79165" lon="0.58816">
        <ele>1683</ele>
        <time>1970-01-01T00:30:43.000Z</time>
      </trkpt>
      <trkpt lat="42.79167" lon="0.58834">
        <ele>1682</ele>
        <time>1970-01-01T00:30:44.000Z</time>
      </trkpt>
      <trkpt lat="42.79168" lon="0.58841">
        <ele>1679</ele>
        <time>1970-01-01T00:30:45.000Z</time>
      </trkpt>
      <trkpt lat="42.79169" lon="0.58861">
        <ele>1679</ele>
        <time>1970-01-01T00:30:46.000Z</time>
      </trkpt>
      <trkpt lat="42.7917" lon="0.58868">
        <ele>1677</ele>
        <time>1970-01-01T00:30:47.000Z</time>
      </trkpt>
      <trkpt lat="42.79172" lon="0.58887">
        <ele>1673</ele>
        <time>1970-01-01T00:30:48.000Z</time>
      </trkpt>
      <trkpt lat="42.79172" lon="0.58893">
        <ele>1670</ele>
        <time>1970-01-01T00:30:49.000Z</time>
      </trkpt>
      <trkpt lat="42.79174" lon="0.58915">
        <ele>1666</ele>
        <time>1970-01-01T00:30:50.000Z</time>
      </trkpt>
      <trkpt lat="42.79173" lon="0.58925">
        <ele>1663</ele>
        <time>1970-01-01T00:30:51.000Z</time>
      </trkpt>
      <trkpt lat="42.79173" lon="0.58946">
        <ele>1662</ele>
        <time>1970-01-01T00:30:52.000Z</time>
      </trkpt>
      <trkpt lat="42.79175" lon="0.58961">
        <ele>1659</ele>
        <time>1970-01-01T00:30:53.000Z</time>
      </trkpt>
      <trkpt lat="42.79176" lon="0.58967">
        <ele>1655</ele>
        <time>1970-01-01T00:30:54.000Z</time>
      </trkpt>
      <trkpt lat="42.79177" lon="0.58973">
        <ele>1652</ele>
        <time>1970-01-01T00:30:55.000Z</time>
      </trkpt>
      <trkpt lat="42.79179" lon="0.5899">
        <ele>1651</ele>
        <time>1970-01-01T00:30:56.000Z</time>
      </trkpt>
      <trkpt lat="42.79179" lon="0.58994">
        <ele>1649</ele>
        <time>1970-01-01T00:30:57.000Z</time>
      </trkpt>
      <trkpt lat="42.79176" lon="0.59007">
        <ele>1648</ele>
        <time>1970-01-01T00:30:58.000Z</time>
      </trkpt>
      <trkpt lat="42.79174" lon="0.5901">
        <ele>1646</ele>
        <time>1970-01-01T00:30:59.000Z</time>
      </trkpt>
      <trkpt lat="42.79167" lon="0.59019">
        <ele>1645</ele>
        <time>1970-01-01T00:31:00.000Z</time>
      </trkpt>
      <trkpt lat="42.79164" lon="0.59022">
        <ele>1642</ele>
        <time>1970-01-01T00:31:01.000Z</time>
      </trkpt>
      <trkpt lat="42.79158" lon="0.59026">
        <ele>1640</ele>
        <time>1970-01-01T00:31:02.000Z</time>
      </trkpt>
      <trkpt lat="42.79157" lon="0.59025">
        <ele>1641</ele>
        <time>1970-01-01T00:31:03.000Z</time>
      </trkpt>
      <trkpt lat="42.79156" lon="0.59023">
        <ele>1641</ele>
        <time>1970-01-01T00:31:04.000Z</time>
      </trkpt>
      <trkpt lat="42.79155" lon="0.59021">
        <ele>1641</ele>
        <time>1970-01-01T00:31:05.000Z</time>
      </trkpt>
      <trkpt lat="42.79151" lon="0.59008">
        <ele>1641</ele>
        <time>1970-01-01T00:31:06.000Z</time>
      </trkpt>
      <trkpt lat="42.7915" lon="0.59002">
        <ele>1641</ele>
        <time>1970-01-01T00:31:07.000Z</time>
      </trkpt>
      <trkpt lat="42.7915" lon="0.58996">
        <ele>1641</ele>
        <time>1970-01-01T00:31:08.000Z</time>
      </trkpt>
      <trkpt lat="42.7915" lon="0.58979">
        <ele>1641</ele>
        <time>1970-01-01T00:31:09.000Z</time>
      </trkpt>
      <trkpt lat="42.7915" lon="0.58974">
        <ele>1641</ele>
        <time>1970-01-01T00:31:10.000Z</time>
      </trkpt>
      <trkpt lat="42.7915" lon="0.5897">
        <ele>1641</ele>
        <time>1970-01-01T00:31:11.000Z</time>
      </trkpt>
      <trkpt lat="42.79149" lon="0.58958">
        <ele>1641</ele>
        <time>1970-01-01T00:31:12.000Z</time>
      </trkpt>
      <trkpt lat="42.79149" lon="0.58955">
        <ele>1640</ele>
        <time>1970-01-01T00:31:13.000Z</time>
      </trkpt>
      <trkpt lat="42.79148" lon="0.58953">
        <ele>1640</ele>
        <time>1970-01-01T00:31:14.000Z</time>
      </trkpt>
      <trkpt lat="42.79147" lon="0.58942">
        <ele>1640</ele>
        <time>1970-01-01T00:31:15.000Z</time>
      </trkpt>
      <trkpt lat="42.79147" lon="0.58939">
        <ele>1640</ele>
        <time>1970-01-01T00:31:16.000Z</time>
      </trkpt>
      <trkpt lat="42.79146" lon="0.58937">
        <ele>1640</ele>
        <time>1970-01-01T00:31:17.000Z</time>
      </trkpt>
      <trkpt lat="42.79145" lon="0.58927">
        <ele>1640</ele>
        <time>1970-01-01T00:31:18.000Z</time>
      </trkpt>
      <trkpt lat="42.79145" lon="0.58926">
        <ele>1640</ele>
        <time>1970-01-01T00:31:19.000Z</time>
      </trkpt>
      <trkpt lat="42.79145" lon="0.58924">
        <ele>1640</ele>
        <time>1970-01-01T00:31:20.000Z</time>
      </trkpt>
      <trkpt lat="42.79145" lon="0.58923">
        <ele>1640</ele>
        <time>1970-01-01T00:31:21.000Z</time>
      </trkpt>
      <trkpt lat="42.79144" lon="0.58922">
        <ele>1640</ele>
        <time>1970-01-01T00:31:22.000Z</time>
      </trkpt>
      <trkpt lat="42.79144" lon="0.5892">
        <ele>1640</ele>
        <time>1970-01-01T00:31:23.000Z</time>
      </trkpt>
      <trkpt lat="42.79142" lon="0.58911">
        <ele>1640</ele>
        <time>1970-01-01T00:31:24.000Z</time>
      </trkpt>
      <trkpt lat="42.79142" lon="0.5891">
        <ele>1640</ele>
        <time>1970-01-01T00:31:25.000Z</time>
      </trkpt>
      <trkpt lat="42.79142" lon="0.58909">
        <ele>1640</ele>
        <time>1970-01-01T00:31:26.000Z</time>
      </trkpt>
      <trkpt lat="42.79142" lon="0.58908">
        <ele>1640</ele>
        <time>1970-01-01T00:31:27.000Z</time>
      </trkpt>
      <trkpt lat="42.79141" lon="0.58907">
        <ele>1640</ele>
        <time>1970-01-01T00:31:28.000Z</time>
      </trkpt>
      <trkpt lat="42.79141" lon="0.58906">
        <ele>1640</ele>
        <time>1970-01-01T00:31:29.000Z</time>
      </trkpt>
      <trkpt lat="42.79141" lon="0.58905">
        <ele>1640</ele>
        <time>1970-01-01T00:31:30.000Z</time>
      </trkpt>
      <trkpt lat="42.79139" lon="0.58897">
        <ele>1640</ele>
        <time>1970-01-01T00:31:31.000Z</time>
      </trkpt>
      <trkpt lat="42.79139" lon="0.58897">
        <ele>1640</ele>
        <time>1970-01-01T00:31:32.000Z</time>
      </trkpt>
      <trkpt lat="42.79139" lon="0.58896">
        <ele>1640</ele>
        <time>1970-01-01T00:31:33.000Z</time>
      </trkpt>
      <trkpt lat="42.79139" lon="0.58895">
        <ele>1640</ele>
        <time>1970-01-01T00:31:34.000Z</time>
      </trkpt>
      <trkpt lat="42.79139" lon="0.58894">
        <ele>1640</ele>
        <time>1970-01-01T00:31:35.000Z</time>
      </trkpt>
      <trkpt lat="42.79139" lon="0.58894">
        <ele>1640</ele>
        <time>1970-01-01T00:31:36.000Z</time>
      </trkpt>
      <trkpt lat="42.79139" lon="0.58893">
        <ele>1640</ele>
        <time>1970-01-01T00:31:37.000Z</time>
      </trkpt>
      <trkpt lat="42.79139" lon="0.58892">
        <ele>1640</ele>
        <time>1970-01-01T00:31:38.000Z</time>
      </trkpt>
      <trkpt lat="42.79139" lon="0.58891">
        <ele>1640</ele>
        <time>1970-01-01T00:31:39.000Z</time>
      </trkpt>
      <trkpt lat="42.79138" lon="0.5889">
        <ele>1640</ele>
        <time>1970-01-01T00:31:40.000Z</time>
      </trkpt>
      <trkpt lat="42.79138" lon="0.5889">
        <ele>1640</ele>
        <time>1970-01-01T00:31:41.000Z</time>
      </trkpt>
      <trkpt lat="42.79138" lon="0.58889">
        <ele>1640</ele>
        <time>1970-01-01T00:31:42.000Z</time>
      </trkpt>
      <trkpt lat="42.79137" lon="0.58879">
        <ele>1640</ele>
        <time>1970-01-01T00:31:43.000Z</time>
      </trkpt>
      <trkpt lat="42.79136" lon="0.58878">
        <ele>1640</ele>
        <time>1970-01-01T00:31:44.000Z</time>
      </trkpt>
      <trkpt lat="42.79136" lon="0.58877">
        <ele>1640</ele>
        <time>1970-01-01T00:31:45.000Z</time>
      </trkpt>
      <trkpt lat="42.79136" lon="0.58876">
        <ele>1640</ele>
        <time>1970-01-01T00:31:46.000Z</time>
      </trkpt>
      <trkpt lat="42.79136" lon="0.58875">
        <ele>1640</ele>
        <time>1970-01-01T00:31:47.000Z</time>
      </trkpt>
      <trkpt lat="42.79136" lon="0.58874">
        <ele>1640</ele>
        <time>1970-01-01T00:31:48.000Z</time>
      </trkpt>
      <trkpt lat="42.79135" lon="0.58873">
        <ele>1640</ele>
        <time>1970-01-01T00:31:49.000Z</time>
      </trkpt>
      <trkpt lat="42.79135" lon="0.58872">
        <ele>1640</ele>
        <time>1970-01-01T00:31:50.000Z</time>
      </trkpt>
      <trkpt lat="42.79135" lon="0.58871">
        <ele>1640</ele>
        <time>1970-01-01T00:31:51.000Z</time>
      </trkpt>
      <trkpt lat="42.79135" lon="0.5887">
        <ele>1640</ele>
        <time>1970-01-01T00:31:52.000Z</time>
      </trkpt>
      <trkpt lat="42.79134" lon="0.58869">
        <ele>1640</ele>
        <time>1970-01-01T00:31:53.000Z</time>
      </trkpt>
      <trkpt lat="42.79134" lon="0.58868">
        <ele>1640</ele>
        <time>1970-01-01T00:31:54.000Z</time>
      </trkpt>
      <trkpt lat="42.79134" lon="0.58867">
        <ele>1640</ele>
        <time>1970-01-01T00:31:55.000Z</time>
      </trkpt>
      <trkpt lat="42.79134" lon="0.58866">
        <ele>1640</ele>
        <time>1970-01-01T00:31:56.000Z</time>
      </trkpt>
      <trkpt lat="42.79134" lon="0.58866">
        <ele>1640</ele>
        <time>1970-01-01T00:31:57.000Z</time>
      </trkpt>
      <trkpt lat="42.79134" lon="0.58867">
        <ele>1641</ele>
        <time>1970-01-01T00:31:58.000Z</time>
      </trkpt>
      <trkpt lat="42.79134" lon="0.58867">
        <ele>1641</ele>
        <time>1970-01-01T00:31:59.000Z</time>
      </trkpt>
      <trkpt lat="42.79135" lon="0.58867">
        <ele>1641</ele>
        <time>1970-01-01T00:32:00.000Z</time>
      </trkpt>
      <trkpt lat="42.79135" lon="0.58867">
        <ele>1641</ele>
        <time>1970-01-01T00:32:01.000Z</time>
      </trkpt>
      <trkpt lat="42.79135" lon="0.58867">
        <ele>1641</ele>
        <time>1970-01-01T00:32:02.000Z</time>
      </trkpt>
      <trkpt lat="42.79135" lon="0.58868">
        <ele>1641</ele>
        <time>1970-01-01T00:32:03.000Z</time>
      </trkpt>
      <trkpt lat="42.79136" lon="0.58868">
        <ele>1641</ele>
        <time>1970-01-01T00:32:04.000Z</time>
      </trkpt>
      <trkpt lat="42.79136" lon="0.58868">
        <ele>1641</ele>
        <time>1970-01-01T00:32:05.000Z</time>
      </trkpt>
      <trkpt lat="42.79136" lon="0.58868">
        <ele>1641</ele>
        <time>1970-01-01T00:32:06.000Z</time>
      </trkpt>
      <trkpt lat="42.79136" lon="0.58869">
        <ele>1641</ele>
        <time>1970-01-01T00:32:07.000Z</time>
      </trkpt>
      <trkpt lat="42.79137" lon="0.58869">
        <ele>1634</ele>
        <time>1970-01-01T00:32:08.000Z</time>
      </trkpt>
      <trkpt lat="42.79137" lon="0.58869">
        <ele>1634</ele>
        <time>1970-01-01T00:32:09.000Z</time>
      </trkpt>
      <trkpt lat="42.79137" lon="0.58869">
        <ele>1634</ele>
        <time>1970-01-01T00:32:10.000Z</time>
      </trkpt>
      <trkpt lat="42.79137" lon="0.5887">
        <ele>1633</ele>
        <time>1970-01-01T00:32:11.000Z</time>
      </trkpt>
      <trkpt lat="42.79138" lon="0.5887">
        <ele>1633</ele>
        <time>1970-01-01T00:32:12.000Z</time>
      </trkpt>
      <trkpt lat="42.79138" lon="0.5887">
        <ele>1632</ele>
        <time>1970-01-01T00:32:13.000Z</time>
      </trkpt>
      <trkpt lat="42.79143" lon="0.58876">
        <ele>1631</ele>
        <time>1970-01-01T00:32:14.000Z</time>
      </trkpt>
      <trkpt lat="42.79143" lon="0.58877">
        <ele>1630</ele>
        <time>1970-01-01T00:32:15.000Z</time>
      </trkpt>
      <trkpt lat="42.79143" lon="0.58879">
        <ele>1630</ele>
        <time>1970-01-01T00:32:16.000Z</time>
      </trkpt>
      <trkpt lat="42.79144" lon="0.58881">
        <ele>1630</ele>
        <time>1970-01-01T00:32:17.000Z</time>
      </trkpt>
      <trkpt lat="42.79144" lon="0.58883">
        <ele>1629</ele>
        <time>1970-01-01T00:32:18.000Z</time>
      </trkpt>
      <trkpt lat="42.79145" lon="0.58884">
        <ele>1629</ele>
        <time>1970-01-01T00:32:19.000Z</time>
      </trkpt>
      <trkpt lat="42.79145" lon="0.58886">
        <ele>1628</ele>
        <time>1970-01-01T00:32:20.000Z</time>
      </trkpt>
      <trkpt lat="42.79146" lon="0.58888">
        <ele>1627</ele>
        <time>1970-01-01T00:32:21.000Z</time>
      </trkpt>
      <trkpt lat="42.79146" lon="0.58889">
        <ele>1627</ele>
        <time>1970-01-01T00:32:22.000Z</time>
      </trkpt>
      <trkpt lat="42.79146" lon="0.58891">
        <ele>1625</ele>
        <time>1970-01-01T00:32:23.000Z</time>
      </trkpt>
      <trkpt lat="42.79146" lon="0.58893">
        <ele>1624</ele>
        <time>1970-01-01T00:32:24.000Z</time>
      </trkpt>
      <trkpt lat="42.79147" lon="0.58895">
        <ele>1624</ele>
        <time>1970-01-01T00:32:25.000Z</time>
      </trkpt>
      <trkpt lat="42.79147" lon="0.58901">
        <ele>1623</ele>
        <time>1970-01-01T00:32:26.000Z</time>
      </trkpt>
      <trkpt lat="42.79147" lon="0.589">
        <ele>1622</ele>
        <time>1970-01-01T00:32:27.000Z</time>
      </trkpt>
      <trkpt lat="42.79146" lon="0.589">
        <ele>1621</ele>
        <time>1970-01-01T00:32:28.000Z</time>
      </trkpt>
      <trkpt lat="42.79146" lon="0.58899">
        <ele>1621</ele>
        <time>1970-01-01T00:32:29.000Z</time>
      </trkpt>
      <trkpt lat="42.79145" lon="0.58898">
        <ele>1620</ele>
        <time>1970-01-01T00:32:30.000Z</time>
      </trkpt>
      <trkpt lat="42.79145" lon="0.58898">
        <ele>1621</ele>
        <time>1970-01-01T00:32:31.000Z</time>
      </trkpt>
      <trkpt lat="42.79145" lon="0.58897">
        <ele>1621</ele>
        <time>1970-01-01T00:32:32.000Z</time>
      </trkpt>
      <trkpt lat="42.79144" lon="0.58897">
        <ele>1620</ele>
        <time>1970-01-01T00:32:33.000Z</time>
      </trkpt>
      <trkpt lat="42.79144" lon="0.58896">
        <ele>1620</ele>
        <time>1970-01-01T00:32:34.000Z</time>
      </trkpt>
      <trkpt lat="42.79139" lon="0.5889">
        <ele>1620</ele>
        <time>1970-01-01T00:32:35.000Z</time>
      </trkpt>
      <trkpt lat="42.79137" lon="0.58889">
        <ele>1620</ele>
        <time>1970-01-01T00:32:36.000Z</time>
      </trkpt>
      <trkpt lat="42.79136" lon="0.58889">
        <ele>1620</ele>
        <time>1970-01-01T00:32:37.000Z</time>
      </trkpt>
      <trkpt lat="42.79135" lon="0.58889">
        <ele>1620</ele>
        <time>1970-01-01T00:32:38.000Z</time>
      </trkpt>
      <trkpt lat="42.79127" lon="0.58886">
        <ele>1620</ele>
        <time>1970-01-01T00:32:39.000Z</time>
      </trkpt>
      <trkpt lat="42.79125" lon="0.58885">
        <ele>1620</ele>
        <time>1970-01-01T00:32:40.000Z</time>
      </trkpt>
      <trkpt lat="42.79124" lon="0.58884">
        <ele>1620</ele>
        <time>1970-01-01T00:32:41.000Z</time>
      </trkpt>
      <trkpt lat="42.79122" lon="0.58882">
        <ele>1620</ele>
        <time>1970-01-01T00:32:42.000Z</time>
      </trkpt>
      <trkpt lat="42.79112" lon="0.58877">
        <ele>1620</ele>
        <time>1970-01-01T00:32:43.000Z</time>
      </trkpt>
      <trkpt lat="42.7911" lon="0.58876">
        <ele>1620</ele>
        <time>1970-01-01T00:32:44.000Z</time>
      </trkpt>
      <trkpt lat="42.79108" lon="0.58875">
        <ele>1620</ele>
        <time>1970-01-01T00:32:45.000Z</time>
      </trkpt>
      <trkpt lat="42.79099" lon="0.58871">
        <ele>1620</ele>
        <time>1970-01-01T00:32:46.000Z</time>
      </trkpt>
      <trkpt lat="42.79097" lon="0.5887">
        <ele>1620</ele>
        <time>1970-01-01T00:32:47.000Z</time>
      </trkpt>
      <trkpt lat="42.79095" lon="0.58868">
        <ele>1818</ele>
        <time>1970-01-01T00:32:48.000Z</time>
      </trkpt>
      <trkpt lat="42.79087" lon="0.58863">
        <ele>1817</ele>
        <time>1970-01-01T00:32:49.000Z</time>
      </trkpt>
      <trkpt lat="42.79085" lon="0.58861">
        <ele>1817</ele>
        <time>1970-01-01T00:32:50.000Z</time>
      </trkpt>
      <trkpt lat="42.79082" lon="0.5886">
        <ele>1817</ele>
        <time>1970-01-01T00:32:51.000Z</time>
      </trkpt>
      <trkpt lat="42.79074" lon="0.58855">
        <ele>1817</ele>
        <time>1970-01-01T00:32:52.000Z</time>
      </trkpt>
      <trkpt lat="42.79071" lon="0.58854">
        <ele>1816</ele>
        <time>1970-01-01T00:32:53.000Z</time>
      </trkpt>
      <trkpt lat="42.79066" lon="0.5885">
        <ele>1815</ele>
        <time>1970-01-01T00:32:54.000Z</time>
      </trkpt>
      <trkpt lat="42.79064" lon="0.5885">
        <ele>1815</ele>
        <time>1970-01-01T00:32:55.000Z</time>
      </trkpt>
      <trkpt lat="42.79063" lon="0.5885">
        <ele>1815</ele>
        <time>1970-01-01T00:32:56.000Z</time>
      </trkpt>
      <trkpt lat="42.79062" lon="0.5885">
        <ele>1815</ele>
        <time>1970-01-01T00:32:57.000Z</time>
      </trkpt>
      <trkpt lat="42.79055" lon="0.58853">
        <ele>1816</ele>
        <time>1970-01-01T00:32:58.000Z</time>
      </trkpt>
      <trkpt lat="42.79053" lon="0.58857">
        <ele>1816</ele>
        <time>1970-01-01T00:32:59.000Z</time>
      </trkpt>
      <trkpt lat="42.79052" lon="0.58861">
        <ele>1816</ele>
        <time>1970-01-01T00:33:00.000Z</time>
      </trkpt>
      <trkpt lat="42.79051" lon="0.58863">
        <ele>1816</ele>
        <time>1970-01-01T00:33:01.000Z</time>
      </trkpt>
      <trkpt lat="42.7905" lon="0.58864">
        <ele>1816</ele>
        <time>1970-01-01T00:33:02.000Z</time>
      </trkpt>
      <trkpt lat="42.79049" lon="0.58866">
        <ele>1816</ele>
        <time>1970-01-01T00:33:03.000Z</time>
      </trkpt>
      <trkpt lat="42.79048" lon="0.58867">
        <ele>1816</ele>
        <time>1970-01-01T00:33:04.000Z</time>
      </trkpt>
      <trkpt lat="42.79044" lon="0.58876">
        <ele>1816</ele>
        <time>1970-01-01T00:33:05.000Z</time>
      </trkpt>
      <trkpt lat="42.79043" lon="0.58879">
        <ele>1816</ele>
        <time>1970-01-01T00:33:06.000Z</time>
      </trkpt>
      <trkpt lat="42.79042" lon="0.58881">
        <ele>1816</ele>
        <time>1970-01-01T00:33:07.000Z</time>
      </trkpt>
      <trkpt lat="42.79039" lon="0.5889">
        <ele>1816</ele>
        <time>1970-01-01T00:33:08.000Z</time>
      </trkpt>
      <trkpt lat="42.79038" lon="0.58892">
        <ele>1816</ele>
        <time>1970-01-01T00:33:09.000Z</time>
      </trkpt>
      <trkpt lat="42.79037" lon="0.58895">
        <ele>1816</ele>
        <time>1970-01-01T00:33:10.000Z</time>
      </trkpt>
      <trkpt lat="42.79033" lon="0.58905">
        <ele>1816</ele>
        <time>1970-01-01T00:33:11.000Z</time>
      </trkpt>
      <trkpt lat="42.79032" lon="0.58909">
        <ele>1816</ele>
        <time>1970-01-01T00:33:12.000Z</time>
      </trkpt>
      <trkpt lat="42.7903" lon="0.58913">
        <ele>1816</ele>
        <time>1970-01-01T00:33:13.000Z</time>
      </trkpt>
      <trkpt lat="42.79029" lon="0.58916">
        <ele>1816</ele>
        <time>1970-01-01T00:33:14.000Z</time>
      </trkpt>
      <trkpt lat="42.79029" lon="0.58918">
        <ele>1816</ele>
        <time>1970-01-01T00:33:15.000Z</time>
      </trkpt>
      <trkpt lat="42.79028" lon="0.5892">
        <ele>1816</ele>
        <time>1970-01-01T00:33:16.000Z</time>
      </trkpt>
      <trkpt lat="42.79024" lon="0.58928">
        <ele>1816</ele>
        <time>1970-01-01T00:33:17.000Z</time>
      </trkpt>
      <trkpt lat="42.79022" lon="0.58929">
        <ele>1816</ele>
        <time>1970-01-01T00:33:18.000Z</time>
      </trkpt>
      <trkpt lat="42.79021" lon="0.5893">
        <ele>1816</ele>
        <time>1970-01-01T00:33:19.000Z</time>
      </trkpt>
      <trkpt lat="42.79014" lon="0.58934">
        <ele>1816</ele>
        <time>1970-01-01T00:33:20.000Z</time>
      </trkpt>
      <trkpt lat="42.79012" lon="0.58933">
        <ele>1816</ele>
        <time>1970-01-01T00:33:21.000Z</time>
      </trkpt>
      <trkpt lat="42.7901" lon="0.58933">
        <ele>1816</ele>
        <time>1970-01-01T00:33:22.000Z</time>
      </trkpt>
      <trkpt lat="42.79002" lon="0.58931">
        <ele>1816</ele>
        <time>1970-01-01T00:33:23.000Z</time>
      </trkpt>
      <trkpt lat="42.79" lon="0.5893">
        <ele>1816</ele>
        <time>1970-01-01T00:33:24.000Z</time>
      </trkpt>
      <trkpt lat="42.78998" lon="0.58928">
        <ele>1816</ele>
        <time>1970-01-01T00:33:25.000Z</time>
      </trkpt>
      <trkpt lat="42.7899" lon="0.58925">
        <ele>1816</ele>
        <time>1970-01-01T00:33:26.000Z</time>
      </trkpt>
      <trkpt lat="42.78988" lon="0.58925">
        <ele>1816</ele>
        <time>1970-01-01T00:33:27.000Z</time>
      </trkpt>
      <trkpt lat="42.78987" lon="0.58924">
        <ele>1815</ele>
        <time>1970-01-01T00:33:28.000Z</time>
      </trkpt>
      <trkpt lat="42.78979" lon="0.58924">
        <ele>1815</ele>
        <time>1970-01-01T00:33:29.000Z</time>
      </trkpt>
      <trkpt lat="42.78977" lon="0.58924">
        <ele>1815</ele>
        <time>1970-01-01T00:33:30.000Z</time>
      </trkpt>
      <trkpt lat="42.78975" lon="0.58924">
        <ele>1815</ele>
        <time>1970-01-01T00:33:31.000Z</time>
      </trkpt>
      <trkpt lat="42.78968" lon="0.58923">
        <ele>1815</ele>
        <time>1970-01-01T00:33:32.000Z</time>
      </trkpt>
      <trkpt lat="42.78965" lon="0.58923">
        <ele>1815</ele>
        <time>1970-01-01T00:33:33.000Z</time>
      </trkpt>
      <trkpt lat="42.78963" lon="0.58923">
        <ele>1815</ele>
        <time>1970-01-01T00:33:34.000Z</time>
      </trkpt>
      <trkpt lat="42.78955" lon="0.58921">
        <ele>1815</ele>
        <time>1970-01-01T00:33:35.000Z</time>
      </trkpt>
      <trkpt lat="42.78953" lon="0.58921">
        <ele>1815</ele>
        <time>1970-01-01T00:33:36.000Z</time>
      </trkpt>
      <trkpt lat="42.7895" lon="0.58921">
        <ele>1815</ele>
        <time>1970-01-01T00:33:37.000Z</time>
      </trkpt>
      <trkpt lat="42.78942" lon="0.58919">
        <ele>1815</ele>
        <time>1970-01-01T00:33:38.000Z</time>
      </trkpt>
      <trkpt lat="42.7894" lon="0.58919">
        <ele>1815</ele>
        <time>1970-01-01T00:33:39.000Z</time>
      </trkpt>
      <trkpt lat="42.78938" lon="0.58919">
        <ele>1815</ele>
        <time>1970-01-01T00:33:40.000Z</time>
      </trkpt>
      <trkpt lat="42.7893" lon="0.58918">
        <ele>1815</ele>
        <time>1970-01-01T00:33:41.000Z</time>
      </trkpt>
      <trkpt lat="42.78928" lon="0.58918">
        <ele>1815</ele>
        <time>1970-01-01T00:33:42.000Z</time>
      </trkpt>
      <trkpt lat="42.78926" lon="0.58918">
        <ele>1815</ele>
        <time>1970-01-01T00:33:43.000Z</time>
      </trkpt>
      <trkpt lat="42.78918" lon="0.5892">
        <ele>1815</ele>
        <time>1970-01-01T00:33:44.000Z</time>
      </trkpt>
      <trkpt lat="42.78915" lon="0.58921">
        <ele>1815</ele>
        <time>1970-01-01T00:33:45.000Z</time>
      </trkpt>
      <trkpt lat="42.78911" lon="0.58921">
        <ele>1815</ele>
        <time>1970-01-01T00:33:46.000Z</time>
      </trkpt>
      <trkpt lat="42.78909" lon="0.58921">
        <ele>1815</ele>
        <time>1970-01-01T00:33:47.000Z</time>
      </trkpt>
      <trkpt lat="42.78907" lon="0.58921">
        <ele>1815</ele>
        <time>1970-01-01T00:33:48.000Z</time>
      </trkpt>
      <trkpt lat="42.78905" lon="0.58921">
        <ele>1815</ele>
        <time>1970-01-01T00:33:49.000Z</time>
      </trkpt>
      <trkpt lat="42.78897" lon="0.58921">
        <ele>1815</ele>
        <time>1970-01-01T00:33:50.000Z</time>
      </trkpt>
      <trkpt lat="42.78895" lon="0.58921">
        <ele>1815</ele>
        <time>1970-01-01T00:33:51.000Z</time>
      </trkpt>
      <trkpt lat="42.78893" lon="0.58921">
        <ele>1815</ele>
        <time>1970-01-01T00:33:52.000Z</time>
      </trkpt>
      <trkpt lat="42.78887" lon="0.58921">
        <ele>1815</ele>
        <time>1970-01-01T00:33:53.000Z</time>
      </trkpt>
      <trkpt lat="42.78886" lon="0.58922">
        <ele>1815</ele>
        <time>1970-01-01T00:33:54.000Z</time>
      </trkpt>
      <trkpt lat="42.78884" lon="0.58923">
        <ele>1815</ele>
        <time>1970-01-01T00:33:55.000Z</time>
      </trkpt>
      <trkpt lat="42.78883" lon="0.58923">
        <ele>1815</ele>
        <time>1970-01-01T00:33:56.000Z</time>
      </trkpt>
      <trkpt lat="42.78877" lon="0.58927">
        <ele>1815</ele>
        <time>1970-01-01T00:33:57.000Z</time>
      </trkpt>
      <trkpt lat="42.78876" lon="0.58929">
        <ele>1817</ele>
        <time>1970-01-01T00:33:58.000Z</time>
      </trkpt>
      <trkpt lat="42.78875" lon="0.5893">
        <ele>1817</ele>
        <time>1970-01-01T00:33:59.000Z</time>
      </trkpt>
      <trkpt lat="42.78873" lon="0.58932">
        <ele>1817</ele>
        <time>1970-01-01T00:34:00.000Z</time>
      </trkpt>
      <trkpt lat="42.78867" lon="0.5894">
        <ele>1817</ele>
        <time>1970-01-01T00:34:01.000Z</time>
      </trkpt>
      <trkpt lat="42.78866" lon="0.58943">
        <ele>1817</ele>
        <time>1970-01-01T00:34:02.000Z</time>
      </trkpt>
      <trkpt lat="42.78865" lon="0.58945">
        <ele>1817</ele>
        <time>1970-01-01T00:34:03.000Z</time>
      </trkpt>
      <trkpt lat="42.7886" lon="0.58954">
        <ele>1817</ele>
        <time>1970-01-01T00:34:04.000Z</time>
      </trkpt>
      <trkpt lat="42.78859" lon="0.58956">
        <ele>1817</ele>
        <time>1970-01-01T00:34:05.000Z</time>
      </trkpt>
      <trkpt lat="42.78858" lon="0.58959">
        <ele>1817</ele>
        <time>1970-01-01T00:34:06.000Z</time>
      </trkpt>
      <trkpt lat="42.78853" lon="0.58969">
        <ele>1817</ele>
        <time>1970-01-01T00:34:07.000Z</time>
      </trkpt>
      <trkpt lat="42.78851" lon="0.58971">
        <ele>1816</ele>
        <time>1970-01-01T00:34:08.000Z</time>
      </trkpt>
      <trkpt lat="42.78849" lon="0.58973">
        <ele>1816</ele>
        <time>1970-01-01T00:34:09.000Z</time>
      </trkpt>
      <trkpt lat="42.78843" lon="0.58983">
        <ele>1816</ele>
        <time>1970-01-01T00:34:10.000Z</time>
      </trkpt>
      <trkpt lat="42.78842" lon="0.58986">
        <ele>1816</ele>
        <time>1970-01-01T00:34:11.000Z</time>
      </trkpt>
      <trkpt lat="42.7884" lon="0.58988">
        <ele>1816</ele>
        <time>1970-01-01T00:34:12.000Z</time>
      </trkpt>
      <trkpt lat="42.78834" lon="0.58998">
        <ele>1816</ele>
        <time>1970-01-01T00:34:13.000Z</time>
      </trkpt>
      <trkpt lat="42.78833" lon="0.59">
        <ele>1816</ele>
        <time>1970-01-01T00:34:14.000Z</time>
      </trkpt>
      <trkpt lat="42.78831" lon="0.59002">
        <ele>1816</ele>
        <time>1970-01-01T00:34:15.000Z</time>
      </trkpt>
      <trkpt lat="42.78826" lon="0.59011">
        <ele>1816</ele>
        <time>1970-01-01T00:34:16.000Z</time>
      </trkpt>
      <trkpt lat="42.78825" lon="0.59013">
        <ele>1816</ele>
        <time>1970-01-01T00:34:17.000Z</time>
      </trkpt>
      <trkpt lat="42.78823" lon="0.59015">
        <ele>1817</ele>
        <time>1970-01-01T00:34:18.000Z</time>
      </trkpt>
      <trkpt lat="42.78819" lon="0.59025">
        <ele>1817</ele>
        <time>1970-01-01T00:34:19.000Z</time>
      </trkpt>
      <trkpt lat="42.78818" lon="0.59028">
        <ele>1817</ele>
        <time>1970-01-01T00:34:20.000Z</time>
      </trkpt>
      <trkpt lat="42.78818" lon="0.5903">
        <ele>1817</ele>
        <time>1970-01-01T00:34:21.000Z</time>
      </trkpt>
      <trkpt lat="42.78815" lon="0.59041">
        <ele>1817</ele>
        <time>1970-01-01T00:34:22.000Z</time>
      </trkpt>
      <trkpt lat="42.78814" lon="0.59043">
        <ele>1817</ele>
        <time>1970-01-01T00:34:23.000Z</time>
      </trkpt>
      <trkpt lat="42.78814" lon="0.59046">
        <ele>1817</ele>
        <time>1970-01-01T00:34:24.000Z</time>
      </trkpt>
      <trkpt lat="42.7881" lon="0.59057">
        <ele>1817</ele>
        <time>1970-01-01T00:34:25.000Z</time>
      </trkpt>
      <trkpt lat="42.78808" lon="0.59061">
        <ele>1817</ele>
        <time>1970-01-01T00:34:26.000Z</time>
      </trkpt>
      <trkpt lat="42.78806" lon="0.59065">
        <ele>1817</ele>
        <time>1970-01-01T00:34:27.000Z</time>
      </trkpt>
      <trkpt lat="42.78805" lon="0.59066">
        <ele>1818</ele>
        <time>1970-01-01T00:34:28.000Z</time>
      </trkpt>
      <trkpt lat="42.78803" lon="0.59066">
        <ele>1818</ele>
        <time>1970-01-01T00:34:29.000Z</time>
      </trkpt>
      <trkpt lat="42.78802" lon="0.59067">
        <ele>1818</ele>
        <time>1970-01-01T00:34:30.000Z</time>
      </trkpt>
      <trkpt lat="42.78801" lon="0.59068">
        <ele>1818</ele>
        <time>1970-01-01T00:34:31.000Z</time>
      </trkpt>
      <trkpt lat="42.78794" lon="0.59072">
        <ele>1818</ele>
        <time>1970-01-01T00:34:32.000Z</time>
      </trkpt>
      <trkpt lat="42.78794" lon="0.59073">
        <ele>1818</ele>
        <time>1970-01-01T00:34:33.000Z</time>
      </trkpt>
      <trkpt lat="42.78793" lon="0.59073">
        <ele>1818</ele>
        <time>1970-01-01T00:34:34.000Z</time>
      </trkpt>
      <trkpt lat="42.78792" lon="0.59074">
        <ele>1818</ele>
        <time>1970-01-01T00:34:35.000Z</time>
      </trkpt>
      <trkpt lat="42.78791" lon="0.59075">
        <ele>1818</ele>
        <time>1970-01-01T00:34:36.000Z</time>
      </trkpt>
      <trkpt lat="42.78788" lon="0.5908">
        <ele>1818</ele>
        <time>1970-01-01T00:34:37.000Z</time>
      </trkpt>
      <trkpt lat="42.78788" lon="0.59081">
        <ele>1820</ele>
        <time>1970-01-01T00:34:38.000Z</time>
      </trkpt>
      <trkpt lat="42.78789" lon="0.59081">
        <ele>1820</ele>
        <time>1970-01-01T00:34:39.000Z</time>
      </trkpt>
      <trkpt lat="42.7879" lon="0.59082">
        <ele>1820</ele>
        <time>1970-01-01T00:34:40.000Z</time>
      </trkpt>
      <trkpt lat="42.78791" lon="0.59082">
        <ele>1820</ele>
        <time>1970-01-01T00:34:41.000Z</time>
      </trkpt>
      <trkpt lat="42.78798" lon="0.59088">
        <ele>1820</ele>
        <time>1970-01-01T00:34:42.000Z</time>
      </trkpt>
      <trkpt lat="42.788" lon="0.5909">
        <ele>1820</ele>
        <time>1970-01-01T00:34:43.000Z</time>
      </trkpt>
      <trkpt lat="42.78802" lon="0.59092">
        <ele>1820</ele>
        <time>1970-01-01T00:34:44.000Z</time>
      </trkpt>
      <trkpt lat="42.78804" lon="0.59094">
        <ele>1820</ele>
        <time>1970-01-01T00:34:45.000Z</time>
      </trkpt>
      <trkpt lat="42.78805" lon="0.59096">
        <ele>1820</ele>
        <time>1970-01-01T00:34:46.000Z</time>
      </trkpt>
      <trkpt lat="42.78806" lon="0.59098">
        <ele>1820</ele>
        <time>1970-01-01T00:34:47.000Z</time>
      </trkpt>
      <trkpt lat="42.78808" lon="0.591">
        <ele>1821</ele>
        <time>1970-01-01T00:34:48.000Z</time>
      </trkpt>
      <trkpt lat="42.78809" lon="0.59102">
        <ele>1821</ele>
        <time>1970-01-01T00:34:49.000Z</time>
      </trkpt>
      <trkpt lat="42.78811" lon="0.59104">
        <ele>1821</ele>
        <time>1970-01-01T00:34:50.000Z</time>
      </trkpt>
      <trkpt lat="42.78811" lon="0.59104">
        <ele>1821</ele>
        <time>1970-01-01T00:34:51.000Z</time>
      </trkpt>
      <trkpt lat="42.78811" lon="0.59104">
        <ele>1821</ele>
        <time>1970-01-01T00:34:52.000Z</time>
      </trkpt>
      <trkpt lat="42.78811" lon="0.59104">
        <ele>1821</ele>
        <time>1970-01-01T00:34:53.000Z</time>
      </trkpt>
      <trkpt lat="42.78811" lon="0.59104">
        <ele>1821</ele>
        <time>1970-01-01T00:34:54.000Z</time>
      </trkpt>
      <trkpt lat="42.78811" lon="0.59104">
        <ele>1821</ele>
        <time>1970-01-01T00:34:55.000Z</time>
      </trkpt>
      <trkpt lat="42.78811" lon="0.59104">
        <ele>1821</ele>
        <time>1970-01-01T00:34:56.000Z</time>
      </trkpt>
      <trkpt lat="42.78811" lon="0.59104">
        <ele>1821</ele>
        <time>1970-01-01T00:34:57.000Z</time>
      </trkpt>
      <trkpt lat="42.78811" lon="0.59104">
        <ele>1821</ele>
        <time>1970-01-01T00:34:58.000Z</time>
      </trkpt>
      <trkpt lat="42.78811" lon="0.59104">
        <ele>1821</ele>
        <time>1970-01-01T00:34:59.000Z</time>
      </trkpt>
      <trkpt lat="42.78811" lon="0.59104">
        <ele>1821</ele>
        <time>1970-01-01T00:35:00.000Z</time>
      </trkpt>
      <trkpt lat="42.78811" lon="0.59104">
        <ele>1821</ele>
        <time>1970-01-01T00:35:01.000Z</time>
      </trkpt>
      <trkpt lat="42.78811" lon="0.59104">
        <ele>1821</ele>
        <time>1970-01-01T00:35:02.000Z</time>
      </trkpt>
      <trkpt lat="42.78811" lon="0.59104">
        <ele>1821</ele>
        <time>1970-01-01T00:35:03.000Z</time>
      </trkpt>
      <trkpt lat="42.78811" lon="0.59104">
        <ele>1821</ele>
        <time>1970-01-01T00:35:04.000Z</time>
      </trkpt>
      <trkpt lat="42.78811" lon="0.59104">
        <ele>1821</ele>
        <time>1970-01-01T00:35:05.000Z</time>
      </trkpt>
      <trkpt lat="42.78811" lon="0.59104">
        <ele>1821</ele>
        <time>1970-01-01T00:35:06.000Z</time>
      </trkpt>
      <trkpt lat="42.78811" lon="0.59104">
        <ele>1821</ele>
        <time>1970-01-01T00:35:07.000Z</time>
      </trkpt>
      <trkpt lat="42.78811" lon="0.59104">
        <ele>1820</ele>
        <time>1970-01-01T00:35:08.000Z</time>
      </trkpt>
      <trkpt lat="42.78811" lon="0.59104">
        <ele>1820</ele>
        <time>1970-01-01T00:35:09.000Z</time>
      </trkpt>
      <trkpt lat="42.78811" lon="0.59104">
        <ele>1820</ele>
        <time>1970-01-01T00:35:10.000Z</time>
      </trkpt>
      <trkpt lat="42.78811" lon="0.59104">
        <ele>1820</ele>
        <time>1970-01-01T00:35:11.000Z</time>
      </trkpt>
      <trkpt lat="42.78811" lon="0.59104">
        <ele>1820</ele>
        <time>1970-01-01T00:35:12.000Z</time>
      </trkpt>
      <trkpt lat="42.78811" lon="0.59104">
        <ele>1820</ele>
        <time>1970-01-01T00:35:13.000Z</time>
      </trkpt>
      <trkpt lat="42.78811" lon="0.59104">
        <ele>1820</ele>
        <time>1970-01-01T00:35:14.000Z</time>
      </trkpt>
      <trkpt lat="42.78811" lon="0.59104">
        <ele>1820</ele>
        <time>1970-01-01T00:35:15.000Z</time>
      </trkpt>
      <trkpt lat="42.78811" lon="0.59104">
        <ele>1820</ele>
        <time>1970-01-01T00:35:16.000Z</time>
      </trkpt>
      <trkpt lat="42.78811" lon="0.59104">
        <ele>1820</ele>
        <time>1970-01-01T00:35:17.000Z</time>
      </trkpt>
      <trkpt lat="42.78811" lon="0.59104">
        <ele>1820</ele>
        <time>1970-01-01T00:35:18.000Z</time>
      </trkpt>
      <trkpt lat="42.78811" lon="0.59104">
        <ele>1820</ele>
        <time>1970-01-01T00:35:19.000Z</time>
      </trkpt>
      <trkpt lat="42.78811" lon="0.59104">
        <ele>1820</ele>
        <time>1970-01-01T00:35:20.000Z</time>
      </trkpt>
      <trkpt lat="42.78811" lon="0.59104">
        <ele>1820</ele>
        <time>1970-01-01T00:35:21.000Z</time>
      </trkpt>
      <trkpt lat="42.78811" lon="0.59104">
        <ele>1820</ele>
        <time>1970-01-01T00:35:22.000Z</time>
      </trkpt>
      <trkpt lat="42.78811" lon="0.59104">
        <ele>1820</ele>
        <time>1970-01-01T00:35:23.000Z</time>
      </trkpt>
      <trkpt lat="42.78811" lon="0.59104">
        <ele>1820</ele>
        <time>1970-01-01T00:35:24.000Z</time>
      </trkpt>
      <trkpt lat="42.78811" lon="0.59104">
        <ele>1820</ele>
        <time>1970-01-01T00:35:25.000Z</time>
      </trkpt>
      <trkpt lat="42.78811" lon="0.59104">
        <ele>1820</ele>
        <time>1970-01-01T00:35:26.000Z</time>
      </trkpt>
      <trkpt lat="42.78811" lon="0.59104">
        <ele>1820</ele>
        <time>1970-01-01T00:35:27.000Z</time>
      </trkpt>
      <trkpt lat="42.78811" lon="0.59104">
        <ele>1821</ele>
        <time>1970-01-01T00:35:28.000Z</time>
      </trkpt>
      <trkpt lat="42.78811" lon="0.59104">
        <ele>1821</ele>
        <time>1970-01-01T00:35:29.000Z</time>
      </trkpt>
    </trkseg>
  </trk>
</gpx>